[[{"header":{"parameterUnit":"m.s-1","parameterCategory":1,"la1":31.0,"la2":29.5877,"lo1":-88.7671,"lo2":-86.6584,"dy":0.0162,"dx":0.0185,"nx":115,"ny":88,"refTime":"2024-03-12T06:00:00:Z","depth":0,"parameterNumber":2,"parameterNumberName":"U-component_of_WINDS"},"data":[0.0,0.0,0.0,0.0,0.0,0.0,0.0,0.0,0.0,0.0,0.0,0.0,0.0,0.0,0.0,0.0,0.0,0.0,0.0,0.0,0.0,0.0,0.0,0.0,0.0,0.0,0.0,0.0,0.0,0.0,0.0,0.0,0.0,0.0,0.0,0.0,0.0,0.0,0.0,0.0,0.0,0.0,0.0,0.0,0.0,0.0,0.0,0.0,0.0,0.0,0.0,0.0,0.0,0.0,0.0,0.0,0.0,0.0,0.0,0.0,0.0,0.0,0.0,0.0,0.0,0.0,0.0,0.0,0.0,0.0,0.0,0.0,0.0,0.0,0.0,0.0,0.0,0.0,0.0,0.0,0.0,0.0,0.0,0.0,0.0,0.0,0.0,0.0,0.0,0.0,0.0,0.0,0.0,0.0,0.0,0.0,0.0,0.0,0.0,0.0,0.0,0.0,0.0,0.0,0.0,0.0,0.0,0.0,0.0,0.0,0.0,0.0,0.0,0.0,0.0,0.0,0.0,0.0,0.0,0.0,0.0,0.0,0.0,0.0,0.0,0.0,0.0,0.0,0.0,0.0,0.0,0.0,0.0,0.0,0.0,0.0,0.0,0.0,0.0,0.0,0.0,0.0,0.0,0.0,0.0,0.0,0.0,0.0,0.0,0.0,0.0,0.0,0.0,0.0,0.0,0.0,0.0,0.0,0.0,0.0,0.0,0.0,0.0,0.0,0.0,0.0,0.0,0.0,0.0,0.0,0.0,0.0,0.0,0.0,0.0,0.0,0.0,0.0,0.0,0.0,0.0,0.0,0.0,0.0,0.0,0.0,0.0,0.0,0.0,0.0,0.0,0.0,0.0,0.0,0.0,0.0,0.0,0.0,0.0,0.0,0.0,0.0,0.0,0.0,0.0,0.0,0.0,0.0,0.0,0.0,0.0,0.0,0.0,0.0,0.0,0.0,0.0,0.0,0.0,0.0,0.0,0.0,0.0,0.0,0.0,0.0,0.0,0.0,0.0,0.0,0.0,0.0,0.0,0.0,0.0,0.0,0.0,0.0,0.0,0.0,0.0,0.0,0.0,0.0,0.0,0.0,0.0,0.0,0.0,0.0,0.0,0.0,0.0,0.0,0.0,0.0,0.0,0.0,0.0,0.0,0.0,0.0,0.0,0.0,0.0,0.0,0.0,0.0,0.0,0.0,0.0,0.0,0.0,0.0,0.0,0.0,0.0,0.0,0.0,0.0,0.0,0.0,0.0,0.0,0.0,0.0,0.0,0.0,0.0,0.0,0.0,0.0,0.0,0.0,0.0,0.0,0.0,0.0,0.0,0.0,0.0,0.0,0.0,0.0,0.0,0.0,0.0,0.0,0.0,0.0,0.0,0.0,0.0,0.0,0.0,0.0,0.0,0.0,0.0,0.0,0.0,0.0,0.0,0.0,0.0,0.0,0.0,0.0,0.0,0.0,0.0,0.0,0.0,0.0,0.0,0.0,0.0,0.0,0.0,0.0,0.0,0.0,0.0,0.0,0.0,0.0,0.0,0.0,0.0,0.0,0.0,0.0,0.0,0.0,0.0,0.0,0.0,0.0,0.0,0.0,0.0,0.0,0.0,0.0,0.0,0.0,0.0,0.0,0.0,0.0,0.0,0.0,0.0,0.0,0.0,0.0,0.0,0.0,0.0,0.0,0.0,0.0,0.0,0.0,0.0,0.0,0.0,0.0,0.0,0.0,0.0,0.0,0.0,0.0,0.0,0.0,0.0,0.0,0.0,0.0,0.0,0.0,0.0,0.0,0.0,0.0,0.0,0.0,0.0,0.0,0.0,0.0,0.0,0.0,0.0,0.0,0.0,0.0,0.0,0.0,0.0,0.0,0.0,0.0,0.0,0.0,0.0,0.0,0.0,0.0,0.0,0.0,0.0,0.0,0.0,0.0,0.0,0.0,0.0,0.0,0.0,0.0,0.0,0.0,0.0,0.0,0.0,0.0,0.0,0.0,0.0,0.0,0.0,0.0,0.0,0.0,0.0,0.0,0.0,0.0,0.0,0.0,0.0,0.0,0.0,0.0,0.0,0.0,0.0,0.0,0.0,0.0,0.0,0.0,0.0,0.0,0.0,0.0,0.0,0.0,0.0,0.0,0.0,0.0,0.0,0.0,0.0,0.0,0.0,0.0,0.0,0.0,0.0,0.0,0.0,0.0,0.0,0.0,0.0,0.0,0.0,0.0,0.0,0.0,0.0,0.0,0.0,0.0,0.0,0.0,0.0,0.0,0.0,0.0,0.0,0.0,0.0,0.0,0.0,0.0,0.0,0.0,0.0,0.0,0.0,0.0,0.0,0.0,0.0,0.0,0.0,0.0,0.0,0.0,0.0,0.0,0.0,0.0,0.0,0.0,0.0,0.0,0.0,0.0,0.0,0.0,0.0,0.0,0.0,0.0,0.0,0.0,0.0,0.0,0.0,0.0,0.0,0.0,0.0,0.0,0.0,0.0,0.0,0.0,0.0,0.0,0.0,0.0,0.0,0.0,0.0,0.0,0.0,0.0,0.0,0.0,0.0,0.0,0.0,0.0,0.0,0.0,0.0,0.0,0.0,0.0,0.0,0.0,0.0,0.0,0.0,0.0,0.0,0.0,0.0,0.0,0.0,0.0,0.0,0.0,0.0,0.0,0.0,0.0,0.0,0.0,0.0,0.0,0.0,0.0,0.0,0.0,0.0,0.0,0.0,0.0,0.0,0.0,0.0,0.0,0.0,0.0,0.0,0.0,0.0,0.0,0.0,0.0,0.0,0.0,0.0,0.0,0.0,0.0,0.0,0.0,0.0,0.0,0.0,0.0,0.0,0.0,0.0,0.0,0.0,0.0,0.0,0.0,0.0,0.0,0.0,0.0,0.0,0.0,0.0,0.0,0.0,0.0,0.0,0.0,0.0,0.0,0.0,0.0,0.0,0.0,0.0,0.0,0.0,0.0,0.0,0.0,0.0,0.0,0.0,0.0,0.0,0.0,0.0,0.0,0.0,0.0,0.0,0.0,0.0,0.0,0.0,0.0,0.0,0.0,0.0,0.0,0.0,0.0,0.0,0.0,0.0,0.0,0.0,0.0,0.0,0.0,0.0,0.0,0.0,0.0,0.0,0.0,0.0,0.0,0.0,0.0,0.0,0.0,0.0,0.0,0.0,0.0,0.0,0.0,0.0,0.0,0.0,0.0,0.0,0.0,0.0,0.0,0.0,0.0,0.0,0.0,0.0,0.0,0.0,0.0,0.0,0.0,0.0,0.0,0.0,0.0,0.0,0.0,0.0,0.0,0.0,0.0,0.0,0.0,0.0,0.0,0.0,0.0,0.0,0.0,0.0,0.0,0.0,0.0,0.0,0.0,0.0,0.0,0.0,0.0,0.0,0.0,0.0,0.0,0.0,0.0,0.0,0.0,0.0,0.0,0.0,0.0,0.0,0.0,0.0,0.0,0.0,0.0,0.0,0.0,0.0,0.0,0.0,0.0,0.0,0.0,0.0,0.0,0.0,0.0,0.0,0.0,0.0,0.0,0.0,0.0,0.0,0.0,0.0,0.0,0.0,0.0,0.0,0.0,0.0,0.0,0.0,0.0,0.0,0.0,0.0,0.0,0.0,0.0,0.0,0.0,0.0,0.0,0.0,0.0,0.0,0.0,0.0,0.0,0.0,0.0,0.0,0.0,0.0,0.0,0.0,0.0,0.0,0.0,0.0,0.0,0.0,0.0,0.0,0.0,0.0,0.0,0.0,0.0,0.0,0.0,0.0,0.0,0.0,0.0,0.0,0.0,0.0,0.0,0.0,0.0,0.0,0.0,0.0,0.0,0.0,0.0,0.0,0.0,0.0,0.0,0.0,0.0,0.0,0.0,0.0,0.0,0.0,0.0,0.0,0.0,0.0,0.0,0.0,0.0,0.0,0.0,0.0,0.0,0.0,0.0,0.0,0.0,0.0,0.0,0.0,0.0,0.0,0.0,0.0,0.0,0.0,0.0,0.0,0.0,0.0,0.0,0.0,0.0,0.0,0.0,0.0,0.0,0.0,0.0,0.0,0.0,0.0,0.0,0.0,0.0,0.0,0.0,0.0,0.0,0.0,0.0,0.0,0.0,0.0,0.0,0.0,0.0,0.0,0.0,0.0,0.0,0.0,0.0,0.0,0.0,0.0,0.0,0.0,0.0,0.0,0.0,0.0,0.0,0.0,0.0,0.0,0.0,0.0,0.0,0.0,0.0,0.0,0.0,0.0,0.0,0.0,0.0,0.0,0.0,-3.736,0.0,0.0,0.0,0.0,0.0,0.0,0.0,0.0,0.0,0.0,0.0,0.0,0.0,0.0,0.0,0.0,0.0,0.0,0.0,0.0,0.0,0.0,0.0,0.0,0.0,0.0,0.0,0.0,0.0,0.0,0.0,0.0,0.0,0.0,0.0,0.0,0.0,0.0,0.0,0.0,0.0,0.0,0.0,0.0,0.0,0.0,0.0,0.0,0.0,0.0,0.0,0.0,0.0,0.0,0.0,0.0,0.0,0.0,0.0,0.0,0.0,0.0,0.0,0.0,0.0,0.0,0.0,0.0,0.0,0.0,0.0,0.0,0.0,0.0,0.0,0.0,0.0,0.0,0.0,0.0,0.0,0.0,0.0,0.0,0.0,0.0,0.0,0.0,0.0,0.0,0.0,0.0,0.0,0.0,0.0,0.0,0.0,0.0,0.0,0.0,0.0,0.0,0.0,0.0,0.0,0.0,0.0,0.0,0.0,0.0,-4.0942,-4.0565,-4.0116,-3.931,-3.803,0.0,0.0,0.0,0.0,0.0,0.0,0.0,0.0,0.0,0.0,0.0,0.0,0.0,0.0,0.0,0.0,0.0,0.0,0.0,0.0,0.0,0.0,0.0,0.0,0.0,0.0,0.0,0.0,0.0,0.0,0.0,0.0,0.0,0.0,0.0,0.0,0.0,0.0,0.0,0.0,0.0,0.0,0.0,0.0,0.0,0.0,0.0,0.0,0.0,0.0,0.0,0.0,0.0,0.0,0.0,0.0,0.0,0.0,0.0,0.0,0.0,0.0,0.0,0.0,0.0,0.0,0.0,0.0,0.0,0.0,0.0,0.0,0.0,0.0,0.0,0.0,0.0,0.0,0.0,0.0,0.0,0.0,0.0,0.0,0.0,0.0,0.0,0.0,0.0,0.0,0.0,0.0,0.0,0.0,0.0,0.0,0.0,0.0,0.0,0.0,0.0,0.0,0.0,0.0,0.0,0.0,0.0,0.0,0.0,0.0,0.0,0.0,-4.0897,-3.9882,-3.8584,0.0,0.0,0.0,0.0,0.0,0.0,0.0,0.0,0.0,0.0,0.0,0.0,0.0,0.0,0.0,0.0,0.0,0.0,0.0,0.0,0.0,0.0,0.0,0.0,0.0,0.0,0.0,0.0,0.0,0.0,0.0,0.0,0.0,0.0,0.0,0.0,0.0,0.0,0.0,0.0,0.0,0.0,0.0,0.0,0.0,0.0,0.0,0.0,0.0,0.0,0.0,0.0,0.0,0.0,0.0,0.0,0.0,0.0,0.0,0.0,0.0,0.0,0.0,0.0,0.0,0.0,0.0,0.0,0.0,0.0,0.0,0.0,0.0,0.0,0.0,0.0,0.0,0.0,0.0,0.0,0.0,0.0,0.0,0.0,0.0,0.0,0.0,0.0,0.0,0.0,0.0,0.0,0.0,0.0,0.0,0.0,0.0,0.0,0.0,0.0,0.0,0.0,0.0,0.0,0.0,0.0,0.0,0.0,0.0,0.0,-4.2659,-4.341,-4.2597,0.0,-3.8627,0.0,0.0,0.0,0.0,0.0,0.0,0.0,0.0,0.0,0.0,0.0,0.0,0.0,0.0,0.0,0.0,0.0,0.0,0.0,0.0,0.0,0.0,0.0,0.0,0.0,0.0,0.0,0.0,0.0,0.0,0.0,0.0,0.0,0.0,0.0,0.0,0.0,0.0,0.0,0.0,0.0,0.0,0.0,0.0,0.0,0.0,0.0,0.0,0.0,0.0,0.0,0.0,0.0,0.0,0.0,0.0,0.0,0.0,0.0,0.0,0.0,0.0,0.0,0.0,0.0,0.0,0.0,0.0,0.0,0.0,0.0,0.0,0.0,0.0,0.0,0.0,0.0,0.0,0.0,0.0,0.0,0.0,0.0,0.0,0.0,0.0,0.0,0.0,0.0,0.0,0.0,0.0,0.0,0.0,0.0,0.0,0.0,0.0,0.0,0.0,0.0,0.0,0.0,0.0,0.0,0.0,0.0,0.0,0.0,0.0,-4.2763,-4.3627,-4.1873,-4.0175,0.0,0.0,0.0,0.0,0.0,0.0,0.0,0.0,0.0,0.0,0.0,0.0,0.0,0.0,0.0,0.0,0.0,0.0,0.0,0.0,0.0,0.0,0.0,0.0,0.0,0.0,0.0,0.0,0.0,0.0,0.0,0.0,0.0,0.0,0.0,0.0,0.0,0.0,0.0,0.0,0.0,0.0,0.0,0.0,0.0,0.0,0.0,0.0,0.0,0.0,0.0,0.0,0.0,0.0,0.0,0.0,0.0,0.0,0.0,0.0,0.0,0.0,0.0,0.0,0.0,0.0,0.0,0.0,0.0,0.0,0.0,0.0,0.0,0.0,0.0,0.0,0.0,0.0,0.0,0.0,0.0,0.0,0.0,0.0,0.0,0.0,0.0,0.0,0.0,0.0,0.0,0.0,0.0,0.0,0.0,0.0,0.0,0.0,0.0,0.0,0.0,0.0,0.0,0.0,0.0,0.0,0.0,0.0,0.0,0.0,-4.249,-4.2952,-4.3462,-4.1422,-3.9707,-3.8613,0.0,0.0,0.0,0.0,0.0,0.0,0.0,0.0,0.0,0.0,0.0,0.0,0.0,0.0,0.0,0.0,0.0,0.0,0.0,0.0,0.0,0.0,0.0,0.0,0.0,0.0,0.0,0.0,0.0,0.0,0.0,0.0,0.0,0.0,0.0,0.0,0.0,0.0,0.0,0.0,0.0,0.0,0.0,0.0,0.0,0.0,0.0,0.0,0.0,0.0,0.0,0.0,0.0,0.0,0.0,0.0,0.0,0.0,0.0,0.0,0.0,0.0,0.0,0.0,0.0,0.0,0.0,0.0,0.0,0.0,0.0,0.0,0.0,0.0,0.0,0.0,0.0,0.0,0.0,0.0,0.0,0.0,0.0,0.0,0.0,0.0,0.0,0.0,0.0,0.0,0.0,0.0,0.0,0.0,0.0,0.0,0.0,0.0,0.0,0.0,0.0,0.0,0.0,0.0,0.0,0.0,0.0,0.0,-4.2179,-4.3017,-4.3517,-4.3651,-4.1967,-4.0292,0.0,0.0,0.0,0.0,0.0,0.0,0.0,0.0,0.0,0.0,0.0,0.0,0.0,0.0,0.0,0.0,0.0,0.0,0.0,0.0,0.0,0.0,0.0,0.0,0.0,0.0,0.0,0.0,0.0,0.0,0.0,0.0,0.0,0.0,0.0,0.0,0.0,0.0,0.0,0.0,0.0,0.0,0.0,0.0,0.0,0.0,0.0,0.0,0.0,0.0,0.0,0.0,0.0,0.0,0.0,0.0,0.0,0.0,0.0,0.0,0.0,0.0,0.0,0.0,0.0,0.0,0.0,0.0,0.0,0.0,0.0,0.0,0.0,0.0,0.0,0.0,0.0,0.0,0.0,0.0,0.0,0.0,0.0,0.0,0.0,0.0,0.0,0.0,0.0,0.0,0.0,0.0,0.0,0.0,0.0,0.0,0.0,0.0,0.0,0.0,0.0,0.0,0.0,0.0,0.0,0.0,0.0,0.0,0.0,-4.2125,-4.3622,-4.4164,-4.3666,-4.2004,-4.0311,0.0,0.0,0.0,0.0,0.0,0.0,0.0,0.0,0.0,0.0,0.0,0.0,0.0,0.0,0.0,0.0,0.0,0.0,0.0,0.0,0.0,0.0,0.0,0.0,0.0,0.0,0.0,0.0,0.0,0.0,0.0,0.0,0.0,0.0,0.0,0.0,0.0,0.0,0.0,0.0,0.0,0.0,0.0,0.0,0.0,0.0,0.0,0.0,0.0,0.0,0.0,0.0,0.0,0.0,0.0,0.0,0.0,0.0,0.0,0.0,0.0,0.0,0.0,0.0,0.0,0.0,0.0,0.0,0.0,0.0,0.0,0.0,0.0,0.0,0.0,0.0,0.0,0.0,0.0,0.0,0.0,0.0,0.0,0.0,0.0,0.0,0.0,0.0,0.0,0.0,0.0,0.0,0.0,0.0,0.0,0.0,0.0,0.0,0.0,0.0,0.0,0.0,0.0,0.0,0.0,0.0,0.0,0.0,0.0,-4.247,0.0,-4.449,-4.3671,-4.2288,-4.06,0.0,0.0,0.0,0.0,0.0,0.0,0.0,0.0,0.0,0.0,0.0,0.0,0.0,0.0,0.0,0.0,0.0,0.0,0.0,0.0,0.0,0.0,0.0,0.0,0.0,0.0,0.0,0.0,0.0,0.0,0.0,0.0,0.0,0.0,0.0,0.0,0.0,0.0,0.0,0.0,0.0,0.0,0.0,0.0,0.0,0.0,0.0,0.0,0.0,0.0,0.0,0.0,0.0,0.0,0.0,0.0,0.0,0.0,0.0,0.0,0.0,0.0,0.0,0.0,0.0,0.0,0.0,0.0,0.0,0.0,0.0,0.0,0.0,0.0,0.0,0.0,0.0,0.0,0.0,0.0,0.0,0.0,0.0,0.0,0.0,0.0,0.0,0.0,0.0,0.0,0.0,0.0,0.0,0.0,0.0,0.0,0.0,0.0,0.0,0.0,0.0,0.0,0.0,0.0,0.0,0.0,0.0,0.0,-4.0679,-4.33,-4.4356,-4.4518,-4.3663,-4.285,-4.121,0.0,0.0,0.0,0.0,0.0,0.0,0.0,0.0,0.0,0.0,0.0,0.0,0.0,0.0,0.0,0.0,0.0,0.0,0.0,0.0,0.0,0.0,0.0,0.0,0.0,0.0,0.0,0.0,0.0,0.0,0.0,0.0,0.0,0.0,0.0,0.0,0.0,0.0,0.0,0.0,0.0,0.0,0.0,0.0,0.0,0.0,0.0,0.0,0.0,0.0,0.0,0.0,0.0,0.0,0.0,0.0,0.0,0.0,0.0,0.0,0.0,0.0,0.0,0.0,0.0,0.0,0.0,0.0,0.0,0.0,0.0,0.0,0.0,0.0,0.0,0.0,0.0,0.0,0.0,0.0,0.0,0.0,0.0,0.0,0.0,0.0,0.0,0.0,0.0,0.0,0.0,0.0,0.0,0.0,0.0,0.0,0.0,0.0,0.0,0.0,0.0,0.0,0.0,0.0,0.0,0.0,0.0,0.0,0.0,-4.4175,-4.5142,-4.5527,-4.5303,-4.4014,-4.2105,0.0,0.0,0.0,0.0,0.0,0.0,0.0,0.0,0.0,0.0,0.0,0.0,0.0,0.0,0.0,0.0,0.0,0.0,0.0,0.0,0.0,0.0,0.0,0.0,0.0,0.0,0.0,0.0,0.0,0.0,0.0,0.0,0.0,0.0,0.0,0.0,0.0,0.0,0.0,0.0,0.0,0.0,0.0,0.0,0.0,0.0,0.0,0.0,0.0,0.0,0.0,0.0,0.0,0.0,0.0,0.0,0.0,0.0,0.0,0.0,0.0,0.0,0.0,0.0,0.0,0.0,0.0,0.0,0.0,0.0,0.0,0.0,0.0,0.0,0.0,0.0,0.0,0.0,0.0,0.0,0.0,0.0,0.0,0.0,0.0,0.0,0.0,0.0,0.0,0.0,0.0,0.0,0.0,0.0,0.0,0.0,0.0,0.0,0.0,0.0,0.0,0.0,0.0,0.0,0.0,0.0,0.0,0.0,0.0,-4.4904,-4.5917,-4.6329,-4.6119,-4.4821,-4.2785,-3.9935,0.0,0.0,0.0,0.0,0.0,0.0,0.0,0.0,0.0,0.0,0.0,0.0,0.0,0.0,0.0,0.0,0.0,0.0,0.0,0.0,0.0,0.0,0.0,0.0,0.0,0.0,0.0,0.0,0.0,0.0,0.0,0.0,0.0,0.0,0.0,0.0,0.0,0.0,0.0,0.0,0.0,0.0,0.0,0.0,0.0,0.0,0.0,0.0,0.0,0.0,0.0,0.0,0.0,0.0,0.0,0.0,0.0,0.0,0.0,0.0,0.0,0.0,0.0,0.0,0.0,0.0,0.0,0.0,0.0,0.0,0.0,0.0,0.0,0.0,0.0,0.0,0.0,0.0,0.0,0.0,0.0,0.0,0.0,0.0,0.0,0.0,0.0,0.0,0.0,0.0,0.0,0.0,0.0,0.0,0.0,0.0,0.0,0.0,0.0,0.0,0.0,0.0,0.0,0.0,0.0,0.0,0.0,0.0,-4.5542,-4.6699,-4.6995,-4.6285,-4.5422,-4.3361,0.0,0.0,0.0,0.0,0.0,0.0,0.0,0.0,0.0,0.0,0.0,0.0,0.0,0.0,0.0,0.0,0.0,0.0,0.0,0.0,0.0,0.0,0.0,0.0,0.0,0.0,0.0,0.0,0.0,0.0,0.0,0.0,0.0,0.0,0.0,0.0,0.0,0.0,0.0,0.0,0.0,0.0,0.0,0.0,0.0,0.0,0.0,0.0,0.0,0.0,0.0,0.0,0.0,0.0,0.0,0.0,0.0,0.0,0.0,0.0,0.0,0.0,0.0,0.0,0.0,0.0,0.0,0.0,0.0,0.0,0.0,0.0,0.0,0.0,0.0,0.0,0.0,0.0,0.0,0.0,0.0,0.0,0.0,0.0,0.0,0.0,0.0,0.0,0.0,0.0,0.0,0.0,0.0,0.0,0.0,0.0,0.0,0.0,0.0,0.0,0.0,0.0,0.0,0.0,0.0,0.0,0.0,0.0,0.0,-4.6301,-4.7967,-4.8519,-4.7872,-4.6513,-4.418,0.0,0.0,0.0,0.0,0.0,0.0,0.0,0.0,0.0,0.0,0.0,0.0,0.0,0.0,0.0,0.0,0.0,0.0,0.0,0.0,0.0,0.0,0.0,0.0,0.0,0.0,0.0,0.0,0.0,0.0,0.0,0.0,0.0,0.0,0.0,0.0,0.0,0.0,0.0,0.0,0.0,0.0,0.0,0.0,0.0,0.0,0.0,0.0,0.0,0.0,0.0,0.0,0.0,0.0,0.0,0.0,0.0,0.0,0.0,0.0,0.0,0.0,0.0,0.0,0.0,0.0,0.0,0.0,0.0,0.0,0.0,0.0,0.0,0.0,0.0,0.0,0.0,0.0,0.0,0.0,0.0,0.0,0.0,0.0,0.0,0.0,0.0,0.0,0.0,0.0,0.0,0.0,0.0,0.0,0.0,0.0,0.0,0.0,0.0,0.0,0.0,0.0,0.0,0.0,0.0,0.0,0.0,0.0,-4.5026,-4.6489,-4.8699,-4.9508,-4.886,-4.7365,-4.4968,0.0,0.0,0.0,0.0,0.0,0.0,0.0,0.0,0.0,0.0,0.0,0.0,0.0,0.0,0.0,0.0,0.0,0.0,0.0,0.0,0.0,0.0,0.0,0.0,0.0,0.0,0.0,0.0,0.0,0.0,0.0,0.0,0.0,0.0,0.0,0.0,0.0,0.0,0.0,0.0,0.0,0.0,0.0,0.0,0.0,0.0,0.0,0.0,0.0,0.0,0.0,0.0,0.0,0.0,0.0,0.0,0.0,0.0,0.0,0.0,0.0,0.0,0.0,0.0,0.0,0.0,0.0,0.0,0.0,0.0,0.0,0.0,0.0,0.0,0.0,0.0,0.0,0.0,0.0,0.0,0.0,0.0,0.0,0.0,0.0,0.0,0.0,0.0,0.0,0.0,0.0,0.0,0.0,0.0,0.0,0.0,0.0,0.0,0.0,0.0,0.0,0.0,0.0,0.0,0.0,0.0,0.0,0.0,-4.5243,-4.648,-4.8934,-4.9931,-4.9259,-4.7905,-4.5615,0.0,0.0,0.0,0.0,0.0,0.0,0.0,0.0,0.0,0.0,0.0,0.0,0.0,0.0,0.0,0.0,0.0,0.0,0.0,0.0,0.0,0.0,0.0,0.0,0.0,0.0,0.0,0.0,0.0,0.0,0.0,0.0,0.0,0.0,0.0,0.0,0.0,0.0,0.0,0.0,0.0,0.0,0.0,0.0,0.0,0.0,0.0,0.0,0.0,0.0,0.0,0.0,0.0,0.0,0.0,0.0,0.0,0.0,0.0,0.0,0.0,0.0,0.0,0.0,0.0,0.0,0.0,0.0,0.0,0.0,0.0,0.0,0.0,0.0,0.0,0.0,0.0,0.0,0.0,0.0,0.0,0.0,0.0,0.0,0.0,0.0,0.0,0.0,0.0,0.0,0.0,0.0,0.0,0.0,0.0,0.0,0.0,0.0,0.0,0.0,0.0,0.0,0.0,0.0,0.0,0.0,0.0,0.0,-4.4749,-4.7068,-4.8497,-4.9182,-4.9071,-4.7712,-4.5669,0.0,0.0,0.0,0.0,0.0,0.0,0.0,0.0,0.0,0.0,0.0,0.0,0.0,0.0,0.0,0.0,0.0,0.0,0.0,0.0,0.0,0.0,0.0,0.0,0.0,0.0,0.0,0.0,0.0,0.0,0.0,0.0,0.0,0.0,0.0,0.0,0.0,0.0,0.0,0.0,0.0,0.0,0.0,0.0,0.0,0.0,0.0,0.0,-3.5986,0.0,0.0,0.0,0.0,0.0,0.0,0.0,0.0,0.0,0.0,0.0,0.0,0.0,0.0,0.0,0.0,0.0,0.0,0.0,0.0,0.0,0.0,0.0,0.0,0.0,0.0,0.0,0.0,0.0,0.0,0.0,0.0,0.0,0.0,0.0,0.0,0.0,0.0,0.0,0.0,0.0,0.0,0.0,0.0,0.0,0.0,0.0,0.0,0.0,0.0,0.0,0.0,0.0,0.0,0.0,0.0,0.0,0.0,0.0,-4.4186,-4.6477,-4.7579,-4.8207,-4.8229,-4.6849,-4.4892,0.0,0.0,0.0,0.0,0.0,0.0,0.0,0.0,0.0,0.0,0.0,0.0,0.0,0.0,0.0,0.0,0.0,0.0,0.0,0.0,0.0,0.0,0.0,0.0,0.0,0.0,0.0,0.0,0.0,0.0,0.0,0.0,0.0,0.0,0.0,0.0,0.0,0.0,0.0,0.0,0.0,0.0,0.0,0.0,0.0,0.0,0.0,0.0,0.0,0.0,0.0,0.0,0.0,0.0,0.0,0.0,0.0,0.0,0.0,0.0,0.0,0.0,0.0,0.0,0.0,0.0,0.0,0.0,0.0,0.0,0.0,0.0,0.0,0.0,0.0,0.0,0.0,0.0,0.0,0.0,0.0,0.0,0.0,0.0,0.0,0.0,0.0,0.0,0.0,0.0,0.0,0.0,0.0,0.0,0.0,0.0,0.0,0.0,0.0,0.0,0.0,0.0,0.0,0.0,0.0,0.0,0.0,-4.1248,-4.3562,-4.556,-4.6562,-4.7084,-4.7201,-4.5675,-4.3702,-4.1312,0.0,0.0,0.0,0.0,0.0,0.0,0.0,0.0,0.0,0.0,0.0,0.0,0.0,0.0,0.0,0.0,0.0,0.0,0.0,0.0,0.0,0.0,0.0,0.0,0.0,0.0,0.0,0.0,0.0,0.0,0.0,0.0,0.0,0.0,0.0,0.0,0.0,0.0,-3.2878,-3.5803,0.0,0.0,0.0,0.0,0.0,0.0,0.0,0.0,-3.7327,0.0,0.0,0.0,0.0,0.0,0.0,0.0,0.0,0.0,0.0,0.0,0.0,0.0,0.0,0.0,0.0,0.0,0.0,0.0,0.0,0.0,0.0,0.0,0.0,0.0,0.0,0.0,0.0,0.0,0.0,0.0,0.0,0.0,0.0,0.0,0.0,0.0,0.0,0.0,0.0,0.0,0.0,0.0,0.0,0.0,0.0,0.0,0.0,0.0,0.0,0.0,0.0,0.0,0.0,0.0,0.0,-3.8362,-4.042,-4.2714,-4.5211,-4.5604,-4.589,-4.6029,-4.451,-4.251,-4.0114,0.0,0.0,0.0,0.0,0.0,0.0,0.0,0.0,0.0,0.0,0.0,0.0,0.0,0.0,0.0,0.0,0.0,0.0,0.0,0.0,0.0,0.0,0.0,0.0,0.0,0.0,0.0,0.0,0.0,0.0,0.0,0.0,0.0,0.0,0.0,0.0,0.0,0.0,0.0,-3.8721,-4.0051,0.0,0.0,0.0,0.0,0.0,0.0,0.0,0.0,-3.6844,0.0,0.0,0.0,0.0,0.0,0.0,0.0,0.0,0.0,0.0,0.0,0.0,0.0,0.0,0.0,0.0,0.0,0.0,0.0,0.0,0.0,0.0,0.0,0.0,0.0,0.0,0.0,0.0,0.0,0.0,0.0,0.0,0.0,0.0,0.0,0.0,0.0,0.0,0.0,0.0,0.0,0.0,0.0,0.0,0.0,0.0,0.0,0.0,0.0,0.0,0.0,0.0,0.0,0.0,0.0,-3.7469,-3.975,-4.1844,-4.3636,-4.4289,-4.4509,-4.4289,-4.3197,-4.1448,0.0,0.0,0.0,0.0,0.0,0.0,0.0,0.0,0.0,0.0,0.0,0.0,0.0,0.0,0.0,0.0,0.0,0.0,0.0,0.0,0.0,0.0,0.0,0.0,0.0,0.0,0.0,0.0,0.0,0.0,0.0,0.0,0.0,0.0,0.0,0.0,0.0,0.0,0.0,0.0,-3.9654,-4.0935,-4.1596,0.0,0.0,0.0,0.0,0.0,0.0,-3.859,-3.7641,0.0,0.0,0.0,0.0,0.0,0.0,0.0,0.0,0.0,0.0,0.0,0.0,0.0,0.0,0.0,0.0,0.0,0.0,0.0,0.0,0.0,0.0,0.0,0.0,0.0,0.0,0.0,0.0,0.0,0.0,0.0,0.0,0.0,0.0,0.0,0.0,0.0,0.0,0.0,0.0,0.0,0.0,0.0,0.0,0.0,0.0,0.0,0.0,0.0,0.0,0.0,0.0,0.0,0.0,0.0,-3.6823,-3.9317,-4.1195,-4.235,-4.3229,-4.3405,-4.2779,-4.194,-4.0424,0.0,0.0,0.0,0.0,0.0,0.0,0.0,0.0,0.0,0.0,0.0,0.0,0.0,0.0,0.0,0.0,0.0,0.0,0.0,0.0,0.0,0.0,0.0,0.0,0.0,0.0,0.0,0.0,0.0,0.0,0.0,0.0,0.0,0.0,0.0,0.0,0.0,0.0,0.0,0.0,0.0,-4.1621,-4.2456,-4.2685,0.0,0.0,0.0,0.0,-4.1042,-4.0034,0.0,0.0,0.0,0.0,0.0,0.0,0.0,0.0,0.0,0.0,0.0,0.0,0.0,0.0,0.0,0.0,0.0,0.0,0.0,0.0,0.0,0.0,0.0,0.0,0.0,0.0,0.0,0.0,0.0,0.0,0.0,0.0,0.0,0.0,0.0,0.0,0.0,0.0,0.0,0.0,0.0,0.0,0.0,0.0,0.0,0.0,0.0,0.0,0.0,0.0,0.0,0.0,0.0,0.0,0.0,0.0,-3.7179,-3.9227,-4.1033,-4.259,-4.3051,-4.2953,-4.2277,-4.0938,-3.9442,0.0,0.0,0.0,0.0,0.0,0.0,0.0,0.0,0.0,0.0,0.0,0.0,0.0,0.0,0.0,0.0,0.0,0.0,0.0,0.0,0.0,0.0,0.0,0.0,0.0,0.0,0.0,0.0,0.0,0.0,0.0,0.0,0.0,0.0,0.0,0.0,0.0,0.0,0.0,0.0,0.0,-4.263,-4.2847,-4.2917,-4.2502,0.0,0.0,-4.1184,-4.1263,-4.11,0.0,0.0,0.0,0.0,0.0,0.0,0.0,0.0,0.0,0.0,0.0,0.0,0.0,0.0,0.0,0.0,0.0,0.0,0.0,0.0,0.0,0.0,0.0,0.0,0.0,0.0,0.0,0.0,0.0,0.0,0.0,0.0,0.0,0.0,0.0,0.0,0.0,0.0,0.0,0.0,0.0,0.0,0.0,0.0,0.0,0.0,0.0,0.0,0.0,0.0,0.0,0.0,0.0,0.0,0.0,-3.3334,-3.554,-3.8265,-3.9848,-4.0235,-4.1384,-4.1467,-4.0346,-3.9375,-3.7924,0.0,0.0,0.0,0.0,0.0,0.0,0.0,0.0,0.0,0.0,0.0,0.0,0.0,0.0,0.0,0.0,0.0,0.0,0.0,0.0,0.0,0.0,0.0,0.0,0.0,0.0,0.0,0.0,0.0,0.0,0.0,0.0,0.0,0.0,0.0,0.0,0.0,0.0,0.0,0.0,0.0,0.0,-4.294,-4.3487,0.0,0.0,0.0,-4.2476,-4.2586,0.0,0.0,0.0,0.0,0.0,0.0,0.0,0.0,0.0,0.0,0.0,0.0,0.0,0.0,0.0,0.0,0.0,0.0,0.0,0.0,0.0,0.0,0.0,0.0,0.0,0.0,0.0,0.0,0.0,0.0,0.0,0.0,0.0,0.0,0.0,0.0,0.0,0.0,0.0,0.0,0.0,0.0,0.0,0.0,0.0,0.0,0.0,0.0,0.0,0.0,0.0,0.0,0.0,0.0,0.0,0.0,0.0,-3.4064,-3.7001,-3.8464,-3.843,-3.979,-3.9937,-3.868,-3.7882,0.0,0.0,0.0,0.0,0.0,0.0,0.0,0.0,0.0,0.0,0.0,0.0,0.0,0.0,0.0,0.0,0.0,0.0,0.0,0.0,0.0,0.0,0.0,0.0,0.0,0.0,0.0,-2.2843,0.0,0.0,0.0,0.0,0.0,0.0,0.0,0.0,0.0,0.0,0.0,0.0,0.0,0.0,-4.047,-4.2627,-4.3606,-4.3958,0.0,0.0,-4.3546,-4.3627,-4.2612,-4.129,0.0,0.0,0.0,0.0,0.0,0.0,0.0,0.0,0.0,0.0,0.0,0.0,0.0,0.0,0.0,0.0,0.0,0.0,0.0,0.0,0.0,0.0,0.0,0.0,0.0,0.0,0.0,0.0,0.0,0.0,0.0,0.0,0.0,0.0,0.0,0.0,0.0,0.0,0.0,0.0,0.0,0.0,0.0,0.0,0.0,0.0,0.0,0.0,0.0,0.0,0.0,0.0,0.0,0.0,-3.1408,-3.3615,-3.5469,-3.7098,-3.8498,-3.8881,-3.872,-3.7974,-3.6717,-3.5295,0.0,0.0,0.0,0.0,0.0,0.0,0.0,0.0,0.0,0.0,0.0,0.0,0.0,0.0,0.0,0.0,0.0,0.0,0.0,0.0,0.0,0.0,0.0,0.0,0.0,0.0,0.0,0.0,0.0,0.0,0.0,0.0,0.0,0.0,0.0,0.0,0.0,0.0,0.0,0.0,0.0,-4.0158,-4.1695,-4.2726,-4.3362,0.0,-4.3581,-4.3784,-4.3767,-4.3117,-4.209,-4.0558,0.0,0.0,0.0,0.0,0.0,0.0,0.0,0.0,0.0,0.0,0.0,0.0,0.0,0.0,0.0,0.0,0.0,0.0,0.0,0.0,0.0,0.0,0.0,0.0,0.0,0.0,0.0,0.0,0.0,0.0,0.0,0.0,0.0,0.0,0.0,0.0,0.0,0.0,0.0,0.0,0.0,0.0,0.0,0.0,0.0,0.0,0.0,0.0,0.0,0.0,0.0,0.0,0.0,-3.0819,-3.2613,-3.4672,-3.6055,-3.6639,-3.7312,-3.7308,-3.6608,-3.5272,-3.4077,0.0,0.0,0.0,0.0,0.0,0.0,0.0,0.0,0.0,0.0,0.0,0.0,0.0,0.0,0.0,0.0,0.0,0.0,0.0,0.0,0.0,0.0,0.0,0.0,0.0,0.0,0.0,0.0,-2.4015,-2.4218,-2.498,0.0,0.0,0.0,0.0,0.0,0.0,0.0,0.0,0.0,0.0,-3.9098,-4.0981,-4.234,0.0,0.0,-4.2907,-4.2722,-4.2857,-4.1948,-4.0721,-3.9337,-3.7687,0.0,0.0,0.0,0.0,0.0,0.0,0.0,0.0,0.0,0.0,0.0,0.0,0.0,0.0,0.0,0.0,0.0,0.0,0.0,0.0,0.0,0.0,0.0,0.0,0.0,0.0,0.0,0.0,0.0,0.0,0.0,0.0,0.0,0.0,0.0,0.0,0.0,0.0,0.0,0.0,0.0,0.0,0.0,0.0,0.0,0.0,0.0,0.0,0.0,0.0,0.0,0.0,-2.9989,-3.1453,-3.3512,-3.476,-3.5195,-3.5889,-3.6038,-3.5521,-3.437,-3.3362,0.0,0.0,0.0,0.0,0.0,0.0,0.0,0.0,0.0,0.0,0.0,0.0,0.0,0.0,0.0,0.0,0.0,0.0,0.0,0.0,0.0,0.0,0.0,0.0,0.0,0.0,0.0,0.0,-2.4406,-2.4377,-2.459,0.0,0.0,0.0,0.0,0.0,0.0,0.0,0.0,0.0,0.0,-3.8306,-4.0202,-4.1413,-4.2189,-4.2369,-4.1876,-4.1493,-4.1615,-4.0713,-3.9578,-3.8371,0.0,0.0,0.0,0.0,0.0,0.0,0.0,0.0,0.0,0.0,0.0,0.0,0.0,0.0,0.0,0.0,0.0,0.0,0.0,0.0,0.0,0.0,0.0,0.0,0.0,0.0,0.0,0.0,0.0,0.0,-2.5766,0.0,0.0,0.0,0.0,0.0,0.0,0.0,0.0,0.0,0.0,0.0,0.0,0.0,0.0,0.0,0.0,0.0,0.0,0.0,0.0,0.0,0.0,-2.8764,-3.0243,-3.1773,-3.3214,-3.4666,-3.4732,-3.4804,-3.489,-3.4247,-3.3278,-3.1934,0.0,0.0,0.0,0.0,0.0,0.0,0.0,0.0,0.0,0.0,0.0,0.0,0.0,0.0,0.0,0.0,0.0,0.0,0.0,0.0,0.0,0.0,0.0,0.0,0.0,0.0,-2.4092,-2.398,-2.3751,0.0,0.0,0.0,0.0,0.0,0.0,0.0,0.0,0.0,0.0,-3.609,-3.7921,-3.9313,-3.9721,-4.0133,-4.0722,-4.0416,-4.0121,-4.0121,-3.9615,-3.8937,0.0,0.0,0.0,0.0,0.0,0.0,0.0,0.0,0.0,0.0,0.0,0.0,0.0,0.0,0.0,0.0,0.0,0.0,0.0,0.0,0.0,0.0,0.0,0.0,0.0,0.0,0.0,-2.8088,-2.7342,0.0,0.0,0.0,0.0,0.0,0.0,0.0,0.0,0.0,0.0,0.0,-3.1021,-3.1135,0.0,0.0,0.0,0.0,0.0,0.0,0.0,0.0,0.0,0.0,0.0,0.0,-2.8569,-3.0338,-3.1361,-3.2628,-3.4086,-3.4075,-3.4151,-3.4333,-3.3583,-3.236,-3.0625,0.0,0.0,0.0,0.0,0.0,0.0,0.0,0.0,0.0,0.0,0.0,0.0,0.0,0.0,0.0,0.0,0.0,0.0,0.0,0.0,0.0,0.0,0.0,0.0,0.0,-2.3447,0.0,0.0,0.0,0.0,0.0,0.0,0.0,0.0,0.0,0.0,0.0,-3.2223,-3.3833,-3.5415,-3.6753,-3.7709,-3.8267,-3.8702,0.0,0.0,0.0,0.0,0.0,0.0,0.0,0.0,0.0,0.0,0.0,0.0,0.0,0.0,-3.6255,-3.483,-3.4609,-3.4445,-3.3818,0.0,0.0,0.0,0.0,0.0,0.0,0.0,0.0,0.0,0.0,0.0,0.0,0.0,0.0,-2.8872,0.0,-2.7388,0.0,0.0,0.0,0.0,0.0,0.0,0.0,0.0,-2.9964,-3.088,-3.1826,-3.2176,-3.2402,0.0,-3.1003,-2.9974,0.0,0.0,0.0,0.0,0.0,0.0,0.0,0.0,-2.844,-3.018,-3.0941,-3.2031,-3.3443,-3.3429,-3.3455,-3.362,-3.2965,-3.187,-3.0369,-2.9141,-2.7729,0.0,0.0,0.0,0.0,0.0,0.0,0.0,0.0,0.0,0.0,0.0,0.0,0.0,0.0,0.0,0.0,0.0,0.0,0.0,0.0,0.0,0.0,0.0,-2.3702,0.0,0.0,0.0,0.0,0.0,0.0,0.0,0.0,0.0,-2.8752,-3.064,-3.2406,-3.3726,-3.4853,-3.5802,-3.6526,0.0,0.0,0.0,0.0,0.0,0.0,0.0,-3.6136,-3.5784,-3.6291,-3.6584,-3.6181,-3.6867,-3.7731,-3.8624,0.0,0.0,-3.682,-3.6359,-3.6126,-3.5768,-3.5572,-3.5506,-3.5555,-3.5465,-3.544,0.0,0.0,0.0,0.0,0.0,0.0,0.0,0.0,-3.0099,-2.9829,0.0,-2.8218,0.0,0.0,0.0,0.0,0.0,-2.7221,0.0,0.0,-3.0881,-3.1644,-3.2803,-3.2876,-3.2905,-3.2832,-3.1556,-3.091,-3.0749,-2.8515,0.0,0.0,0.0,0.0,0.0,0.0,-2.8319,-2.9679,-3.0388,-3.1394,-3.2714,-3.2761,-3.2761,-3.2745,-3.2379,-3.1848,-3.1099,-2.9998,-2.8427,-2.6363,-2.5556,0.0,0.0,0.0,0.0,0.0,0.0,0.0,0.0,0.0,0.0,0.0,0.0,0.0,0.0,0.0,0.0,0.0,0.0,0.0,0.0,-2.3085,0.0,0.0,0.0,0.0,0.0,0.0,0.0,0.0,0.0,0.0,-2.8979,-3.072,-3.2425,-3.3721,0.0,0.0,0.0,0.0,-3.5126,-3.5765,-3.5303,-3.4957,-3.5136,-3.5285,-3.5367,-3.5367,0.0,0.0,-3.8004,-3.846,-3.8893,-3.9819,-3.9885,-3.9612,-3.8479,-3.7733,-3.7293,-3.7213,-3.6718,-3.6335,-3.6409,-3.6462,-3.6499,-3.2706,0.0,0.0,0.0,0.0,-3.023,-3.0589,-3.1131,-3.0625,-3.0477,-3.04,-2.9146,0.0,0.0,0.0,0.0,0.0,0.0,-2.9219,-2.9972,-3.1279,-3.2103,-3.2506,-3.2947,-3.3195,-3.3138,-3.188,-3.1251,-3.1169,-2.9318,-2.7998,-2.722,0.0,0.0,0.0,0.0,-2.7739,-2.9448,-2.9777,-3.0573,-3.199,-3.1921,-3.1908,-3.1992,-3.2005,-3.1673,-3.0972,-3.0165,-2.9048,-2.755,-2.596,0.0,0.0,0.0,0.0,0.0,0.0,0.0,0.0,0.0,0.0,0.0,0.0,0.0,0.0,0.0,0.0,0.0,0.0,0.0,-2.2683,-2.2915,-2.3096,0.0,0.0,0.0,0.0,0.0,0.0,0.0,0.0,0.0,-2.9673,-3.1293,-3.272,0.0,0.0,-3.4014,-3.4235,-3.4209,-3.4268,-3.4456,-3.4414,0.0,0.0,-3.4539,-3.4687,-3.4702,-3.5499,-3.6656,-3.8292,-3.8366,-3.8509,-3.9455,-3.9243,-3.8848,-3.8748,-3.8792,-3.8656,-3.836,-3.7806,-3.7439,-3.7468,-3.7581,-3.7693,-3.3341,-3.2508,-3.1226,-3.0522,-3.0243,-3.0295,-3.063,-3.1116,-3.0758,-3.074,-3.0931,-2.9782,-2.9115,-2.8889,-2.8126,0.0,0.0,0.0,-2.9457,-2.9978,-3.1096,-3.1777,-3.2024,-3.2489,-3.2601,-3.2352,-3.1432,-3.0885,-3.0621,-2.9341,-2.8264,-2.7355,0.0,0.0,-2.6854,-2.6619,-2.727,-2.8707,-2.8781,-2.9339,-3.0474,-3.0743,-3.1039,-3.1452,-3.1581,-3.1471,-3.108,-3.0461,-2.9524,-2.8167,-2.6744,-2.5342,0.0,0.0,0.0,0.0,0.0,0.0,0.0,0.0,0.0,0.0,0.0,-2.0374,-2.0141,0.0,0.0,0.0,-2.0822,-2.1952,-2.2951,-2.3079,0.0,0.0,0.0,0.0,0.0,0.0,0.0,-2.633,-2.8164,-2.9628,-3.0215,-3.159,-3.2688,-3.3185,-3.3227,-3.3241,-3.3227,0.0,-3.3417,-3.3452,-3.3577,-3.3701,-3.375,-3.3937,-3.4194,-3.4508,-3.5116,-3.6079,-3.754,-3.7693,-3.7843,-3.8454,-3.8373,-3.8132,-3.8345,-3.8439,-3.8528,-3.8417,-3.7998,-3.7655,-3.7714,-3.7876,-3.8036,-3.3777,-3.354,-3.1657,-3.0481,-2.9896,-3.0158,-3.0428,-3.0609,-3.0609,-3.0802,-3.1091,-3.0086,-2.951,-2.9201,-2.8286,0.0,-2.8815,-2.8841,-2.9485,-3.0578,-3.0595,-3.0924,-3.1429,-3.1653,-3.1468,-3.0913,-3.0497,-2.9998,-2.9402,-2.8806,-2.8192,-2.7579,-2.7248,-2.7158,-2.728,-2.6705,-2.6827,-2.761,-2.7625,-2.7956,-2.8651,-2.9375,-3.0104,-3.0837,-3.0998,-3.1056,-3.1027,-3.0577,-2.9669,-2.8302,-2.7595,-2.6027,-2.3472,0.0,0.0,0.0,0.0,0.0,0.0,0.0,0.0,0.0,0.0,0.0,0.0,0.0,0.0,0.0,-2.1144,0.0,-2.2817,-2.3322,0.0,0.0,0.0,-2.4669,-2.5228,-2.5814,-2.6619,-2.7738,0.0,0.0,-3.0562,-3.158,-3.2362,-3.2596,-3.2632,-3.2668,-3.2668,-3.2704,-3.269,-3.2725,-3.2881,-3.3037,-3.3241,-3.3417,-3.3796,-3.4426,-3.488,-3.5421,-3.628,-3.6623,-3.6867,-3.7261,-3.73,-3.7278,-3.7462,-3.7134,-3.7046,-3.7654,-3.7466,-3.7224,-3.7328,-3.7522,-3.773,-3.3389,-3.2803,-3.1922,-3.1371,-3.1018,-3.0568,-3.0502,-3.0665,-3.0652,-3.0815,-3.0985,-3.0322,-2.9613,-2.8991,-2.8588,-2.8566,-2.8876,-2.934,-2.98,-3.0246,-3.0716,-3.0992,-3.111,-3.1161,-3.0882,-3.0303,-2.9759,-2.9179,-2.8647,-2.8046,-2.769,-2.7492,-2.6573,-2.6275,-2.6523,-2.5967,-2.6105,-2.7017,-2.7003,-2.7385,-2.814,-2.834,-2.8569,-2.8886,-2.8901,-2.8929,-2.8929,-2.8814,-2.8366,-2.7586,-2.6992,-2.5896,-2.4201,-2.3135,0.0,0.0,0.0,0.0,0.0,0.0,0.0,0.0,0.0,-2.047,-1.9853,0.0,-2.0166,0.0,-2.0469,-2.1582,-2.2641,-2.2764,0.0,0.0,-2.4285,-2.4791,-2.5865,-2.6537,-2.705,-2.7332,-2.8423,-2.9396,-2.9931,-3.0663,-3.1294,-3.1809,-3.2214,-3.2489,-3.2489,-3.2596,-3.269,-3.269,-3.2739,-3.2775,-3.286,-3.3002,-3.3269,-3.36,-3.4186,-3.4825,-3.5357,-3.5505,-3.563,-3.5947,-3.5682,-3.5518,-3.577,-3.5705,-3.5779,-3.6171,-3.6522,-3.6831,-3.6877,-3.7194,-3.7492,-3.3335,-3.2853,-3.1972,-3.1587,-3.1377,-3.0521,-3.0203,-3.0318,-3.0394,-3.0508,-3.0596,-3.0249,-2.9852,-2.9459,-2.9211,-2.9223,-2.9323,-2.9654,-2.9794,-2.9794,-3.0139,-3.0241,-3.0165,-2.9986,-2.9652,-2.9076,-2.8585,-2.8068,-2.7516,-2.716,-2.6912,-2.6768,-2.5891,-2.5467,-2.5579,-2.5206,-2.5297,-2.5894,-2.5922,-2.6326,-2.7169,-2.7197,-2.7453,-2.7923,-2.7938,-2.7967,-2.801,-2.8024,-2.7712,-2.7018,-2.665,-2.5679,-2.4044,-2.2989,-2.1987,0.0,0.0,0.0,0.0,0.0,0.0,0.0,0.0,0.0,0.0,0.0,-2.0843,-2.0318,-2.1095,-2.1887,-2.2551,-2.2808,-2.3298,-2.4213,-2.4507,-2.5013,-2.6054,-2.6764,-2.7249,-2.7327,-2.8152,-2.8847,-2.9156,-2.9896,-3.0557,-3.09,-3.1433,-3.185,-3.2009,-3.2141,-3.2214,-3.2214,-3.23,-3.2395,-3.2525,-3.2739,-3.2895,-3.303,-3.3494,-3.3931,-3.4228,-3.4382,-3.4522,-3.477,-3.4558,-3.4428,-3.4783,-3.485,-3.4968,-3.5282,-3.5703,-3.6085,-3.643,-3.6784,-3.7088,-3.3343,-3.3254,-3.1933,-3.1386,-3.1311,-3.0256,-2.9779,-2.9792,-2.9972,-3.0075,-3.0037,-3.0088,-3.0088,-3.0037,-2.9869,-2.9779,-2.9779,-2.974,-2.9611,-2.9419,-2.9392,-2.9238,-2.9008,-2.8682,-2.8251,-2.7643,-2.7315,-2.6874,-2.6289,-2.6289,-2.6104,-2.5757,-2.5208,-2.4811,-2.4571,-2.4406,-2.445,-2.4692,-2.4692,-2.5106,-2.5925,-2.5968,-2.6359,-2.7148,-2.7248,-2.7307,-2.7394,-2.7394,-2.7098,-2.6411,-2.6226,-2.53,-2.3483,-2.2626,-2.1696,0.0,-1.9832,0.0,0.0,0.0,0.0,0.0,0.0,0.0,0.0,-2.1508,-2.1605,-2.1609,-2.2078,-2.2409,-2.2513,-2.3022,-2.3566,-2.4141,-2.4653,-2.5223,-2.6034,-2.6711,-2.7175,-2.7356,-2.7832,-2.8178,-2.83,-2.9132,-2.9767,-2.9848,-3.0366,-3.0803,-3.118,-3.1381,-3.1559,-3.1522,-3.172,-3.195,-3.2214,-3.2467,-3.2596,-3.2632,-3.2803,-3.2988,-3.3234,-3.341,-3.3585,-3.3772,-3.3876,-3.3951,-3.4293,-3.4346,-3.4433,-3.4735,-3.4879,-3.5163,-3.5849,-3.6213,-3.6477,-3.3167,-3.3054,-3.1892,-3.1386,-3.1298,-3.0244,-2.9779,-2.9792,-2.983,-2.9869,-2.9869,-2.9869,-2.9856,-2.9869,-2.983,-2.9779,-2.9792,-2.956,-2.9457,-2.938,-2.9236,-2.8897,-2.8453,-2.8419,-2.7766,-2.67,-2.6602,-2.6188,-2.5511,-2.5676,-2.5499,-2.5007,-2.4612,-2.4243,-2.3873,0.0,0.0,0.0,-2.4218,-2.4374,-2.4654,-2.4769,-2.4909,-2.5074,-2.5346,0.0,-2.5373,-2.5373,-2.529,-2.5153,-2.4983,0.0,0.0,0.0,0.0,0.0,0.0,0.0,0.0,0.0,0.0,0.0,-2.0945,-2.1072,-2.0867,-2.0787,-2.0986,-2.1541,-2.1704,-2.2009,-2.2602,-2.2768,-2.3226,-2.4166,-2.4462,-2.5015,-2.6024,-2.6399,-2.6552,-2.6586,-2.6721,-2.6974,-2.7452,-2.7731,-2.8022,-2.8526,-2.9022,-2.9389,-2.949,-3.0425,-3.1099,-3.1136,-3.1259,-3.1495,-3.1743,-3.1913,-3.2078,-3.2241,-3.2395,-3.2596,-3.2775,-3.2846,-3.3002,-3.3347,-3.3396,-3.3536,-3.3917,-3.3985,-3.4011,-3.423,-3.3878,-3.3955,-3.5112,-3.5344,-3.5324,-3.3124,0.0,-3.1851,-3.1386,0.0,-3.0244,-2.9779,-2.9779,-2.9779,-2.9714,-2.9611,-2.9599,-2.9534,-2.9456,-2.9468,-2.9456,-2.9468,-2.9326,-2.9157,-2.8949,-2.8563,-2.814,-2.7681,-2.7188,-2.6621,-2.5983,-2.5636,-2.5313,-2.5064,-2.5052,-2.4765,-2.4179,-2.3993,-2.3624,-2.3083,-2.2954,-2.3198,-2.3852,-2.378,-2.3822,-2.3956,-2.4002,-2.4102,-2.4216,0.0,0.0,0.0,0.0,0.0,0.0,0.0,0.0,0.0,0.0,0.0,-2.1043,-2.0722,-2.0521,-2.0476,-2.0715,-2.0783,-2.0588,-2.1,-2.1219,-2.12,-2.1128,-2.1277,-2.168,-2.1746,-2.1946,-2.2396,-2.2475,-2.2901,-2.3912,-2.4112,-2.4627,-2.5652,-2.5978,-2.606,-2.6129,-2.6164,-2.6288,-2.6549,-2.6847,-2.7083,-2.7417,-2.7939,-2.8288,-2.8388,-2.9567,-3.0571,-3.0659,-3.0574,-3.0697,-3.1057,-3.1119,-3.1299,-3.1659,-3.1973,-3.2228,-3.2408,-3.2503,-3.2632,-3.2931,-3.3016,-3.3122,-3.3472,-3.3378,-3.322,-3.3373,-3.3016,-3.2799,-3.3529,-3.3839,-3.4009,-3.3081,-3.3023,-3.1951,-3.1474,-3.1311,-3.0344,-2.9892,-2.9702,0.0,0.0,0.0,-2.9341,-2.9275,-2.9104,-2.9104,-2.9104,-2.9104,-2.9013,-2.8828,-2.8447,-2.7816,-2.7323,-2.6882,-2.5951,-2.5407,-2.529,-2.4687,-2.4454,-2.4574,-2.4454,-2.4038,-2.3376,-2.3349,-2.2992,-2.2327,-2.2463,-2.283,-2.333,-2.3313,-2.3343,-2.342,-2.348,-2.3539,-2.3684,-2.3539,-2.3514,-2.3577,-2.3429,-2.3267,-2.3092,-2.2912,-2.2558,-2.193,-2.1464,-2.1003,-2.0482,-2.0211,-2.0003,-1.9918,-2.0461,-2.0703,-2.0476,-2.0897,-2.1265,-2.1561,-2.1604,-2.1655,-2.18,-2.1843,-2.1925,-2.2135,-2.2197,-2.257,-2.3553,-2.3661,-2.4126,-2.5208,-2.5402,-2.5519,-2.5734,-2.5793,-2.5793,-2.583,-2.6173,-2.6454,-2.6515,-2.6931,-2.7348,-2.7607,-2.8675,-2.9593,-2.9782,-2.9599,-2.9683,-3.008,-3.0157,-3.0296,-3.0747,-3.1136,-3.1495,-3.1712,-3.1879,-3.2031,-3.2064,-3.2231,-3.2415,-3.2674,-3.245,-3.2278,-3.2553,-3.2108,-3.1714,-3.1764,-3.2113,-3.2434,-3.2896,-3.3061,-3.2378,-3.1825,-3.1336,-3.0758,-3.0088,-2.9482,-2.947,-2.9353,-2.9131,-2.9131,-2.9131,-2.9104,-2.9104,-2.9104,-2.9052,-2.8736,-2.855,0.0,-2.7423,-2.6656,-2.6147,-2.5437,-2.4765,-2.4169,-2.4041,-2.3897,-2.3787,-2.3934,-2.3494,-2.2685,-2.2741,-2.2467,-2.1859,-2.1944,-2.2123,-2.2402,-2.2678,-2.28,-2.283,-2.2939,-2.2951,-2.2873,-2.2939,-2.2909,-2.2763,-2.2482,-2.2286,-2.2255,-2.1959,-2.1705,-2.1502,-2.1146,-2.0851,-2.0592,-2.0445,-2.0328,-2.0317,-2.0555,-2.0685,-2.0664,-2.0837,-2.1031,-2.1265,-2.1265,-2.1316,-2.1463,-2.1612,-2.1781,-2.1937,-2.2092,-2.245,-2.3035,-2.3099,-2.3508,-2.4552,-2.4675,-2.4865,-2.5286,-2.5382,-2.5382,-2.5394,-2.5479,-2.5539,-2.5587,-2.6045,-2.6505,-2.7053,-2.7569,-2.794,-2.8188,-2.8322,-2.8443,-2.8766,-2.8882,-2.9086,-2.9278,-2.9588,-2.9868,-3.0082,-3.0294,-3.0443,-3.0475,-3.0744,-3.0911,-3.1103,-3.1102,-3.1215,-3.1361,-3.0965,-3.0606,-3.0674,-3.0548,-3.0602,-3.284,-3.2993,-3.2453,-3.2064,-3.1775,-3.0826,-2.9846,-2.8946,-2.8922,-2.8843,-2.8776,-2.8657,-2.8538,-2.8431,-2.8431,-2.8471,-2.8431,-2.8283,-2.803,-2.777,-2.6988,-2.6226,-2.5515,-2.4911,-2.431,-2.3737,-2.3629,-2.3604,-2.3593,-2.3593,-2.3223,-2.2634,-2.2275,-2.1827,-2.1319,-2.1443,-2.1569,-2.1675,-2.2142,-2.2445,-2.2432,-2.2494,-2.2506,-2.2432,-2.2328,-2.2223,-2.2118,-2.1702,-2.142,-2.127,-2.1049,-2.0869,-2.0709,-2.0474,-2.0324,-2.0226,-2.0074,-1.9944,-1.9976,-2.0172,-2.0335,-2.0508,-2.0593,-2.0722,-2.0914,-2.1106,-2.1253,-2.1388,-2.1474,-2.1612,-2.1781,-2.1886,-2.2151,-2.2686,-2.2733,-2.3043,-2.372,-2.4101,-2.4339,-2.4588,-2.4874,-2.5016,-2.5016,-2.5052,-2.5087,-2.5171,-2.5493,-2.5829,-2.613,-2.6263,-2.6651,-2.7459,-2.7591,-2.7699,-2.7984,-2.8073,-2.8275,-2.86,-2.8869,-2.9048,-2.9213,-2.9425,-2.9601,-2.9789,-2.9985,-3.0192,-3.0337,-3.0249,-3.0266,-3.0323,-3.0039,-2.9743,-2.9668,-2.9393,-2.9377,-3.284,-3.3074,-3.2591,-3.2286,-3.1989,-3.0642,-2.9548,-2.8691,-2.8399,-2.8299,-2.8259,-2.8139,-2.8042,-2.7921,-2.7881,-2.7881,-2.7893,-2.78,-2.7534,-2.718,-2.6571,-2.5831,-2.5032,-2.4425,-2.3887,-2.3427,-2.3224,-2.3224,-2.3298,-2.3187,-2.2908,-2.2523,-2.1877,-2.1329,-2.0815,-2.1041,-2.1124,-2.1085,-2.1561,-2.1906,-2.1968,-2.1968,-2.1956,-2.1937,-2.1632,-2.1463,-2.1431,-2.0955,-2.0582,-2.0377,-2.0237,-2.0074,-1.9879,-1.9726,-1.9681,-1.9638,-1.9506,-1.945,-1.955,-1.9671,-1.9911,-2.0216,-2.0248,-2.0378,-2.054,-2.0775,-2.1063,-2.121,-2.1242,-2.138,-2.1529,-2.1624,-2.1819,-2.2239,-2.233,-2.253,-2.3069,-2.3436,-2.379,-2.3978,-2.439,-2.4672,-2.4754,-2.4801,-2.4849,-2.5016,-2.5147,-2.5241,-2.5241,-2.5276,-2.584,-2.6553,-2.6866,-2.6911,-2.7295,-2.7369,-2.7528,-2.7934,-2.8089,-2.8203,-2.8379,-2.8598,-2.8799,-2.8895,-2.913,-2.9249,-2.9413,-2.9302,-2.9253,-2.9356,-2.9173,-2.8926,-2.8815,-2.8654,-2.8598,-3.284,-3.3068,-3.2993,-3.2564,-3.1749,-3.0133,-2.9333,-2.9066,-2.8057,-2.7603,-2.7655,-2.7829,-2.7881,-2.7881,-2.7881,-2.7841,-2.7812,-2.7441,-2.7226,-2.7046,-2.6075,-2.5314,-2.4797,-2.4128,-2.3444,-2.2858,-2.2777,-2.2703,-2.258,-2.2542,-2.228,-2.1846,-2.1604,-2.1174,-2.0682,-2.0929,-2.0897,-2.0486,-2.069,-2.0978,-2.1285,-2.1285,-2.1296,-2.1285,-2.0892,-2.07,-2.0711,-2.0259,-1.99,-1.9714,-1.9506,-1.9341,-1.9198,-1.9008,-1.8908,-1.8908,-1.8908,-1.9008,-1.9285,-1.9351,-1.945,-1.9671,-1.9846,-1.9976,-1.9998,-2.0118,-2.0366,-2.069,-2.0871,-2.1031,-2.1221,-2.1348,-2.1478,-2.1721,-2.1753,-2.198,-2.2439,-2.2612,-2.2989,-2.3919,-2.3944,-2.4225,-2.4565,-2.4694,-2.4754,-2.479,-2.4945,-2.5076,-2.5147,-2.5206,-2.5288,-2.5587,-2.5786,-2.6045,-2.6214,-2.6442,-2.6735,-2.6807,-2.6813,-2.704,-2.7172,-2.725,-2.7272,-2.7657,-2.7579,-2.7808,-2.7891,-2.7828,-2.812,-2.8456,-2.8425,-2.8306,-2.8111,-2.804,-2.8249,-3.2853,-3.3068,-3.2952,-3.2271,-3.126,-3.0525,-2.9672,-2.8675,-2.8215,-2.7754,-2.7353,-2.7301,-2.7313,-2.7301,-2.7313,-2.7231,-2.7138,-2.6933,-2.6757,-2.658,-2.6102,-2.544,-2.4656,-2.4318,-2.3661,-2.2757,-2.2703,-2.258,-2.244,-2.2402,-2.2158,-2.1732,-2.1632,-2.1357,-2.0858,-2.0941,-2.0948,-2.0775,-2.0832,-2.0958,-2.1027,-2.0851,-2.0722,-2.069,-2.0356,-2.0194,-2.0118,-1.9704,-1.9374,-1.9308,-1.9019,-1.8785,-1.8741,-1.8674,-1.8617,-1.8617,-1.8607,-1.8674,-1.8818,-1.8808,-1.8985,-1.9274,-1.9374,-1.9506,-1.9704,-1.9758,-1.9889,-2.0031,-2.0399,-2.0658,-2.0722,-2.0871,-2.0999,-2.1097,-2.1129,-2.1209,-2.1392,-2.1678,-2.2044,-2.2445,-2.2983,-2.3406,-2.3658,-2.4005,-2.4286,-2.4418,-2.4634,-2.4802,-2.5052,-2.5147,-2.5206,-2.5312,-2.5641,-2.5875,-2.5945,-2.6258,-2.6452,-2.6499,-2.6521,-2.6589,-2.6589,-2.6705,-2.6841,-2.6794,-2.6977,-2.7113,-2.7245,-2.7369,-2.759,-2.7769,-2.7712,-2.7618,-2.7656,-2.7213,-2.7058,-3.2853,-3.2896,-3.2593,-3.1913,-3.1084,-3.0742,-2.9808,-2.8568,-2.8298,-2.7838,-2.7213,-2.6974,-2.685,-2.6809,-2.6809,-2.6727,-2.6592,-2.652,-2.6396,-2.6199,-2.6146,-2.5634,-2.4756,-2.453,-2.3922,-2.2956,-2.2692,-2.2478,-2.2252,-2.2289,-2.211,-2.1776,-2.1771,-2.1549,-2.1075,-2.1068,-2.1041,-2.0914,-2.0995,-2.0995,-2.097,-2.0667,-2.0434,-2.0358,-2.0105,-1.9843,-1.9671,-1.9241,-1.8975,-1.8865,-1.8596,-1.8405,-1.8347,-1.8381,-1.8381,-1.8347,-1.8381,-1.8381,-1.8448,-1.8448,-1.8573,-1.8875,-1.8942,-1.9042,-1.9241,-1.9274,-1.9308,-1.9308,-1.9714,-2.0009,-2.027,-2.0399,-2.0464,-2.0529,-2.0529,-2.0529,-2.0594,-2.0863,-2.1107,-2.1308,-2.1922,-2.2479,-2.2746,-2.3279,-2.3703,-2.3934,-2.4127,-2.4418,-2.4766,-2.4873,-2.4969,-2.5218,-2.5548,-2.577,-2.591,-2.6223,-2.6452,-2.6487,-2.6487,-2.6396,-2.6396,-2.6499,-2.6487,-2.6396,-2.6636,-2.6807,-2.6829,-2.6985,-2.7201,-2.7298,-2.721,-2.7025,-2.6938,-2.6294,-2.5923,-3.2952,-3.2636,-3.2013,-3.1725,-3.1533,-3.0396,-2.9575,-2.8932,-2.8334,-2.7713,-2.7195,-2.6944,-2.6768,-2.6603,-2.6603,-2.6592,-2.6561,-2.6313,-2.6188,-2.6157,-2.6021,-2.5675,-2.5171,-2.4705,-2.4006,-2.3086,-2.2621,-2.2252,-2.1883,-2.2025,-2.1987,-2.1832,-2.1952,-2.1742,-2.1229,-2.1303,-2.1156,-2.0898,-2.0984,-2.1048,-2.0991,-2.0811,-2.0593,-2.0371,-2.0115,-1.9703,-1.9204,-1.8942,-1.8674,-1.8337,-1.8303,-1.8236,-1.8042,-1.8042,-1.8042,-1.8042,-1.8042,-1.811,-1.8269,-1.8303,-1.8381,-1.8516,-1.8573,-1.8549,-1.865,-1.865,-1.865,-1.8583,-1.8852,-1.9208,-1.9736,-1.99,-1.9955,-2.0074,-2.0107,-2.0107,-2.0096,-2.0161,-2.0402,-2.0785,-2.1059,-2.1541,-2.2207,-2.2732,-2.3106,-2.3335,-2.3519,-2.3824,-2.4189,-2.4418,-2.467,-2.5016,-2.5241,-2.5453,-2.5828,-2.6154,-2.6383,-2.6383,-2.6258,-2.6213,-2.6166,-2.6084,-2.6015,-2.6015,-2.6188,-2.6361,-2.644,-2.6598,-2.6829,-2.6886,-2.6726,-2.6549,-2.622,-2.5739,-2.5365,-3.255,-3.2069,-3.1793,-3.1439,-3.097,-3.0514,-2.9746,-2.8853,-2.8411,-2.7778,-2.7023,-2.6614,-2.6396,-2.6354,-2.6354,-2.6271,-2.6146,-2.6021,-2.6021,-2.599,-2.5937,-2.5644,-2.5193,-2.4705,-2.4067,-2.3288,-2.2713,-2.2176,-2.1845,-2.1883,-2.1883,-2.1807,-2.1883,-2.179,-2.158,-2.1624,-2.1568,-2.1443,-2.147,-2.1507,-2.1486,-2.1422,-2.1193,-2.0818,-2.0069,-1.9449,-1.8918,-1.863,-1.8438,-1.8313,-1.8178,-1.8066,-1.8008,-1.8008,-1.8008,-1.8008,-1.8008,-1.8042,-1.811,-1.811,-1.8178,-1.8347,-1.8371,-1.8414,-1.8482,-1.8482,-1.8482,-1.8516,-1.8539,-1.8774,-1.8942,-1.9241,-1.9396,-1.9452,-1.9462,-1.9495,-1.9561,-1.9594,-1.9712,-2.008,-2.0554,-2.1242,-2.1757,-2.2327,-2.2692,-2.2889,-2.3113,-2.3372,-2.374,-2.408,-2.4381,-2.4694,-2.504,-2.5335,-2.5453,-2.5828,-2.6084,-2.6084,-2.605,-2.5992,-2.5945,-2.591,-2.584,-2.584,-2.5945,-2.6084,-2.6233,-2.6508,-2.6692,-2.6667,-2.6521,-2.5923,-2.5536,-2.5097,-2.4744,-3.2101,-3.1705,-3.1439,-3.1071,-3.0623,-3.0454,-2.9686,-2.864,-2.8366,-2.7736,-2.6851,-2.6365,-2.624,-2.6313,-2.624,-2.6188,-2.6146,-2.6104,-2.6146,-2.6104,-2.6021,-2.5856,-2.5464,-2.4975,-2.4375,-2.3608,-2.2728,-2.2149,-2.1835,-2.1807,-2.1807,-2.1807,-2.1807,-2.1807,-2.1807,-2.1807,-2.1807,-2.1807,-2.1807,-2.1797,-2.1807,-2.1807,-2.159,-2.1077,-2.0273,-1.9575,-1.8971,-1.8518,-1.8269,-1.8212,-1.8076,-1.8008,-1.8008,-1.8008,-1.8008,-1.8008,-1.8008,-1.8008,-1.8008,-1.8008,-1.8042,-1.8168,-1.8212,-1.8245,-1.8357,-1.8337,-1.8347,-1.8347,-1.8347,-1.8347,-1.8381,-1.8573,-1.8774,-1.8875,-1.8908,-1.8942,-1.9042,-1.9052,-1.9108,-1.9323,-1.9899,-2.0525,-2.1063,-2.1597,-2.2014,-2.2371,-2.259,-2.2889,-2.3335,-2.3629,-2.4007,-2.4345,-2.4683,-2.4933,-2.5076,-2.5324,-2.5652,-2.5687,-2.5688,-2.5688,-2.5665,-2.563,-2.563,-2.5665,-2.577,-2.591,-2.6119,-2.6418,-2.653,-2.6582,-2.5998,-2.5397,-2.4961,-2.4519,-2.4248,-3.1705,-3.1528,-3.0937,-3.0611,-3.0532,-3.0148,-2.9363,-2.8479,-2.8105,-2.7458,-2.6629,-2.6313,-2.6313,-2.6467,-2.6324,-2.6354,-2.652,-2.6603,-2.6561,-2.652,-2.6313,-2.6177,-2.6058,-2.545,-2.4807,-2.4068,-2.2783,-2.2077,-2.1908,-2.1866,-2.1807,-2.1807,-2.1807,-2.1807,-2.1807,-2.1807,-2.1807,-2.1807,-2.1807,-2.1807,-2.1807,-2.1807,-2.1611,-2.118,-2.0714,-2.0095,-1.9254,-1.864,-1.8241,-1.8042,-1.8008,-1.8008,-1.8008,-1.8008,-1.8008,-1.8008,-1.8008,-1.8008,-1.8008,-1.8008,-1.8008,-1.8042,-1.8008,-1.8042,-1.8076,-1.8076,-1.8076,-1.8086,-1.8042,-1.8042,-1.8042,-1.8076,-1.8212,-1.8448,-1.8506,-1.8516,-1.8549,-1.8506,-1.8516,-1.8654,-1.9116,-1.944,-1.9929,-2.0645,-2.125,-2.178,-2.2063,-2.2365,-2.283,-2.301,-2.3364,-2.3841,-2.4067,-2.4095,-2.4471,-2.479,-2.5063,-2.5275,-2.53,-2.53,-2.5194,-2.5159,-2.5206,-2.5242,-2.5442,-2.5618,-2.6015,-2.628,-2.6465,-2.6345,-2.5613,-2.5071,-2.4741,-2.4402,-2.3966,-3.1205,-3.0937,-3.0713,-3.0487,-3.0306,-3.0011,-2.9319,-2.8379,-2.7997,-2.7223,-2.6393,-2.6063,-2.6104,-2.6313,-2.6396,-2.6603,-2.6809,-2.6933,-2.685,-2.6644,-2.652,-2.6396,-2.6141,-2.565,-2.5004,-2.4173,-2.3384,-2.2815,-2.2482,-2.2154,-2.1921,-2.1807,-2.1807,-2.1807,-2.1807,-2.1807,-2.1807,-2.1807,-2.1807,-2.1807,-2.1807,-2.1807,-2.1735,-2.1542,-2.0937,-2.0296,-1.9676,-1.8943,-1.838,-1.8027,-1.8008,-1.8008,-1.8008,-1.8008,-1.8008,-1.8008,-1.8008,-1.8008,-1.8008,-1.8008,-1.8008,-1.8008,-1.8008,-1.8008,-1.8008,-1.8008,-1.8008,-1.8008,-1.8008,-1.8008,-1.8008,-1.8008,-1.8042,-1.8144,-1.8134,-1.8245,-1.8347,-1.8448,-1.8482,-1.8542,-1.8907,-1.9384,-1.9827,-2.038,-2.0869,-2.1486,-2.1759,-2.2025,-2.2274,-2.2449,-2.2546,-2.285,-2.2947,-2.3165,-2.3443,-2.3664,-2.384,-2.4284,-2.4543,-2.4649,-2.4625,-2.4694,-2.473,-2.4909,-2.5111,-2.5465,-2.5863,-2.6154,-2.6339,-2.6201,-2.5627,-2.5207,-2.4834,-2.4418,-2.3913,-3.0847,-3.0578,-3.0487,-3.034,-3.017,-2.9874,-2.9218,-2.8305,-2.7766,-2.7007,-2.6206,-2.599,-2.6063,-2.6313,-2.652,-2.6768,-2.6974,-2.7138,-2.7056,-2.6809,-2.6727,-2.6603,-2.637,-2.5761,-2.5165,-2.4483,-2.3939,-2.3431,-2.291,-2.2548,-2.2203,-2.1942,-2.1845,-2.1807,-2.1807,-2.1807,-2.1807,-2.1807,-2.1807,-2.1807,-2.1807,-2.1807,-2.1807,-2.169,-2.1161,-2.0528,-1.9907,-1.9229,-1.8578,-1.8135,-1.8008,-1.8008,-1.8008,-1.8008,-1.8008,-1.8008,-1.8008,-1.8008,-1.8008,-1.8008,-1.8008,-1.8008,-1.8008,-1.8008,-1.8008,-1.8008,-1.8008,-1.8008,-1.8008,-1.8008,-1.8008,-1.8008,-1.8008,-1.8008,-1.8008,-1.8076,-1.8168,-1.8279,-1.8313,-1.8373,-1.8561,-1.9023,-1.9561,-1.9969,-2.0561,-2.1214,-2.154,-2.1683,-2.1832,-2.1929,-2.1944,-2.2037,-2.2169,-2.2327,-2.2422,-2.2537,-2.2605,-2.3144,-2.3639,-2.3802,-2.3847,-2.4099,-2.4225,-2.4622,-2.4862,-2.5312,-2.5746,-2.605,-2.6245,-2.5911,-2.5699,-2.5305,-2.489,-2.428,-2.3849,-3.0578,-3.0532,-3.0295,-3.0216,-3.0125,-2.9726,-2.9071,-2.823,-2.7635,-2.6943,-2.6187,-2.6054,-2.6229,-2.6561,-2.6644,-2.6839,-2.7149,-2.719,-2.719,-2.7108,-2.7026,-2.6891,-2.67,-2.5973,-2.5406,-2.502,-2.4516,-2.3924,-2.336,-2.3094,-2.2654,-2.2248,-2.2074,-2.1828,-2.1856,-2.1807,-2.1807,-2.1807,-2.1807,-2.1807,-2.1807,-2.1807,-2.1807,-2.1769,-2.1385,-2.0742,-1.9978,-1.9318,-1.874,-1.8125,-1.8008,-1.8008,-1.8008,-1.8008,-1.8008,-1.8008,-1.8008,-1.8008,-1.8008,-1.8008,-1.8008,-1.8008,-1.8008,-1.8008,-1.8008,-1.8008,-1.8008,-1.8008,-1.8008,-1.8008,-1.8008,-1.8008,-1.8008,-1.8008,-1.8008,-1.8008,-1.8008,-1.8008,-1.8076,-1.8052,-1.8057,-1.835,-1.9262,-1.9565,-2.0188,-2.0916,-2.1349,-2.1442,-2.1401,-2.1429,-2.1424,-2.1406,-2.1337,-2.1347,-2.1396,-2.172,-2.1833,-2.2171,-2.2828,-2.3259,-2.3408,-2.3691,-2.397,-2.4334,-2.4694,-2.517,-2.5606,-2.591,-2.6236,-2.6267,-2.5912,-2.5435,-2.4946,-2.445,-2.4155,-3.0306,-3.0306,-3.0204,-3.0216,-3.017,-2.992,-2.9478,-2.8833,-2.812,-2.7477,-2.6952,-2.6552,-2.6584,-2.6798,-2.6809,-2.6974,-2.7149,-2.719,-2.719,-2.719,-2.7138,-2.7015,-2.6809,-2.6326,-2.5948,-2.5747,-2.5207,-2.4762,-2.4398,-2.3974,-2.346,-2.2829,-2.2615,-2.2331,-2.205,-2.1925,-2.1807,-2.1807,-2.1807,-2.1807,-2.1807,-2.1807,-2.1807,-2.1759,-2.1387,-2.078,-1.9877,-1.8873,-1.8281,-1.8057,-1.8008,-1.8008,-1.8008,-1.8008,-1.8008,-1.8008,-1.8008,-1.8008,-1.8008,-1.8008,-1.8008,-1.8008,-1.8008,-1.8008,-1.8008,-1.8008,-1.8008,-1.8008,-1.8008,-1.8008,-1.8008,-1.8008,-1.8008,-1.8008,-1.8008,-1.8008,-1.8008,-1.8008,-1.8008,-1.8027,-1.8291,-1.8711,-1.9252,-1.9681,-2.0167,-2.0843,-2.1175,-2.1194,-2.1055,-2.0948,-2.0959,-2.0456,-2.0288,-2.0298,-2.0421,-2.0782,-2.1091,-2.1336,-2.2037,-2.2953,-2.3218,-2.361,-2.3861,-2.4189,-2.449,-2.4909,-2.5394,-2.5828,-2.6107,-2.643,-2.6076,-2.5598,-2.5372,-2.5003,-2.4707,-3.0216,-3.0216,-3.0216,-3.0216,-3.017,-2.9966,-2.9647,-2.9148,-2.8599,-2.7928,-2.7357,-2.7052,-2.6877,-2.6903,-2.6891,-2.7026,-2.719,-2.719,-2.719,-2.719,-2.719,-2.7067,-2.685,-2.652,-2.6324,-2.6177,-2.5736,-2.5319,-2.4979,-2.4678,-2.414,-2.3606,-2.3245,-2.2961,-2.2702,-2.2286,-2.2097,-2.2066,-2.1932,-2.1807,-2.1807,-2.1807,-2.1807,-2.1731,-2.1367,-2.0735,-1.968,-1.8738,-1.8178,-1.8066,-1.8008,-1.8008,-1.8008,-1.8008,-1.8008,-1.8008,-1.8008,-1.8008,-1.8008,-1.8008,-1.8008,-1.8008,-1.8008,-1.8008,-1.8008,-1.8008,-1.8008,-1.8008,-1.8008,-1.8008,-1.8008,-1.8008,-1.8008,-1.8008,-1.8008,-1.8008,-1.8008,-1.8076,-1.8208,-1.8409,-1.868,-1.912,-1.972,-2.0056,-2.0506,-2.0988,-2.1282,-2.1049,-2.0745,-2.0632,-2.0369,-1.9905,-1.9857,-2.006,-2.0347,-2.0694,-2.1274,-2.1466,-2.1933,-2.2761,-2.3062,-2.3446,-2.3677,-2.3934,-2.4273,-2.467,-2.523,-2.5711,-2.6072,-2.6227,-2.5995,-2.5862,-2.5624,-2.5511,-2.5259,-3.0273,-3.0261,-3.0261,-3.0216,-3.017,-3.0011,-2.9738,-2.9318,-2.8992,-2.8374,-2.7665,-2.742,-2.7228,-2.6944,-2.6985,-2.7026,-2.719,-2.719,-2.719,-2.719,-2.719,-2.7097,-2.6903,-2.6644,-2.6479,-2.6271,-2.6021,-2.5655,-2.5352,-2.5109,-2.4786,-2.4269,-2.3841,-2.3598,-2.3307,-2.2847,-2.2563,-2.2387,-2.2118,-2.1901,-2.1838,-2.1807,-2.1807,-2.1721,-2.1303,-2.0554,-1.961,-1.8887,-1.8422,-1.8096,-1.8037,-1.8008,-1.8008,-1.8008,-1.8008,-1.8008,-1.8008,-1.8008,-1.8008,-1.8008,-1.8008,-1.8008,-1.8008,-1.8008,-1.8008,-1.8008,-1.8008,-1.8008,-1.8047,-1.8164,-1.8262,-1.8193,-1.8242,-1.8291,-1.8223,-1.8198,-1.8203,-1.831,-1.8566,-1.8999,-1.9184,-1.9787,-2.0296,-2.0679,-2.0858,-2.1104,-2.1298,-2.1046,-2.0687,-2.0452,-2.0045,-1.9481,-1.9664,-2.0023,-2.0371,-2.0719,-2.1396,-2.1905,-2.232,-2.2855,-2.2966,-2.3261,-2.3409,-2.3677,-2.4164,-2.4622,-2.5147,-2.5571,-2.6002,-2.6233,-2.6208,-2.6063,-2.5908,-2.5862,-2.5711,-3.0724,-3.0532,-3.0521,-3.0397,-3.0216,-3.017,-3.0068,-2.993,-2.9508,-2.8982,-2.8422,-2.8022,-2.7565,-2.7138,-2.7149,-2.7138,-2.7231,-2.719,-2.719,-2.719,-2.719,-2.7067,-2.6903,-2.6685,-2.655,-2.6396,-2.6063,-2.583,-2.5732,-2.5603,-2.545,-2.4954,-2.4491,-2.4098,-2.372,-2.3304,-2.2832,-2.2563,-2.2377,-2.2128,-2.1849,-2.1807,-2.1769,-2.17,-2.1141,-2.0492,-1.9762,-1.9007,-1.8578,-1.8412,-1.8232,-1.8105,-1.8027,-1.8008,-1.8008,-1.8008,-1.8008,-1.8008,-1.8008,-1.8008,-1.8008,-1.8008,-1.8008,-1.8008,-1.8008,-1.8008,-1.8008,-1.8076,-1.8266,-1.8574,-1.8848,-1.8975,-1.8961,-1.8932,-1.9059,-1.9185,-1.9221,-1.9018,-1.9034,-1.9284,-1.9873,-2.0387,-2.0636,-2.1007,-2.1169,-2.13,-2.1214,-2.1053,-2.0698,-2.0365,-1.9872,-1.932,-1.9674,-2.0108,-2.0411,-2.0864,-2.1662,-2.2177,-2.2594,-2.2953,-2.3075,-2.3224,-2.3409,-2.3751,-2.4116,-2.4611,-2.5099,-2.5535,-2.598,-2.6188,-2.6374,-2.6246,-2.6142,-2.6154,-2.6197,-3.0927,-3.0781,-3.0781,-3.0679,-3.0589,-3.0589,-3.0544,-3.0508,-3.001,-2.9544,-2.9021,-2.8521,-2.798,-2.7528,-2.7383,-2.733,-2.7342,-2.7219,-2.719,-2.719,-2.7108,-2.6974,-2.6862,-2.6614,-2.6396,-2.6354,-2.6074,-2.5906,-2.5895,-2.5884,-2.5712,-2.537,-2.4984,-2.4691,-2.428,-2.3773,-2.3307,-2.2863,-2.2584,-2.2263,-2.188,-2.1807,-2.1731,-2.1645,-2.1229,-2.0735,-2.0051,-1.9669,-1.9242,-1.8945,-1.8721,-1.8398,-1.8032,-1.8008,-1.8008,-1.8008,-1.8008,-1.8008,-1.8008,-1.8008,-1.8008,-1.8008,-1.8008,-1.8008,-1.8008,-1.8008,-1.8125,-1.8247,-1.849,-1.8773,-1.9219,-1.9268,-1.9323,-1.9423,-1.9542,-1.9687,-1.9909,-1.9834,-1.9839,-2.015,-2.0751,-2.1166,-2.1455,-2.1569,-2.1642,-2.1797,-2.1711,-2.1487,-2.0648,-2.0302,-1.9848,-1.9575,-1.9896,-2.0211,-2.0459,-2.1066,-2.1951,-2.236,-2.268,-2.2953,-2.3187,-2.3335,-2.353,-2.3861,-2.42,-2.4647,-2.5099,-2.5512,-2.584,-2.598,-2.6154,-2.6245,-2.6255,-2.618,-2.6271,-3.1163,-3.1118,-3.1107,-3.1074,-3.1029,-3.0984,-3.0913,-3.0817,-3.044,-2.9863,-2.9353,-2.8828,-2.8351,-2.7963,-2.7655,-2.7563,-2.7441,-2.7301,-2.719,-2.719,-2.7015,-2.6891,-2.6768,-2.6437,-2.6199,-2.6157,-2.599,-2.5895,-2.5906,-2.5864,-2.5706,-2.5527,-2.5263,-2.4957,-2.4714,-2.4283,-2.3681,-2.3153,-2.2822,-2.2346,-2.1901,-2.1769,-2.1703,-2.153,-2.1471,-2.1108,-2.0524,-2.022,-2.0004,-1.9524,-1.9436,-1.9003,-1.8487,-1.8115,-1.8047,-1.8037,-1.8008,-1.8008,-1.8008,-1.8008,-1.8008,-1.8008,-1.8008,-1.8008,-1.8008,-1.8115,-1.8266,-1.852,-1.8773,-1.9141,-1.9414,-1.9674,-1.9718,-1.9836,-1.9879,-2.0204,-2.0612,-2.0792,-2.1099,-2.1178,-2.1618,-2.1993,-2.22,-2.2306,-2.2279,-2.2252,-2.2155,-2.178,-2.0923,-2.0281,-1.9924,-1.9748,-2.0017,-2.0607,-2.0928,-2.1225,-2.212,-2.2451,-2.2729,-2.3027,-2.3298,-2.3593,-2.3787,-2.397,-2.4298,-2.4754,-2.5111,-2.543,-2.5688,-2.5793,-2.5945,-2.6084,-2.6154,-2.6166,-2.6305,-3.195,-3.1584,-3.1584,-3.1362,-3.1029,-3.1029,-3.0847,-3.06,-3.049,-3.0005,-2.9266,-2.8987,-2.859,-2.8205,-2.7921,-2.7708,-2.7522,-2.7342,-2.7231,-2.7149,-2.6974,-2.6809,-2.6644,-2.6313,-2.6115,-2.599,-2.5895,-2.5895,-2.5853,-2.5728,-2.5654,-2.5517,-2.5168,-2.4946,-2.4807,-2.4533,-2.3981,-2.337,-2.307,-2.2625,-2.2056,-2.179,-2.1731,-2.154,-2.154,-2.1326,-2.1052,-2.0705,-2.0484,-2.0346,-1.9985,-1.9755,-1.9433,-1.8917,-1.8472,-1.8135,-1.8018,-1.8008,-1.8008,-1.8008,-1.8008,-1.8008,-1.8008,-1.8027,-1.8105,-1.8286,-1.851,-1.8812,-1.9336,-1.9853,-2.0331,-2.0387,-2.06,-2.0763,-2.1035,-2.1439,-2.1786,-2.2125,-2.2254,-2.2142,-2.2505,-2.2774,-2.2861,-2.2879,-2.2777,-2.259,-2.2429,-2.1845,-2.0936,-2.0454,-2.0151,-2.0079,-2.012,-2.0824,-2.1476,-2.1753,-2.2193,-2.2446,-2.2729,-2.3113,-2.3409,-2.3861,-2.4127,-2.4298,-2.4526,-2.4849,-2.5159,-2.5394,-2.5535,-2.5653,-2.5793,-2.5945,-2.6015,-2.605,-2.627,-3.2269,-3.2069,-3.1925,-3.1817,-3.1681,-3.1253,-3.1088,-3.0924,-3.0417,-2.998,-2.9561,-2.9165,-2.8871,-2.8626,-2.8351,-2.7978,-2.7563,-2.74,-2.7301,-2.7179,-2.6891,-2.6727,-2.6561,-2.6229,-2.6021,-2.5937,-2.5895,-2.5895,-2.5895,-2.5686,-2.5517,-2.5338,-2.5031,-2.4828,-2.47,-2.4551,-2.4167,-2.3619,-2.3287,-2.2873,-2.219,-2.1952,-2.1731,-2.1693,-2.1617,-2.154,-2.1346,-2.1207,-2.1017,-2.0891,-2.0682,-2.0488,-2.0183,-1.974,-1.9147,-1.8606,-1.8223,-1.8018,-1.8008,-1.8008,-1.8008,-1.8008,-1.8018,-1.8135,-1.8266,-1.851,-1.8812,-1.9326,-1.9775,-2.0409,-2.0682,-2.0858,-2.1022,-2.1349,-2.1731,-2.2111,-2.2553,-2.3113,-2.3169,-2.3042,-2.3282,-2.3452,-2.3449,-2.3372,-2.3224,-2.3001,-2.274,-2.1959,-2.1066,-2.068,-2.044,-2.0327,-2.0389,-2.1021,-2.1669,-2.2,-2.2214,-2.244,-2.2815,-2.3187,-2.3556,-2.397,-2.4406,-2.4694,-2.4873,-2.5028,-2.5159,-2.5382,-2.543,-2.5465,-2.5535,-2.5653,-2.5793,-2.598,-2.6119,-3.2413,-3.2271,-3.2085,-3.2024,-3.1951,-3.14,-3.1107,-3.106,-3.0335,-2.9945,-2.9801,-2.9404,-2.9155,-2.9052,-2.8657,-2.8231,-2.7684,-2.7644,-2.7452,-2.726,-2.6962,-2.6727,-2.6561,-2.6229,-2.5979,-2.6032,-2.5906,-2.5895,-2.5853,-2.5686,-2.5464,-2.5242,-2.4988,-2.4786,-2.4583,-2.4497,-2.426,-2.3898,-2.3536,-2.308,-2.2532,-2.2066,-2.1807,-2.1807,-2.1807,-2.1693,-2.1568,-2.1499,-2.1451,-2.1346,-2.1268,-2.1176,-2.0845,-2.0534,-2.0042,-1.9332,-1.8577,-1.8228,-1.8135,-1.8018,-1.8008,-1.8008,-1.8071,-1.8286,-1.8584,-1.8867,-1.9284,-2.0007,-2.0466,-2.0769,-2.0925,-2.1022,-2.1282,-2.1655,-2.2035,-2.244,-2.3027,-2.3556,-2.3995,-2.4036,-2.4141,-2.4105,-2.4068,-2.3934,-2.3787,-2.3482,-2.3213,-2.2527,-2.1661,-2.1117,-2.0818,-2.0601,-2.0731,-2.1269,-2.1776,-2.2096,-2.2289,-2.2402,-2.2927,-2.3457,-2.3787,-2.4127,-2.455,-2.4909,-2.5076,-2.5147,-2.5241,-2.5312,-2.5347,-2.5347,-2.5312,-2.543,-2.5653,-2.5793,-2.5898,-3.2621,-3.196,-3.1918,-3.1561,-3.0999,-3.0805,-3.0598,-3.0394,-3.0208,-3.0057,-2.9799,-2.9532,-2.9341,-2.9236,-2.8776,-2.8471,-2.8271,-2.799,-2.7748,-2.7452,-2.7196,-2.7003,-2.6809,-2.6407,-2.6229,-2.6199,-2.6032,-2.5906,-2.5895,-2.5738,-2.5475,-2.5242,-2.5031,-2.4775,-2.4572,-2.4497,-2.4312,-2.4002,-2.3815,-2.336,-2.2584,-2.2066,-2.189,-2.1807,-2.1807,-2.1769,-2.1731,-2.1731,-2.1693,-2.1693,-2.1693,-2.17,-2.1587,-2.1107,-2.0758,-2.0142,-1.9363,-1.8529,-1.8525,-1.8399,-1.8233,-1.8311,-1.8423,-1.852,-1.8958,-1.9577,-2.0175,-2.0699,-2.0964,-2.1079,-2.1167,-2.132,-2.155,-2.1921,-2.2365,-2.2889,-2.3446,-2.3886,-2.437,-2.4647,-2.4647,-2.4658,-2.4658,-2.449,-2.4357,-2.4007,-2.3599,-2.2911,-2.2201,-2.1598,-2.1177,-2.0959,-2.1037,-2.1518,-2.1834,-2.2155,-2.2402,-2.2478,-2.3001,-2.3641,-2.4007,-2.4334,-2.4694,-2.5016,-2.5182,-2.5253,-2.5276,-2.5312,-2.5312,-2.5312,-2.5312,-2.5394,-2.5571,-2.5653,-2.5758,-3.1935,-3.1585,-3.1485,-3.1307,-3.1046,-3.0626,-3.0434,-3.0358,-3.0086,-2.9927,-2.979,-2.9702,-2.9548,-2.9353,-2.9079,-2.8816,-2.8538,-2.8311,-2.8042,-2.7696,-2.74,-2.7196,-2.6992,-2.6633,-2.6437,-2.6437,-2.6354,-2.6313,-2.6188,-2.5853,-2.5517,-2.5422,-2.5126,-2.4861,-2.47,-2.4583,-2.4436,-2.4229,-2.3971,-2.3442,-2.2697,-2.2294,-2.2066,-2.1818,-2.1818,-2.1807,-2.1807,-2.1807,-2.1807,-2.1807,-2.1807,-2.1807,-2.1738,-2.1442,-2.1178,-2.1062,-2.0266,-1.9624,-1.9239,-1.9102,-1.9018,-1.9073,-1.9262,-1.9471,-1.979,-2.0305,-2.0829,-2.1021,-2.1128,-2.1244,-2.1397,-2.155,-2.1911,-2.2289,-2.2703,-2.3261,-2.3824,-2.4273,-2.467,-2.4945,-2.5147,-2.5087,-2.5016,-2.4909,-2.4658,-2.4381,-2.395,-2.336,-2.2575,-2.1778,-2.1433,-2.1261,-2.1443,-2.1773,-2.1993,-2.2252,-2.2553,-2.274,-2.3113,-2.3714,-2.4189,-2.455,-2.4838,-2.5076,-2.5218,-2.5276,-2.5312,-2.5312,-2.5312,-2.5312,-2.5312,-2.5394,-2.5465,-2.5571,-2.5676,-3.0997,-3.1009,-3.0998,-3.0973,-3.0959,-3.0373,-3.0211,-3.0305,-2.998,-2.9792,-2.9779,-2.9792,-2.9663,-2.9521,-2.9392,-2.9106,-2.8724,-2.8618,-2.8351,-2.799,-2.7696,-2.7482,-2.7319,-2.7044,-2.6839,-2.6798,-2.6787,-2.6715,-2.652,-2.6229,-2.5937,-2.5686,-2.5433,-2.5115,-2.4946,-2.4828,-2.4659,-2.4542,-2.42,-2.3628,-2.3027,-2.2604,-2.2315,-2.2066,-2.189,-2.1807,-2.1807,-2.1807,-2.1807,-2.1807,-2.1807,-2.1807,-2.1759,-2.1652,-2.1479,-2.139,-2.0988,-2.0727,-2.0293,-2.0024,-1.997,-1.9995,-2.022,-2.0392,-2.0829,-2.1245,-2.1397,-2.1397,-2.1474,-2.154,-2.1655,-2.1807,-2.2138,-2.2628,-2.3113,-2.3677,-2.4164,-2.4562,-2.4849,-2.5076,-2.5253,-2.5253,-2.5218,-2.517,-2.4969,-2.4694,-2.4289,-2.3765,-2.3006,-2.2106,-2.1844,-2.1676,-2.1796,-2.2025,-2.2101,-2.2327,-2.2628,-2.2964,-2.3372,-2.3787,-2.4298,-2.4622,-2.4873,-2.5076,-2.5276,-2.5312,-2.5312,-2.5312,-2.5312,-2.5312,-2.5312,-2.5312,-2.5347,-2.5453,-2.556,-2.9905,-2.9942,-3.0417,-3.0394,-2.9967,-2.9867,-2.9854,-2.9917,-2.9829,-2.9779,-2.9779,-2.9792,-2.9792,-2.9714,-2.9521,-2.938,-2.9263,-2.8949,-2.8645,-2.8419,-2.8219,-2.7978,-2.7736,-2.7522,-2.7389,-2.736,-2.7237,-2.7074,-2.6921,-2.6891,-2.6437,-2.5937,-2.5843,-2.5549,-2.5285,-2.5115,-2.4946,-2.4787,-2.4483,-2.4169,-2.3576,-2.3099,-2.254,-2.2346,-2.2045,-2.1807,-2.1807,-2.1807,-2.1807,-2.1807,-2.1807,-2.1845,-2.1845,-2.1807,-2.1731,-2.169,-2.1773,-2.1607,-2.1329,-2.0712,-2.0185,-2.0324,-2.0725,-2.1238,-2.1563,-2.1876,-2.1959,-2.1807,-2.1883,-2.1959,-2.2035,-2.2149,-2.2478,-2.2889,-2.3372,-2.3897,-2.437,-2.4754,-2.504,-2.5241,-2.5312,-2.5312,-2.5312,-2.5241,-2.517,-2.4909,-2.4454,-2.394,-2.3393,-2.2635,-2.2355,-2.2211,-2.2221,-2.2252,-2.2187,-2.2451,-2.2815,-2.315,-2.3519,-2.397,-2.4418,-2.4706,-2.4981,-2.5111,-2.5312,-2.5312,-2.5312,-2.5312,-2.5312,-2.5312,-2.5312,-2.5312,-2.5312,-2.5347,-2.5443,-2.9779,-2.9804,-3.003,-2.9993,-2.9779,-2.9779,-2.9779,-2.9779,-2.9779,-2.9779,-2.9779,-2.9779,-2.9779,-2.974,-2.9702,-2.9548,-2.938,-2.9118,-2.8882,-2.8605,-2.8367,-2.8179,-2.8018,-2.7909,-2.7736,-2.7736,-2.7655,-2.7615,-2.7545,-2.7464,-2.729,-2.6869,-2.6415,-2.5968,-2.5664,-2.5411,-2.52,-2.5126,-2.4883,-2.4671,-2.4145,-2.3582,-2.2979,-2.2655,-2.2094,-2.1838,-2.1807,-2.1807,-2.1807,-2.1807,-2.1807,-2.1883,-2.1949,-2.1959,-2.1997,-2.2035,-2.2214,-2.2262,-2.2214,-2.1669,-2.1502,-2.1539,-2.1829,-2.2024,-2.2214,-2.2289,-2.2252,-2.2214,-2.2252,-2.2327,-2.2289,-2.2515,-2.2852,-2.3224,-2.3629,-2.4116,-2.455,-2.4933,-2.5147,-2.5276,-2.5312,-2.5312,-2.5312,-2.5276,-2.5206,-2.504,-2.4586,-2.4127,-2.353,-2.3075,-2.274,-2.2526,-2.2478,-2.2515,-2.244,-2.2703,-2.3001,-2.3372,-2.3714,-2.4116,-2.4562,-2.4838,-2.5076,-2.5206,-2.5312,-2.5312,-2.5312,-2.5312,-2.5312,-2.5312,-2.5312,-2.5312,-2.5312,-2.5384,-2.5576,-2.9779,-2.9779,-2.9779,-2.9779,-2.9779,-2.9779,-2.9779,-2.9779,-2.9779,-2.9779,-2.9779,-2.9779,-2.9779,-2.9779,-2.9779,-2.9689,-2.9521,-2.9326,-2.9118,-2.8922,-2.8685,-2.8486,-2.8419,-2.8339,-2.8299,-2.8231,-2.8151,-2.8151,-2.803,-2.799,-2.7777,-2.7441,-2.7033,-2.6633,-2.6177,-2.5843,-2.5538,-2.5464,-2.5379,-2.5167,-2.4668,-2.4131,-2.3526,-2.3056,-2.246,-2.2039,-2.1869,-2.1807,-2.1807,-2.1807,-2.1873,-2.1949,-2.2063,-2.2176,-2.2289,-2.2429,-2.2542,-2.259,-2.2628,-2.2505,-2.2505,-2.2435,-2.2579,-2.267,-2.274,-2.274,-2.2815,-2.2692,-2.2703,-2.2665,-2.2665,-2.2927,-2.3261,-2.3604,-2.397,-2.4418,-2.473,-2.5076,-2.5182,-2.5312,-2.5312,-2.5324,-2.5312,-2.5276,-2.5147,-2.5004,-2.4658,-2.42,-2.3677,-2.3224,-2.2964,-2.2777,-2.2665,-2.2703,-2.2767,-2.2953,-2.3224,-2.3677,-2.4007,-2.4334,-2.4694,-2.4992,-2.5159,-2.5241,-2.5312,-2.5312,-2.5288,-2.5277,-2.53,-2.5312,-2.5373,-2.5553,-2.5745,-2.5877,-2.6105,-2.9779,-2.9779,-2.9779,-2.9779,-2.9779,-2.9779,-2.9779,-2.9779,-2.9779,-2.9779,-2.9779,-2.9779,-2.9779,-2.9779,-2.9779,-2.974,-2.9689,-2.9482,-2.9341,-2.9223,-2.904,-2.9,-2.9013,-2.8946,-2.8816,-2.8973,-2.8764,-2.8538,-2.8459,-2.8271,-2.807,-2.795,-2.7708,-2.7383,-2.6891,-2.6633,-2.6354,-2.599,-2.5895,-2.5631,-2.5229,-2.4708,-2.4128,-2.3657,-2.3074,-2.2569,-2.2102,-2.1991,-2.1959,-2.1883,-2.1987,-2.2101,-2.2176,-2.2354,-2.2505,-2.2692,-2.2879,-2.3075,-2.3224,-2.2889,-2.2852,-2.2964,-2.3038,-2.3224,-2.3446,-2.3482,-2.3372,-2.3139,-2.3187,-2.3224,-2.3261,-2.3346,-2.3677,-2.4121,-2.4472,-2.4831,-2.5217,-2.5517,-2.5697,-2.5612,-2.5432,-2.5336,-2.5324,-2.5241,-2.5076,-2.4909,-2.4622,-2.4225,-2.3751,-2.3446,-2.315,-2.2927,-2.2777,-2.2889,-2.2953,-2.3139,-2.3446,-2.3934,-2.4309,-2.4598,-2.4908,-2.5183,-2.529,-2.5336,-2.5553,-2.5805,-2.5553,-2.5254,-2.5433,-2.5636,-2.5756,-2.59,-2.6141,-2.6321,-2.6488,-2.9779,-2.9779,-2.9779,-2.9779,-2.9779,-2.9779,-2.9779,-2.9779,-2.9779,-2.9779,-2.9779,-2.9779,-2.9779,-2.9779,-2.9779,-2.9779,-2.974,-2.9509,-2.938,-2.938,-2.9236,-2.9131,-2.9143,-2.9182,-2.9143,-2.9052,-2.8882,-2.8803,-2.8673,-2.8459,-2.8391,-2.8311,-2.8111,-2.7817,-2.733,-2.7003,-2.6685,-2.6573,-2.6437,-2.6166,-2.583,-2.5272,-2.4772,-2.4375,-2.3785,-2.3142,-2.2527,-2.2446,-2.229,-2.207,-2.2191,-2.2252,-2.244,-2.2665,-2.2889,-2.3075,-2.3298,-2.342,-2.3482,-2.3335,-2.3261,-2.3309,-2.3383,-2.353,-2.3593,-2.3593,-2.3556,-2.3578,-2.3649,-2.3686,-2.3677,-2.3847,-2.4219,-2.4807,-2.5253,-2.5649,-2.6015,-2.627,-2.6417,-2.6093,-2.5841,-2.5528,-2.5396,-2.5324,-2.5182,-2.5063,-2.4847,-2.4307,-2.3787,-2.3604,-2.3372,-2.3075,-2.2927,-2.3038,-2.3176,-2.3409,-2.3703,-2.4127,-2.449,-2.4778,-2.5075,-2.5469,-2.5685,-2.5877,-2.6105,-2.6345,-2.6018,-2.5776,-2.5904,-2.6058,-2.6046,-2.6205,-2.6447,-2.6627,-2.6759,-2.965,-2.965,-2.9753,-2.9779,-2.9779,-2.9779,-2.9779,-2.9779,-2.9779,-2.9779,-2.9779,-2.9779,-2.9779,-2.9779,-2.9779,-2.9779,-2.9753,-2.9611,-2.9509,-2.9509,-2.9417,-2.939,-2.9378,-2.9326,-2.9417,-2.9248,-2.904,-2.8882,-2.887,-2.8618,-2.851,-2.8431,-2.8339,-2.8139,-2.7817,-2.7505,-2.7219,-2.7085,-2.6869,-2.6674,-2.6348,-2.589,-2.536,-2.4968,-2.4452,-2.3857,-2.3327,-2.2984,-2.2794,-2.2509,-2.2406,-2.2461,-2.274,-2.3001,-2.3261,-2.353,-2.3861,-2.3934,-2.3861,-2.3897,-2.3892,-2.3996,-2.3838,-2.3799,-2.3861,-2.397,-2.4007,-2.4041,-2.4166,-2.4368,-2.4512,-2.4696,-2.5119,-2.5728,-2.5958,-2.6395,-2.6603,-2.6849,-2.6825,-2.6502,-2.6129,-2.5805,-2.5516,-2.5397,-2.5289,-2.5206,-2.5072,-2.453,-2.3951,-2.3782,-2.3612,-2.3309,-2.3183,-2.3305,-2.3505,-2.3703,-2.4007,-2.4357,-2.4751,-2.5181,-2.5552,-2.5996,-2.6189,-2.6382,-2.6549,-2.6605,-2.6439,-2.6335,-2.623,-2.6212,-2.6158,-2.6382,-2.6718,-2.6949,-2.7142,-2.938,-2.9419,-2.9663,-2.9792,-2.9779,-2.9779,-2.9779,-2.9779,-2.9779,-2.9779,-2.9779,-2.9779,-2.9779,-2.9779,-2.9779,-2.9779,-2.9779,-2.9753,-2.974,-2.974,-2.9663,-2.9714,-2.9714,-2.9702,-2.9663,-2.9546,-2.9339,-2.9013,-2.904,-2.8697,-2.851,-2.851,-2.8471,-2.8391,-2.8231,-2.803,-2.7748,-2.7522,-2.7319,-2.7126,-2.6782,-2.6464,-2.5972,-2.5557,-2.5104,-2.4578,-2.4052,-2.358,-2.3264,-2.3026,-2.2901,-2.2896,-2.3012,-2.3224,-2.3666,-2.4116,-2.4526,-2.4522,-2.4447,-2.4507,-2.4749,-2.4866,-2.4502,-2.4361,-2.4482,-2.473,-2.4825,-2.5028,-2.5253,-2.547,-2.5651,-2.5971,-2.6281,-2.6536,-2.6671,-2.6892,-2.704,-2.7114,-2.7078,-2.6813,-2.6454,-2.6117,-2.5793,-2.5649,-2.5709,-2.5718,-2.5616,-2.5289,-2.4705,-2.4062,-2.3868,-2.3601,-2.3501,-2.3609,-2.3864,-2.4269,-2.4724,-2.517,-2.5448,-2.5847,-2.6199,-2.6501,-2.6779,-2.6922,-2.6932,-2.695,-2.6931,-2.6695,-2.6391,-2.6343,-2.6482,-2.6697,-2.7038,-2.7324,-2.754,-2.9275,-2.9419,-2.947,-2.9611,-2.9792,-2.9779,-2.9779,-2.9779,-2.9779,-2.9779,-2.9779,-2.9779,-2.9779,-2.9779,-2.9779,-2.9779,-2.9779,-2.9779,-2.9779,-2.9779,-2.9779,-2.9779,-2.9779,-2.9779,-2.9779,-2.9624,-2.939,-2.9104,-2.9013,-2.8709,-2.851,-2.851,-2.851,-2.851,-2.8471,-2.8391,-2.8179,-2.7978,-2.7736,-2.7493,-2.7237,-2.6951,-2.6558,-2.6192,-2.5901,-2.539,-2.4868,-2.4489,-2.4126,-2.3472,-2.3454,-2.3427,-2.3187,-2.3666,-2.4164,-2.4584,-2.5035,-2.5317,-2.529,-2.5548,-2.5831,-2.5899,-2.5669,-2.5718,-2.5747,-2.58,-2.5863,-2.6037,-2.628,-2.646,-2.668,-2.6983,-2.7272,-2.7454,-2.7565,-2.7649,-2.7772,-2.783,-2.7758,-2.7322,-2.6925,-2.6561,-2.6261,-2.6249,-2.6331,-2.6338,-2.6235,-2.5953,-2.5466,-2.4826,-2.4434,-2.4175,-2.4123,-2.4284,-2.4641,-2.5064,-2.5527,-2.5979,-2.6249,-2.6482,-2.6726,-2.7006,-2.7356,-2.7459,-2.7427,-2.7486,-2.7573,-2.7224,-2.6719,-2.6835,-2.6973,-2.7129,-2.7308,-2.7504,-2.7667,-2.9157,-2.9314,-2.9482,-2.965,-2.9779,-2.9779,-2.9779,-2.9779,-2.9779,-2.9779,-2.9779,-2.9779,-2.9779,-2.9779,-2.9779,-2.9779,-2.9779,-2.9779,-2.9779,-2.9779,-2.9779,-2.9779,-2.9779,-2.9779,-2.9779,-2.9624,-2.939,-2.9104,-2.8973,-2.8736,-2.851,-2.851,-2.851,-2.851,-2.8471,-2.8471,-2.8431,-2.8259,-2.8099,-2.7857,-2.7644,-2.7377,-2.7103,-2.6869,-2.6592,-2.6195,-2.5787,-2.5502,-2.4905,-2.434,-2.4398,-2.416,-2.4071,-2.4524,-2.5162,-2.5621,-2.6017,-2.6196,-2.6181,-2.6322,-2.6607,-2.6809,-2.6868,-2.7102,-2.6995,-2.6914,-2.6873,-2.6866,-2.7144,-2.7438,-2.7636,-2.791,-2.814,-2.8397,-2.8456,-2.8502,-2.8609,-2.8664,-2.8346,-2.7857,-2.7493,-2.7152,-2.697,-2.6958,-2.6956,-2.7012,-2.6969,-2.6818,-2.6288,-2.5654,-2.537,-2.5209,-2.5055,-2.507,-2.547,-2.5826,-2.6174,-2.6543,-2.6862,-2.7059,-2.7294,-2.7534,-2.7819,-2.7905,-2.785,-2.782,-2.7671,-2.7406,-2.7093,-2.719,-2.719,-2.7203,-2.7238,-2.7336,-2.7476,-2.8969,-2.9096,-2.956,-2.9792,-2.9818,-2.9818,-2.9869,-2.983,-2.9856,-2.983,-2.983,-2.9779,-2.9779,-2.9779,-2.9779,-2.9779,-2.9779,-2.9779,-2.9779,-2.9779,-2.9779,-2.9779,-2.9779,-2.9779,-2.974,-2.9585,-2.9339,-2.9064,-2.8946,-2.8709,-2.851,-2.851,-2.851,-2.851,-2.851,-2.851,-2.8471,-2.8431,-2.8311,-2.8139,-2.8007,-2.7765,-2.7429,-2.7237,-2.7044,-2.6794,-2.658,-2.6273,-2.5907,-2.5705,-2.5504,-2.5163,-2.5315,-2.5515,-2.6195,-2.6683,-2.7026,-2.7097,-2.7132,-2.7251,-2.7454,-2.7647,-2.783,-2.8154,-2.812,-2.7873,-2.772,-2.7861,-2.8131,-2.833,-2.8531,-2.8693,-2.8915,-2.8924,-2.8922,-2.8893,-2.8888,-2.8922,-2.8736,-2.8329,-2.8091,-2.776,-2.7613,-2.7601,-2.757,-2.7651,-2.766,-2.7544,-2.7194,-2.6539,-2.6182,-2.6083,-2.5989,-2.597,-2.6255,-2.6591,-2.678,-2.7064,-2.7406,-2.7639,-2.7786,-2.8074,-2.8331,-2.8171,-2.7936,-2.773,-2.7563,-2.7342,-2.719,-2.719,-2.719,-2.719,-2.7231,-2.7219,-2.7272,-2.8211,-2.8771,-2.9488,-2.9895,-2.9998,-3.0049,-3.0101,-3.0254,-3.0254,-3.0075,-2.9818,-2.9779,-2.9779,-2.9779,-2.9779,-2.9779,-2.9779,-2.9779,-2.9779,-2.9779,-2.9779,-2.9779,-2.9779,-2.9779,-2.9702,-2.9482,-2.9209,-2.8946,-2.8709,-2.855,-2.851,-2.851,-2.851,-2.851,-2.851,-2.851,-2.851,-2.851,-2.8471,-2.8339,-2.8179,-2.8127,-2.7926,-2.7696,-2.7505,-2.7371,-2.718,-2.7023,-2.664,-2.6377,-2.6432,-2.6391,-2.6443,-2.6569,-2.6867,-2.7335,-2.7801,-2.791,-2.8032,-2.8165,-2.8433,-2.8568,-2.8741,-2.8983,-2.901,-2.8733,-2.8686,-2.8841,-2.9032,-2.9196,-2.9322,-2.9447,-2.9534,-2.9443,-2.9314,-2.9236,-2.917,-2.9094,-2.9018,-2.8839,-2.8636,-2.846,-2.8249,-2.8195,-2.8237,-2.8218,-2.8266,-2.8227,-2.8088,-2.7613,-2.6944,-2.6818,-2.6811,-2.6882,-2.7147,-2.7308,-2.7484,-2.7705,-2.8011,-2.8182,-2.8282,-2.8271,-2.8299,-2.8127,-2.7914,-2.7696,-2.7493,-2.7342,-2.7231,-2.719,-2.719,-2.719,-2.719,-2.7231,-2.719,-2.8014,-2.8437,-2.895,-2.9416,-2.9795,-2.9859,-3.0049,-3.0343,-3.0406,-3.0292,-3.0088,-2.9972,-2.9908,-2.9818,-2.9779,-2.9792,-2.9792,-2.9779,-2.9779,-2.9779,-2.9779,-2.9779,-2.9779,-2.9779,-2.974,-2.9521,-2.9209,-2.8895,-2.855,-2.851,-2.851,-2.851,-2.851,-2.851,-2.851,-2.851,-2.851,-2.851,-2.851,-2.8431,-2.8339,-2.8299,-2.8219,-2.803,-2.7898,-2.7765,-2.7655,-2.7574,-2.7383,-2.716,-2.7156,-2.738,-2.7486,-2.7557,-2.7823,-2.8271,-2.8619,-2.8779,-2.8866,-2.9014,-2.9236,-2.9236,-2.9236,-2.9316,-2.9509,-2.9294,-2.9243,-2.941,-2.9449,-2.9563,-2.9601,-2.9689,-2.9714,-2.9624,-2.9573,-2.9534,-2.9456,-2.9353,-2.9289,-2.9174,-2.8981,-2.8863,-2.8687,-2.8557,-2.8576,-2.8497,-2.8593,-2.8498,-2.8459,-2.8419,-2.7842,-2.7486,-2.7443,-2.7628,-2.7893,-2.8028,-2.8151,-2.8398,-2.851,-2.8462,-2.8362,-2.8251,-2.8179,-2.7978,-2.7777,-2.7563,-2.7371,-2.726,-2.7231,-2.719,-2.719,-2.719,-2.719,-2.7236,-2.7339,-2.7981,-2.8105,-2.8328,-2.8839,-2.9431,-2.9547,-2.9917,-3.0391,-3.052,-3.0558,-3.0508,-3.0368,-3.0113,-2.9934,-2.9818,-2.983,-2.983,-2.9792,-2.9792,-2.9779,-2.9779,-2.9779,-2.9779,-2.9779,-2.9702,-2.9495,-2.9182,-2.8867,-2.851,-2.851,-2.851,-2.851,-2.851,-2.851,-2.851,-2.851,-2.851,-2.851,-2.851,-2.851,-2.851,-2.851,-2.8391,-2.8299,-2.8207,-2.8151,-2.803,-2.7962,-2.795,-2.8008,-2.7956,-2.8204,-2.8361,-2.8435,-2.8765,-2.9107,-2.9271,-2.937,-2.942,-2.942,-2.947,-2.9457,-2.9457,-2.9548,-2.9753,-2.9792,-2.9753,-2.9753,-2.9792,-2.9792,-2.9792,-2.9779,-2.9792,-2.9753,-2.9753,-2.9753,-2.9663,-2.9573,-2.9521,-2.9419,-2.9314,-2.917,-2.9079,-2.8949,-2.8843,-2.8764,-2.8697,-2.859,-2.851,-2.8471,-2.8199,-2.8052,-2.8048,-2.8259,-2.8422,-2.8435,-2.8471,-2.8471,-2.851,-2.8471,-2.8431,-2.8231,-2.803,-2.7829,-2.7626,-2.7412,-2.7301,-2.7231,-2.719,-2.719,-2.719,-2.7201,-2.7259,-2.7369,-2.7598,-2.7462,-2.7905,-2.8352,-2.8836,-2.9291,-2.9731,-3.0249,-3.0675,-3.1138,-3.1286,-3.1123,-3.1048,-3.0823,-3.0305,-3.0113,-3.0037,-3.0011,-2.9946,-2.983,-2.9779,-2.9818,-2.9818,-2.9779,-2.9779,-2.9534,-2.9326,-2.9091,-2.8776,-2.8578,-2.855,-2.851,-2.851,-2.851,-2.851,-2.851,-2.851,-2.851,-2.851,-2.851,-2.855,-2.8657,-2.8618,-2.8498,-2.8459,-2.8471,-2.8431,-2.8391,-2.8391,-2.8498,-2.8609,-2.8706,-2.8903,-2.9034,-2.9127,-2.937,-2.9512,-2.9663,-2.965,-2.965,-2.965,-2.9638,-2.965,-2.965,-2.9689,-2.9792,-2.9792,-2.9779,-2.9779,-2.9792,-2.9792,-2.9779,-2.9779,-2.9792,-2.974,-2.974,-2.9702,-2.9663,-2.9663,-2.9624,-2.9521,-2.9431,-2.9353,-2.9314,-2.9145,-2.8882,-2.8803,-2.8657,-2.859,-2.851,-2.851,-2.851,-2.8471,-2.8443,-2.8471,-2.8498,-2.8498,-2.8471,-2.851,-2.8471,-2.8431,-2.8311,-2.807,-2.7869,-2.7708,-2.7505,-2.726,-2.719,-2.719,-2.719,-2.719,-2.719,-2.7213,-2.7305,-2.7527,-2.7817]},{"header":{"parameterUnit":"m.s-1","parameterCategory":1,"la1":31.0,"la2":29.5877,"lo1":-88.7671,"lo2":-86.6584,"dy":0.0162,"dx":0.0185,"nx":115,"ny":88,"refTime":"2024-03-12T06:00:00:Z","depth":0,"parameterNumber":3,"parameterNumberName":"V-component_of_WINDS"},"data":[0.0,0.0,0.0,0.0,0.0,0.0,0.0,0.0,0.0,0.0,0.0,0.0,0.0,0.0,0.0,0.0,0.0,0.0,0.0,0.0,0.0,0.0,0.0,0.0,0.0,0.0,0.0,0.0,0.0,0.0,0.0,0.0,0.0,0.0,0.0,0.0,0.0,0.0,0.0,0.0,0.0,0.0,0.0,0.0,0.0,0.0,0.0,0.0,0.0,0.0,0.0,0.0,0.0,0.0,0.0,0.0,0.0,0.0,0.0,0.0,0.0,0.0,0.0,0.0,0.0,0.0,0.0,0.0,0.0,0.0,0.0,0.0,0.0,0.0,0.0,0.0,0.0,0.0,0.0,0.0,0.0,0.0,0.0,0.0,0.0,0.0,0.0,0.0,0.0,0.0,0.0,0.0,0.0,0.0,0.0,0.0,0.0,0.0,0.0,0.0,0.0,0.0,0.0,0.0,0.0,0.0,0.0,0.0,0.0,0.0,0.0,0.0,0.0,0.0,0.0,0.0,0.0,0.0,0.0,0.0,0.0,0.0,0.0,0.0,0.0,0.0,0.0,0.0,0.0,0.0,0.0,0.0,0.0,0.0,0.0,0.0,0.0,0.0,0.0,0.0,0.0,0.0,0.0,0.0,0.0,0.0,0.0,0.0,0.0,0.0,0.0,0.0,0.0,0.0,0.0,0.0,0.0,0.0,0.0,0.0,0.0,0.0,0.0,0.0,0.0,0.0,0.0,0.0,0.0,0.0,0.0,0.0,0.0,0.0,0.0,0.0,0.0,0.0,0.0,0.0,0.0,0.0,0.0,0.0,0.0,0.0,0.0,0.0,0.0,0.0,0.0,0.0,0.0,0.0,0.0,0.0,0.0,0.0,0.0,0.0,0.0,0.0,0.0,0.0,0.0,0.0,0.0,0.0,0.0,0.0,0.0,0.0,0.0,0.0,0.0,0.0,0.0,0.0,0.0,0.0,0.0,0.0,0.0,0.0,0.0,0.0,0.0,0.0,0.0,0.0,0.0,0.0,0.0,0.0,0.0,0.0,0.0,0.0,0.0,0.0,0.0,0.0,0.0,0.0,0.0,0.0,0.0,0.0,0.0,0.0,0.0,0.0,0.0,0.0,0.0,0.0,0.0,0.0,0.0,0.0,0.0,0.0,0.0,0.0,0.0,0.0,0.0,0.0,0.0,0.0,0.0,0.0,0.0,0.0,0.0,0.0,0.0,0.0,0.0,0.0,0.0,0.0,0.0,0.0,0.0,0.0,0.0,0.0,0.0,0.0,0.0,0.0,0.0,0.0,0.0,0.0,0.0,0.0,0.0,0.0,0.0,0.0,0.0,0.0,0.0,0.0,0.0,0.0,0.0,0.0,0.0,0.0,0.0,0.0,0.0,0.0,0.0,0.0,0.0,0.0,0.0,0.0,0.0,0.0,0.0,0.0,0.0,0.0,0.0,0.0,0.0,0.0,0.0,0.0,0.0,0.0,0.0,0.0,0.0,0.0,0.0,0.0,0.0,0.0,0.0,0.0,0.0,0.0,0.0,0.0,0.0,0.0,0.0,0.0,0.0,0.0,0.0,0.0,0.0,0.0,0.0,0.0,0.0,0.0,0.0,0.0,0.0,0.0,0.0,0.0,0.0,0.0,0.0,0.0,0.0,0.0,0.0,0.0,0.0,0.0,0.0,0.0,0.0,0.0,0.0,0.0,0.0,0.0,0.0,0.0,0.0,0.0,0.0,0.0,0.0,0.0,0.0,0.0,0.0,0.0,0.0,0.0,0.0,0.0,0.0,0.0,0.0,0.0,0.0,0.0,0.0,0.0,0.0,0.0,0.0,0.0,0.0,0.0,0.0,0.0,0.0,0.0,0.0,0.0,0.0,0.0,0.0,0.0,0.0,0.0,0.0,0.0,0.0,0.0,0.0,0.0,0.0,0.0,0.0,0.0,0.0,0.0,0.0,0.0,0.0,0.0,0.0,0.0,0.0,0.0,0.0,0.0,0.0,0.0,0.0,0.0,0.0,0.0,0.0,0.0,0.0,0.0,0.0,0.0,0.0,0.0,0.0,0.0,0.0,0.0,0.0,0.0,0.0,0.0,0.0,0.0,0.0,0.0,0.0,0.0,0.0,0.0,0.0,0.0,0.0,0.0,0.0,0.0,0.0,0.0,0.0,0.0,0.0,0.0,0.0,0.0,0.0,0.0,0.0,0.0,0.0,0.0,0.0,0.0,0.0,0.0,0.0,0.0,0.0,0.0,0.0,0.0,0.0,0.0,0.0,0.0,0.0,0.0,0.0,0.0,0.0,0.0,0.0,0.0,0.0,0.0,0.0,0.0,0.0,0.0,0.0,0.0,0.0,0.0,0.0,0.0,0.0,0.0,0.0,0.0,0.0,0.0,0.0,0.0,0.0,0.0,0.0,0.0,0.0,0.0,0.0,0.0,0.0,0.0,0.0,0.0,0.0,0.0,0.0,0.0,0.0,0.0,0.0,0.0,0.0,0.0,0.0,0.0,0.0,0.0,0.0,0.0,0.0,0.0,0.0,0.0,0.0,0.0,0.0,0.0,0.0,0.0,0.0,0.0,0.0,0.0,0.0,0.0,0.0,0.0,0.0,0.0,0.0,0.0,0.0,0.0,0.0,0.0,0.0,0.0,0.0,0.0,0.0,0.0,0.0,0.0,0.0,0.0,0.0,0.0,0.0,0.0,0.0,0.0,0.0,0.0,0.0,0.0,0.0,0.0,0.0,0.0,0.0,0.0,0.0,0.0,0.0,0.0,0.0,0.0,0.0,0.0,0.0,0.0,0.0,0.0,0.0,0.0,0.0,0.0,0.0,0.0,0.0,0.0,0.0,0.0,0.0,0.0,0.0,0.0,0.0,0.0,0.0,0.0,0.0,0.0,0.0,0.0,0.0,0.0,0.0,0.0,0.0,0.0,0.0,0.0,0.0,0.0,0.0,0.0,0.0,0.0,0.0,0.0,0.0,0.0,0.0,0.0,0.0,0.0,0.0,0.0,0.0,0.0,0.0,0.0,0.0,0.0,0.0,0.0,0.0,0.0,0.0,0.0,0.0,0.0,0.0,0.0,0.0,0.0,0.0,0.0,0.0,0.0,0.0,0.0,0.0,0.0,0.0,0.0,0.0,0.0,0.0,0.0,0.0,0.0,0.0,0.0,0.0,0.0,0.0,0.0,0.0,0.0,0.0,0.0,0.0,0.0,0.0,0.0,0.0,0.0,0.0,0.0,0.0,0.0,0.0,0.0,0.0,0.0,0.0,0.0,0.0,0.0,0.0,0.0,0.0,0.0,0.0,0.0,0.0,0.0,0.0,0.0,0.0,0.0,0.0,0.0,0.0,0.0,0.0,0.0,0.0,0.0,0.0,0.0,0.0,0.0,0.0,0.0,0.0,0.0,0.0,0.0,0.0,0.0,0.0,0.0,0.0,0.0,0.0,0.0,0.0,0.0,0.0,0.0,0.0,0.0,0.0,0.0,0.0,0.0,0.0,0.0,0.0,0.0,0.0,0.0,0.0,0.0,0.0,0.0,0.0,0.0,0.0,0.0,0.0,0.0,0.0,0.0,0.0,0.0,0.0,0.0,0.0,0.0,0.0,0.0,0.0,0.0,0.0,0.0,0.0,0.0,0.0,0.0,0.0,0.0,0.0,0.0,0.0,0.0,0.0,0.0,0.0,0.0,0.0,0.0,0.0,0.0,0.0,0.0,0.0,0.0,0.0,0.0,0.0,0.0,0.0,0.0,0.0,0.0,0.0,0.0,0.0,0.0,0.0,0.0,0.0,0.0,0.0,0.0,0.0,0.0,0.0,0.0,0.0,0.0,0.0,0.0,0.0,0.0,0.0,0.0,0.0,0.0,0.0,0.0,0.0,0.0,0.0,0.0,0.0,0.0,0.0,0.0,0.0,0.0,0.0,0.0,0.0,0.0,0.0,0.0,0.0,0.0,0.0,0.0,0.0,0.0,0.0,0.0,0.0,0.0,0.0,0.0,0.0,0.0,0.0,0.0,0.0,0.0,0.0,0.0,0.0,0.0,0.0,0.0,0.0,0.0,0.0,0.0,0.0,0.0,0.0,0.0,0.0,0.0,0.0,0.0,0.0,0.0,0.0,0.0,0.0,0.0,0.0,0.0,0.0,0.0,0.0,0.0,0.0,0.0,0.0,0.0,0.0,0.0,0.0,0.0,0.0,0.0,0.0,0.0,0.0,0.0,0.0,0.0,0.0,0.0,0.0,0.0,0.0,0.0,0.0,0.0,-0.1305,0.0,0.0,0.0,0.0,0.0,0.0,0.0,0.0,0.0,0.0,0.0,0.0,0.0,0.0,0.0,0.0,0.0,0.0,0.0,0.0,0.0,0.0,0.0,0.0,0.0,0.0,0.0,0.0,0.0,0.0,0.0,0.0,0.0,0.0,0.0,0.0,0.0,0.0,0.0,0.0,0.0,0.0,0.0,0.0,0.0,0.0,0.0,0.0,0.0,0.0,0.0,0.0,0.0,0.0,0.0,0.0,0.0,0.0,0.0,0.0,0.0,0.0,0.0,0.0,0.0,0.0,0.0,0.0,0.0,0.0,0.0,0.0,0.0,0.0,0.0,0.0,0.0,0.0,0.0,0.0,0.0,0.0,0.0,0.0,0.0,0.0,0.0,0.0,0.0,0.0,0.0,0.0,0.0,0.0,0.0,0.0,0.0,0.0,0.0,0.0,0.0,0.0,0.0,0.0,0.0,0.0,0.0,0.0,0.0,0.0,0.1117,0.0266,-0.0219,-0.0686,-0.112,0.0,0.0,0.0,0.0,0.0,0.0,0.0,0.0,0.0,0.0,0.0,0.0,0.0,0.0,0.0,0.0,0.0,0.0,0.0,0.0,0.0,0.0,0.0,0.0,0.0,0.0,0.0,0.0,0.0,0.0,0.0,0.0,0.0,0.0,0.0,0.0,0.0,0.0,0.0,0.0,0.0,0.0,0.0,0.0,0.0,0.0,0.0,0.0,0.0,0.0,0.0,0.0,0.0,0.0,0.0,0.0,0.0,0.0,0.0,0.0,0.0,0.0,0.0,0.0,0.0,0.0,0.0,0.0,0.0,0.0,0.0,0.0,0.0,0.0,0.0,0.0,0.0,0.0,0.0,0.0,0.0,0.0,0.0,0.0,0.0,0.0,0.0,0.0,0.0,0.0,0.0,0.0,0.0,0.0,0.0,0.0,0.0,0.0,0.0,0.0,0.0,0.0,0.0,0.0,0.0,0.0,0.0,0.0,0.0,0.0,0.0,0.0,0.0268,-0.0305,-0.0884,0.0,0.0,0.0,0.0,0.0,0.0,0.0,0.0,0.0,0.0,0.0,0.0,0.0,0.0,0.0,0.0,0.0,0.0,0.0,0.0,0.0,0.0,0.0,0.0,0.0,0.0,0.0,0.0,0.0,0.0,0.0,0.0,0.0,0.0,0.0,0.0,0.0,0.0,0.0,0.0,0.0,0.0,0.0,0.0,0.0,0.0,0.0,0.0,0.0,0.0,0.0,0.0,0.0,0.0,0.0,0.0,0.0,0.0,0.0,0.0,0.0,0.0,0.0,0.0,0.0,0.0,0.0,0.0,0.0,0.0,0.0,0.0,0.0,0.0,0.0,0.0,0.0,0.0,0.0,0.0,0.0,0.0,0.0,0.0,0.0,0.0,0.0,0.0,0.0,0.0,0.0,0.0,0.0,0.0,0.0,0.0,0.0,0.0,0.0,0.0,0.0,0.0,0.0,0.0,0.0,0.0,0.0,0.0,0.0,0.0,0.1769,0.0805,0.0279,0.0,-0.0674,0.0,0.0,0.0,0.0,0.0,0.0,0.0,0.0,0.0,0.0,0.0,0.0,0.0,0.0,0.0,0.0,0.0,0.0,0.0,0.0,0.0,0.0,0.0,0.0,0.0,0.0,0.0,0.0,0.0,0.0,0.0,0.0,0.0,0.0,0.0,0.0,0.0,0.0,0.0,0.0,0.0,0.0,0.0,0.0,0.0,0.0,0.0,0.0,0.0,0.0,0.0,0.0,0.0,0.0,0.0,0.0,0.0,0.0,0.0,0.0,0.0,0.0,0.0,0.0,0.0,0.0,0.0,0.0,0.0,0.0,0.0,0.0,0.0,0.0,0.0,0.0,0.0,0.0,0.0,0.0,0.0,0.0,0.0,0.0,0.0,0.0,0.0,0.0,0.0,0.0,0.0,0.0,0.0,0.0,0.0,0.0,0.0,0.0,0.0,0.0,0.0,0.0,0.0,0.0,0.0,0.0,0.0,0.0,0.0,0.0,0.2428,0.1476,0.0411,-0.0263,0.0,0.0,0.0,0.0,0.0,0.0,0.0,0.0,0.0,0.0,0.0,0.0,0.0,0.0,0.0,0.0,0.0,0.0,0.0,0.0,0.0,0.0,0.0,0.0,0.0,0.0,0.0,0.0,0.0,0.0,0.0,0.0,0.0,0.0,0.0,0.0,0.0,0.0,0.0,0.0,0.0,0.0,0.0,0.0,0.0,0.0,0.0,0.0,0.0,0.0,0.0,0.0,0.0,0.0,0.0,0.0,0.0,0.0,0.0,0.0,0.0,0.0,0.0,0.0,0.0,0.0,0.0,0.0,0.0,0.0,0.0,0.0,0.0,0.0,0.0,0.0,0.0,0.0,0.0,0.0,0.0,0.0,0.0,0.0,0.0,0.0,0.0,0.0,0.0,0.0,0.0,0.0,0.0,0.0,0.0,0.0,0.0,0.0,0.0,0.0,0.0,0.0,0.0,0.0,0.0,0.0,0.0,0.0,0.0,0.0,0.3764,0.2862,0.1708,0.0542,-0.013,-0.0211,0.0,0.0,0.0,0.0,0.0,0.0,0.0,0.0,0.0,0.0,0.0,0.0,0.0,0.0,0.0,0.0,0.0,0.0,0.0,0.0,0.0,0.0,0.0,0.0,0.0,0.0,0.0,0.0,0.0,0.0,0.0,0.0,0.0,0.0,0.0,0.0,0.0,0.0,0.0,0.0,0.0,0.0,0.0,0.0,0.0,0.0,0.0,0.0,0.0,0.0,0.0,0.0,0.0,0.0,0.0,0.0,0.0,0.0,0.0,0.0,0.0,0.0,0.0,0.0,0.0,0.0,0.0,0.0,0.0,0.0,0.0,0.0,0.0,0.0,0.0,0.0,0.0,0.0,0.0,0.0,0.0,0.0,0.0,0.0,0.0,0.0,0.0,0.0,0.0,0.0,0.0,0.0,0.0,0.0,0.0,0.0,0.0,0.0,0.0,0.0,0.0,0.0,0.0,0.0,0.0,0.0,0.0,0.0,0.4712,0.4,0.29,0.1334,0.0687,0.0264,0.0,0.0,0.0,0.0,0.0,0.0,0.0,0.0,0.0,0.0,0.0,0.0,0.0,0.0,0.0,0.0,0.0,0.0,0.0,0.0,0.0,0.0,0.0,0.0,0.0,0.0,0.0,0.0,0.0,0.0,0.0,0.0,0.0,0.0,0.0,0.0,0.0,0.0,0.0,0.0,0.0,0.0,0.0,0.0,0.0,0.0,0.0,0.0,0.0,0.0,0.0,0.0,0.0,0.0,0.0,0.0,0.0,0.0,0.0,0.0,0.0,0.0,0.0,0.0,0.0,0.0,0.0,0.0,0.0,0.0,0.0,0.0,0.0,0.0,0.0,0.0,0.0,0.0,0.0,0.0,0.0,0.0,0.0,0.0,0.0,0.0,0.0,0.0,0.0,0.0,0.0,0.0,0.0,0.0,0.0,0.0,0.0,0.0,0.0,0.0,0.0,0.0,0.0,0.0,0.0,0.0,0.0,0.0,0.0,0.5172,0.3816,0.2556,0.1477,0.0779,0.0352,0.0,0.0,0.0,0.0,0.0,0.0,0.0,0.0,0.0,0.0,0.0,0.0,0.0,0.0,0.0,0.0,0.0,0.0,0.0,0.0,0.0,0.0,0.0,0.0,0.0,0.0,0.0,0.0,0.0,0.0,0.0,0.0,0.0,0.0,0.0,0.0,0.0,0.0,0.0,0.0,0.0,0.0,0.0,0.0,0.0,0.0,0.0,0.0,0.0,0.0,0.0,0.0,0.0,0.0,0.0,0.0,0.0,0.0,0.0,0.0,0.0,0.0,0.0,0.0,0.0,0.0,0.0,0.0,0.0,0.0,0.0,0.0,0.0,0.0,0.0,0.0,0.0,0.0,0.0,0.0,0.0,0.0,0.0,0.0,0.0,0.0,0.0,0.0,0.0,0.0,0.0,0.0,0.0,0.0,0.0,0.0,0.0,0.0,0.0,0.0,0.0,0.0,0.0,0.0,0.0,0.0,0.0,0.0,0.0,0.5403,0.0,0.2672,0.1859,0.12,0.0664,0.0,0.0,0.0,0.0,0.0,0.0,0.0,0.0,0.0,0.0,0.0,0.0,0.0,0.0,0.0,0.0,0.0,0.0,0.0,0.0,0.0,0.0,0.0,0.0,0.0,0.0,0.0,0.0,0.0,0.0,0.0,0.0,0.0,0.0,0.0,0.0,0.0,0.0,0.0,0.0,0.0,0.0,0.0,0.0,0.0,0.0,0.0,0.0,0.0,0.0,0.0,0.0,0.0,0.0,0.0,0.0,0.0,0.0,0.0,0.0,0.0,0.0,0.0,0.0,0.0,0.0,0.0,0.0,0.0,0.0,0.0,0.0,0.0,0.0,0.0,0.0,0.0,0.0,0.0,0.0,0.0,0.0,0.0,0.0,0.0,0.0,0.0,0.0,0.0,0.0,0.0,0.0,0.0,0.0,0.0,0.0,0.0,0.0,0.0,0.0,0.0,0.0,0.0,0.0,0.0,0.0,0.0,0.0,0.6352,0.5221,0.4369,0.3406,0.2432,0.1871,0.1304,0.0,0.0,0.0,0.0,0.0,0.0,0.0,0.0,0.0,0.0,0.0,0.0,0.0,0.0,0.0,0.0,0.0,0.0,0.0,0.0,0.0,0.0,0.0,0.0,0.0,0.0,0.0,0.0,0.0,0.0,0.0,0.0,0.0,0.0,0.0,0.0,0.0,0.0,0.0,0.0,0.0,0.0,0.0,0.0,0.0,0.0,0.0,0.0,0.0,0.0,0.0,0.0,0.0,0.0,0.0,0.0,0.0,0.0,0.0,0.0,0.0,0.0,0.0,0.0,0.0,0.0,0.0,0.0,0.0,0.0,0.0,0.0,0.0,0.0,0.0,0.0,0.0,0.0,0.0,0.0,0.0,0.0,0.0,0.0,0.0,0.0,0.0,0.0,0.0,0.0,0.0,0.0,0.0,0.0,0.0,0.0,0.0,0.0,0.0,0.0,0.0,0.0,0.0,0.0,0.0,0.0,0.0,0.0,0.0,0.562,0.4745,0.3783,0.282,0.2066,0.1424,0.0,0.0,0.0,0.0,0.0,0.0,0.0,0.0,0.0,0.0,0.0,0.0,0.0,0.0,0.0,0.0,0.0,0.0,0.0,0.0,0.0,0.0,0.0,0.0,0.0,0.0,0.0,0.0,0.0,0.0,0.0,0.0,0.0,0.0,0.0,0.0,0.0,0.0,0.0,0.0,0.0,0.0,0.0,0.0,0.0,0.0,0.0,0.0,0.0,0.0,0.0,0.0,0.0,0.0,0.0,0.0,0.0,0.0,0.0,0.0,0.0,0.0,0.0,0.0,0.0,0.0,0.0,0.0,0.0,0.0,0.0,0.0,0.0,0.0,0.0,0.0,0.0,0.0,0.0,0.0,0.0,0.0,0.0,0.0,0.0,0.0,0.0,0.0,0.0,0.0,0.0,0.0,0.0,0.0,0.0,0.0,0.0,0.0,0.0,0.0,0.0,0.0,0.0,0.0,0.0,0.0,0.0,0.0,0.0,0.6761,0.5536,0.4461,0.3478,0.2692,0.2008,0.1438,0.0,0.0,0.0,0.0,0.0,0.0,0.0,0.0,0.0,0.0,0.0,0.0,0.0,0.0,0.0,0.0,0.0,0.0,0.0,0.0,0.0,0.0,0.0,0.0,0.0,0.0,0.0,0.0,0.0,0.0,0.0,0.0,0.0,0.0,0.0,0.0,0.0,0.0,0.0,0.0,0.0,0.0,0.0,0.0,0.0,0.0,0.0,0.0,0.0,0.0,0.0,0.0,0.0,0.0,0.0,0.0,0.0,0.0,0.0,0.0,0.0,0.0,0.0,0.0,0.0,0.0,0.0,0.0,0.0,0.0,0.0,0.0,0.0,0.0,0.0,0.0,0.0,0.0,0.0,0.0,0.0,0.0,0.0,0.0,0.0,0.0,0.0,0.0,0.0,0.0,0.0,0.0,0.0,0.0,0.0,0.0,0.0,0.0,0.0,0.0,0.0,0.0,0.0,0.0,0.0,0.0,0.0,0.0,0.8389,0.6771,0.5406,0.4304,0.3625,0.289,0.0,0.0,0.0,0.0,0.0,0.0,0.0,0.0,0.0,0.0,0.0,0.0,0.0,0.0,0.0,0.0,0.0,0.0,0.0,0.0,0.0,0.0,0.0,0.0,0.0,0.0,0.0,0.0,0.0,0.0,0.0,0.0,0.0,0.0,0.0,0.0,0.0,0.0,0.0,0.0,0.0,0.0,0.0,0.0,0.0,0.0,0.0,0.0,0.0,0.0,0.0,0.0,0.0,0.0,0.0,0.0,0.0,0.0,0.0,0.0,0.0,0.0,0.0,0.0,0.0,0.0,0.0,0.0,0.0,0.0,0.0,0.0,0.0,0.0,0.0,0.0,0.0,0.0,0.0,0.0,0.0,0.0,0.0,0.0,0.0,0.0,0.0,0.0,0.0,0.0,0.0,0.0,0.0,0.0,0.0,0.0,0.0,0.0,0.0,0.0,0.0,0.0,0.0,0.0,0.0,0.0,0.0,0.0,0.0,0.9105,0.8135,0.6873,0.5296,0.4376,0.3477,0.0,0.0,0.0,0.0,0.0,0.0,0.0,0.0,0.0,0.0,0.0,0.0,0.0,0.0,0.0,0.0,0.0,0.0,0.0,0.0,0.0,0.0,0.0,0.0,0.0,0.0,0.0,0.0,0.0,0.0,0.0,0.0,0.0,0.0,0.0,0.0,0.0,0.0,0.0,0.0,0.0,0.0,0.0,0.0,0.0,0.0,0.0,0.0,0.0,0.0,0.0,0.0,0.0,0.0,0.0,0.0,0.0,0.0,0.0,0.0,0.0,0.0,0.0,0.0,0.0,0.0,0.0,0.0,0.0,0.0,0.0,0.0,0.0,0.0,0.0,0.0,0.0,0.0,0.0,0.0,0.0,0.0,0.0,0.0,0.0,0.0,0.0,0.0,0.0,0.0,0.0,0.0,0.0,0.0,0.0,0.0,0.0,0.0,0.0,0.0,0.0,0.0,0.0,0.0,0.0,0.0,0.0,0.0,1.0395,0.9935,0.9356,0.8396,0.6976,0.5606,0.4528,0.0,0.0,0.0,0.0,0.0,0.0,0.0,0.0,0.0,0.0,0.0,0.0,0.0,0.0,0.0,0.0,0.0,0.0,0.0,0.0,0.0,0.0,0.0,0.0,0.0,0.0,0.0,0.0,0.0,0.0,0.0,0.0,0.0,0.0,0.0,0.0,0.0,0.0,0.0,0.0,0.0,0.0,0.0,0.0,0.0,0.0,0.0,0.0,0.0,0.0,0.0,0.0,0.0,0.0,0.0,0.0,0.0,0.0,0.0,0.0,0.0,0.0,0.0,0.0,0.0,0.0,0.0,0.0,0.0,0.0,0.0,0.0,0.0,0.0,0.0,0.0,0.0,0.0,0.0,0.0,0.0,0.0,0.0,0.0,0.0,0.0,0.0,0.0,0.0,0.0,0.0,0.0,0.0,0.0,0.0,0.0,0.0,0.0,0.0,0.0,0.0,0.0,0.0,0.0,0.0,0.0,0.0,0.0,1.1333,1.0784,1.0457,0.9875,0.9019,0.716,0.5904,0.0,0.0,0.0,0.0,0.0,0.0,0.0,0.0,0.0,0.0,0.0,0.0,0.0,0.0,0.0,0.0,0.0,0.0,0.0,0.0,0.0,0.0,0.0,0.0,0.0,0.0,0.0,0.0,0.0,0.0,0.0,0.0,0.0,0.0,0.0,0.0,0.0,0.0,0.0,0.0,0.0,0.0,0.0,0.0,0.0,0.0,0.0,0.0,0.0,0.0,0.0,0.0,0.0,0.0,0.0,0.0,0.0,0.0,0.0,0.0,0.0,0.0,0.0,0.0,0.0,0.0,0.0,0.0,0.0,0.0,0.0,0.0,0.0,0.0,0.0,0.0,0.0,0.0,0.0,0.0,0.0,0.0,0.0,0.0,0.0,0.0,0.0,0.0,0.0,0.0,0.0,0.0,0.0,0.0,0.0,0.0,0.0,0.0,0.0,0.0,0.0,0.0,0.0,0.0,0.0,0.0,0.0,0.0,1.1991,1.1844,1.1252,1.0791,1.0375,0.8467,0.7182,0.0,0.0,0.0,0.0,0.0,0.0,0.0,0.0,0.0,0.0,0.0,0.0,0.0,0.0,0.0,0.0,0.0,0.0,0.0,0.0,0.0,0.0,0.0,0.0,0.0,0.0,0.0,0.0,0.0,0.0,0.0,0.0,0.0,0.0,0.0,0.0,0.0,0.0,0.0,0.0,0.0,0.0,0.0,0.0,0.0,0.0,0.0,0.0,0.8225,0.0,0.0,0.0,0.0,0.0,0.0,0.0,0.0,0.0,0.0,0.0,0.0,0.0,0.0,0.0,0.0,0.0,0.0,0.0,0.0,0.0,0.0,0.0,0.0,0.0,0.0,0.0,0.0,0.0,0.0,0.0,0.0,0.0,0.0,0.0,0.0,0.0,0.0,0.0,0.0,0.0,0.0,0.0,0.0,0.0,0.0,0.0,0.0,0.0,0.0,0.0,0.0,0.0,0.0,0.0,0.0,0.0,0.0,0.0,1.2775,1.2562,1.1973,1.1462,1.1024,0.9745,0.8675,0.0,0.0,0.0,0.0,0.0,0.0,0.0,0.0,0.0,0.0,0.0,0.0,0.0,0.0,0.0,0.0,0.0,0.0,0.0,0.0,0.0,0.0,0.0,0.0,0.0,0.0,0.0,0.0,0.0,0.0,0.0,0.0,0.0,0.0,0.0,0.0,0.0,0.0,0.0,0.0,0.0,0.0,0.0,0.0,0.0,0.0,0.0,0.0,0.0,0.0,0.0,0.0,0.0,0.0,0.0,0.0,0.0,0.0,0.0,0.0,0.0,0.0,0.0,0.0,0.0,0.0,0.0,0.0,0.0,0.0,0.0,0.0,0.0,0.0,0.0,0.0,0.0,0.0,0.0,0.0,0.0,0.0,0.0,0.0,0.0,0.0,0.0,0.0,0.0,0.0,0.0,0.0,0.0,0.0,0.0,0.0,0.0,0.0,0.0,0.0,0.0,0.0,0.0,0.0,0.0,0.0,0.0,1.3801,1.3631,1.3226,1.2694,1.2177,1.155,1.0966,1.014,0.9111,0.0,0.0,0.0,0.0,0.0,0.0,0.0,0.0,0.0,0.0,0.0,0.0,0.0,0.0,0.0,0.0,0.0,0.0,0.0,0.0,0.0,0.0,0.0,0.0,0.0,0.0,0.0,0.0,0.0,0.0,0.0,0.0,0.0,0.0,0.0,0.0,0.0,0.0,1.3409,1.3878,0.0,0.0,0.0,0.0,0.0,0.0,0.0,0.0,0.9958,0.0,0.0,0.0,0.0,0.0,0.0,0.0,0.0,0.0,0.0,0.0,0.0,0.0,0.0,0.0,0.0,0.0,0.0,0.0,0.0,0.0,0.0,0.0,0.0,0.0,0.0,0.0,0.0,0.0,0.0,0.0,0.0,0.0,0.0,0.0,0.0,0.0,0.0,0.0,0.0,0.0,0.0,0.0,0.0,0.0,0.0,0.0,0.0,0.0,0.0,0.0,0.0,0.0,0.0,0.0,0.0,1.4678,1.4463,1.4344,1.4309,1.3834,1.3213,1.2495,1.1978,1.1291,1.0421,0.0,0.0,0.0,0.0,0.0,0.0,0.0,0.0,0.0,0.0,0.0,0.0,0.0,0.0,0.0,0.0,0.0,0.0,0.0,0.0,0.0,0.0,0.0,0.0,0.0,0.0,0.0,0.0,0.0,0.0,0.0,0.0,0.0,0.0,0.0,0.0,0.0,0.0,0.0,1.5841,1.5777,0.0,0.0,0.0,0.0,0.0,0.0,0.0,0.0,1.1089,0.0,0.0,0.0,0.0,0.0,0.0,0.0,0.0,0.0,0.0,0.0,0.0,0.0,0.0,0.0,0.0,0.0,0.0,0.0,0.0,0.0,0.0,0.0,0.0,0.0,0.0,0.0,0.0,0.0,0.0,0.0,0.0,0.0,0.0,0.0,0.0,0.0,0.0,0.0,0.0,0.0,0.0,0.0,0.0,0.0,0.0,0.0,0.0,0.0,0.0,0.0,0.0,0.0,0.0,0.0,1.5186,1.5259,1.5178,1.4972,1.4497,1.3874,1.3119,1.254,1.1836,0.0,0.0,0.0,0.0,0.0,0.0,0.0,0.0,0.0,0.0,0.0,0.0,0.0,0.0,0.0,0.0,0.0,0.0,0.0,0.0,0.0,0.0,0.0,0.0,0.0,0.0,0.0,0.0,0.0,0.0,0.0,0.0,0.0,0.0,0.0,0.0,0.0,0.0,0.0,0.0,1.7345,1.7481,1.6911,0.0,0.0,0.0,0.0,0.0,0.0,1.3006,1.264,0.0,0.0,0.0,0.0,0.0,0.0,0.0,0.0,0.0,0.0,0.0,0.0,0.0,0.0,0.0,0.0,0.0,0.0,0.0,0.0,0.0,0.0,0.0,0.0,0.0,0.0,0.0,0.0,0.0,0.0,0.0,0.0,0.0,0.0,0.0,0.0,0.0,0.0,0.0,0.0,0.0,0.0,0.0,0.0,0.0,0.0,0.0,0.0,0.0,0.0,0.0,0.0,0.0,0.0,0.0,1.5821,1.6085,1.6071,1.5782,1.5308,1.4681,1.39,1.3123,1.2407,0.0,0.0,0.0,0.0,0.0,0.0,0.0,0.0,0.0,0.0,0.0,0.0,0.0,0.0,0.0,0.0,0.0,0.0,0.0,0.0,0.0,0.0,0.0,0.0,0.0,0.0,0.0,0.0,0.0,0.0,0.0,0.0,0.0,0.0,0.0,0.0,0.0,0.0,0.0,0.0,0.0,1.9022,1.8736,1.8505,0.0,0.0,0.0,0.0,1.5652,1.5117,0.0,0.0,0.0,0.0,0.0,0.0,0.0,0.0,0.0,0.0,0.0,0.0,0.0,0.0,0.0,0.0,0.0,0.0,0.0,0.0,0.0,0.0,0.0,0.0,0.0,0.0,0.0,0.0,0.0,0.0,0.0,0.0,0.0,0.0,0.0,0.0,0.0,0.0,0.0,0.0,0.0,0.0,0.0,0.0,0.0,0.0,0.0,0.0,0.0,0.0,0.0,0.0,0.0,0.0,0.0,0.0,1.7041,1.6955,1.7049,1.737,1.6741,1.5953,1.5127,1.4346,1.3533,0.0,0.0,0.0,0.0,0.0,0.0,0.0,0.0,0.0,0.0,0.0,0.0,0.0,0.0,0.0,0.0,0.0,0.0,0.0,0.0,0.0,0.0,0.0,0.0,0.0,0.0,0.0,0.0,0.0,0.0,0.0,0.0,0.0,0.0,0.0,0.0,0.0,0.0,0.0,0.0,0.0,2.0505,2.0322,2.0127,1.9537,0.0,0.0,1.7694,1.7409,1.7393,0.0,0.0,0.0,0.0,0.0,0.0,0.0,0.0,0.0,0.0,0.0,0.0,0.0,0.0,0.0,0.0,0.0,0.0,0.0,0.0,0.0,0.0,0.0,0.0,0.0,0.0,0.0,0.0,0.0,0.0,0.0,0.0,0.0,0.0,0.0,0.0,0.0,0.0,0.0,0.0,0.0,0.0,0.0,0.0,0.0,0.0,0.0,0.0,0.0,0.0,0.0,0.0,0.0,0.0,0.0,1.6484,1.7575,1.7996,1.8107,1.7914,1.7673,1.707,1.6147,1.5362,1.451,0.0,0.0,0.0,0.0,0.0,0.0,0.0,0.0,0.0,0.0,0.0,0.0,0.0,0.0,0.0,0.0,0.0,0.0,0.0,0.0,0.0,0.0,0.0,0.0,0.0,0.0,0.0,0.0,0.0,0.0,0.0,0.0,0.0,0.0,0.0,0.0,0.0,0.0,0.0,0.0,0.0,0.0,2.1643,2.186,0.0,0.0,0.0,2.0374,2.0142,0.0,0.0,0.0,0.0,0.0,0.0,0.0,0.0,0.0,0.0,0.0,0.0,0.0,0.0,0.0,0.0,0.0,0.0,0.0,0.0,0.0,0.0,0.0,0.0,0.0,0.0,0.0,0.0,0.0,0.0,0.0,0.0,0.0,0.0,0.0,0.0,0.0,0.0,0.0,0.0,0.0,0.0,0.0,0.0,0.0,0.0,0.0,0.0,0.0,0.0,0.0,0.0,0.0,0.0,0.0,0.0,0.0,1.8017,1.8802,1.9021,1.8692,1.8607,1.8148,1.7373,1.6472,0.0,0.0,0.0,0.0,0.0,0.0,0.0,0.0,0.0,0.0,0.0,0.0,0.0,0.0,0.0,0.0,0.0,0.0,0.0,0.0,0.0,0.0,0.0,0.0,0.0,0.0,0.0,1.2532,0.0,0.0,0.0,0.0,0.0,0.0,0.0,0.0,0.0,0.0,0.0,0.0,0.0,0.0,2.2145,2.3084,2.3492,2.3496,0.0,0.0,2.2729,2.253,2.1771,2.0925,0.0,0.0,0.0,0.0,0.0,0.0,0.0,0.0,0.0,0.0,0.0,0.0,0.0,0.0,0.0,0.0,0.0,0.0,0.0,0.0,0.0,0.0,0.0,0.0,0.0,0.0,0.0,0.0,0.0,0.0,0.0,0.0,0.0,0.0,0.0,0.0,0.0,0.0,0.0,0.0,0.0,0.0,0.0,0.0,0.0,0.0,0.0,0.0,0.0,0.0,0.0,0.0,0.0,0.0,1.7545,1.8681,1.9158,1.9674,2.0201,1.9758,1.9252,1.8778,1.7612,1.6646,0.0,0.0,0.0,0.0,0.0,0.0,0.0,0.0,0.0,0.0,0.0,0.0,0.0,0.0,0.0,0.0,0.0,0.0,0.0,0.0,0.0,0.0,0.0,0.0,0.0,0.0,0.0,0.0,0.0,0.0,0.0,0.0,0.0,0.0,0.0,0.0,0.0,0.0,0.0,0.0,0.0,2.3951,2.4806,2.4979,2.4972,0.0,2.4469,2.4145,2.4136,2.3777,2.3211,2.2309,0.0,0.0,0.0,0.0,0.0,0.0,0.0,0.0,0.0,0.0,0.0,0.0,0.0,0.0,0.0,0.0,0.0,0.0,0.0,0.0,0.0,0.0,0.0,0.0,0.0,0.0,0.0,0.0,0.0,0.0,0.0,0.0,0.0,0.0,0.0,0.0,0.0,0.0,0.0,0.0,0.0,0.0,0.0,0.0,0.0,0.0,0.0,0.0,0.0,0.0,0.0,0.0,0.0,1.8063,1.9019,1.9867,2.0399,2.0676,2.047,2.0151,1.9721,1.8656,1.7739,0.0,0.0,0.0,0.0,0.0,0.0,0.0,0.0,0.0,0.0,0.0,0.0,0.0,0.0,0.0,0.0,0.0,0.0,0.0,0.0,0.0,0.0,0.0,0.0,0.0,0.0,0.0,0.0,1.5521,1.603,1.6929,0.0,0.0,0.0,0.0,0.0,0.0,0.0,0.0,0.0,0.0,2.4669,2.5857,2.6521,0.0,0.0,2.6423,2.6052,2.5943,2.5143,2.4226,2.3229,2.2144,0.0,0.0,0.0,0.0,0.0,0.0,0.0,0.0,0.0,0.0,0.0,0.0,0.0,0.0,0.0,0.0,0.0,0.0,0.0,0.0,0.0,0.0,0.0,0.0,0.0,0.0,0.0,0.0,0.0,0.0,0.0,0.0,0.0,0.0,0.0,0.0,0.0,0.0,0.0,0.0,0.0,0.0,0.0,0.0,0.0,0.0,0.0,0.0,0.0,0.0,0.0,0.0,1.8422,1.9322,2.0335,2.0989,2.1252,2.1193,2.1017,2.0663,1.9844,1.8971,0.0,0.0,0.0,0.0,0.0,0.0,0.0,0.0,0.0,0.0,0.0,0.0,0.0,0.0,0.0,0.0,0.0,0.0,0.0,0.0,0.0,0.0,0.0,0.0,0.0,0.0,0.0,0.0,1.6696,1.7148,1.7825,0.0,0.0,0.0,0.0,0.0,0.0,0.0,0.0,0.0,0.0,2.5777,2.7053,2.7737,2.8123,2.831,2.7783,2.7334,2.7219,2.6313,2.5335,2.4504,0.0,0.0,0.0,0.0,0.0,0.0,0.0,0.0,0.0,0.0,0.0,0.0,0.0,0.0,0.0,0.0,0.0,0.0,0.0,0.0,0.0,0.0,0.0,0.0,0.0,0.0,0.0,0.0,0.0,0.0,1.7054,0.0,0.0,0.0,0.0,0.0,0.0,0.0,0.0,0.0,0.0,0.0,0.0,0.0,0.0,0.0,0.0,0.0,0.0,0.0,0.0,0.0,0.0,1.8679,1.9593,2.0535,2.1364,2.2031,2.2073,2.1959,2.1749,2.1192,2.0343,1.9283,0.0,0.0,0.0,0.0,0.0,0.0,0.0,0.0,0.0,0.0,0.0,0.0,0.0,0.0,0.0,0.0,0.0,0.0,0.0,0.0,0.0,0.0,0.0,0.0,0.0,0.0,1.6909,1.7303,1.7615,0.0,0.0,0.0,0.0,0.0,0.0,0.0,0.0,0.0,0.0,2.6221,2.7488,2.8497,2.8464,2.856,2.9046,2.8431,2.7898,2.7898,2.729,2.676,0.0,0.0,0.0,0.0,0.0,0.0,0.0,0.0,0.0,0.0,0.0,0.0,0.0,0.0,0.0,0.0,0.0,0.0,0.0,0.0,0.0,0.0,0.0,0.0,0.0,0.0,0.0,2.022,1.9819,0.0,0.0,0.0,0.0,0.0,0.0,0.0,0.0,0.0,0.0,0.0,2.3482,2.3783,0.0,0.0,0.0,0.0,0.0,0.0,0.0,0.0,0.0,0.0,0.0,0.0,1.9361,2.0754,2.1403,2.2111,2.2883,2.3038,2.2927,2.2617,2.2228,2.1317,1.9793,0.0,0.0,0.0,0.0,0.0,0.0,0.0,0.0,0.0,0.0,0.0,0.0,0.0,0.0,0.0,0.0,0.0,0.0,0.0,0.0,0.0,0.0,0.0,0.0,0.0,1.7271,0.0,0.0,0.0,0.0,0.0,0.0,0.0,0.0,0.0,0.0,0.0,2.5345,2.6552,2.7731,2.8715,2.9395,2.9696,2.9899,0.0,0.0,0.0,0.0,0.0,0.0,0.0,0.0,0.0,0.0,0.0,0.0,0.0,0.0,2.3208,2.1659,2.1312,2.1056,2.0471,0.0,0.0,0.0,0.0,0.0,0.0,0.0,0.0,0.0,0.0,0.0,0.0,0.0,0.0,2.2812,0.0,2.1446,0.0,0.0,0.0,0.0,0.0,0.0,0.0,0.0,2.4755,2.5455,2.6119,2.6524,2.671,0.0,2.5614,2.4218,0.0,0.0,0.0,0.0,0.0,0.0,0.0,0.0,2.0333,2.1727,2.2274,2.29,2.3745,2.39,2.3863,2.3596,2.3136,2.2316,2.1019,1.9702,1.844,0.0,0.0,0.0,0.0,0.0,0.0,0.0,0.0,0.0,0.0,0.0,0.0,0.0,0.0,0.0,0.0,0.0,0.0,0.0,0.0,0.0,0.0,0.0,1.8518,0.0,0.0,0.0,0.0,0.0,0.0,0.0,0.0,0.0,2.4287,2.5653,2.7072,2.8112,2.8987,2.971,3.0244,0.0,0.0,0.0,0.0,0.0,0.0,0.0,2.8552,2.8083,2.8418,2.8519,2.7763,2.7405,2.7351,2.7614,0.0,0.0,2.4486,2.3838,2.3516,2.3062,2.2717,2.2457,2.2379,2.2485,2.2524,0.0,0.0,0.0,0.0,0.0,0.0,0.0,0.0,2.6107,2.5702,0.0,2.3678,0.0,0.0,0.0,0.0,0.0,2.382,0.0,0.0,2.7201,2.7812,2.8831,2.8895,2.8921,2.8856,2.7735,2.7167,2.6966,2.335,0.0,0.0,0.0,0.0,0.0,0.0,2.1485,2.2568,2.3055,2.3765,2.4708,2.4743,2.4743,2.4731,2.4014,2.3352,2.2855,2.1546,2.0183,1.8805,1.8187,0.0,0.0,0.0,0.0,0.0,0.0,0.0,0.0,0.0,0.0,0.0,0.0,0.0,0.0,0.0,0.0,0.0,0.0,0.0,0.0,1.8945,0.0,0.0,0.0,0.0,0.0,0.0,0.0,0.0,0.0,0.0,2.5695,2.7,2.8373,2.9442,0.0,0.0,0.0,0.0,3.0535,3.1021,3.0689,3.0254,3.0075,2.9871,2.9742,2.9742,0.0,0.0,3.0501,3.0116,2.9844,3.0142,3.0055,2.9311,2.6632,2.5752,2.5392,2.5337,2.4883,2.4508,2.4328,2.4248,2.4158,3.1446,0.0,0.0,0.0,0.0,2.8438,2.8712,2.8904,2.8559,2.8173,2.7795,2.6591,0.0,0.0,0.0,0.0,0.0,0.0,2.7546,2.8256,2.9489,3.0266,3.0579,3.0994,3.1158,3.1105,2.999,2.9462,2.9321,2.6924,2.4771,2.2891,0.0,0.0,0.0,0.0,2.2664,2.406,2.4275,2.4813,2.5732,2.5849,2.5896,2.5791,2.5401,2.4969,2.4471,2.3727,2.2746,2.1428,2.01,0.0,0.0,0.0,0.0,0.0,0.0,0.0,0.0,0.0,0.0,0.0,0.0,0.0,0.0,0.0,0.0,0.0,0.0,0.0,1.9544,2.014,2.0614,0.0,0.0,0.0,0.0,0.0,0.0,0.0,0.0,0.0,2.8655,2.9502,3.0379,0.0,0.0,3.1511,3.1646,3.1415,3.1264,3.1435,3.1191,0.0,0.0,3.0759,3.0621,3.0634,3.0791,3.1032,3.1356,3.0861,3.0495,3.0618,3.0317,2.9742,2.8869,2.8184,2.7637,2.711,2.6472,2.5973,2.5932,2.5768,2.5604,3.4677,3.265,3.1226,3.0522,3.0441,3.0829,3.1102,3.1252,3.0893,3.0606,3.033,2.9075,2.8611,2.8701,2.8249,0.0,0.0,0.0,2.9845,3.0373,3.1437,3.2055,3.2305,3.256,3.253,3.2282,3.1295,3.0683,3.0421,2.9022,2.7414,2.5565,0.0,0.0,2.3498,2.3293,2.3705,2.479,2.4854,2.5224,2.597,2.6257,2.6451,2.6508,2.6324,2.6058,2.5735,2.5166,2.4337,2.3219,2.1997,2.0751,0.0,0.0,0.0,0.0,0.0,0.0,0.0,0.0,0.0,0.0,0.0,1.7556,1.7586,0.0,0.0,0.0,1.908,2.016,2.1123,2.1616,0.0,0.0,0.0,0.0,0.0,0.0,0.0,2.6619,2.8349,2.9758,3.0413,3.1247,3.1913,3.2187,3.2228,3.2241,3.2228,0.0,3.2059,3.2023,3.1863,3.1703,3.168,3.1508,3.1402,3.1551,3.1549,3.1641,3.1921,3.1558,3.1195,3.1001,3.0729,3.0467,3.0229,2.9696,2.8967,2.8233,2.7481,2.6921,2.6839,2.6644,2.6448,3.7104,3.6844,3.4172,3.2758,3.2342,3.3056,3.3206,3.304,3.304,3.2887,3.2478,3.1223,3.0693,3.0772,3.0532,0.0,3.124,3.1269,3.1897,3.2935,3.3025,3.3307,3.3851,3.3722,3.3306,3.2647,3.1857,3.1199,3.058,2.996,2.9386,2.881,2.6777,2.5603,2.5273,2.4686,2.4582,2.497,2.4983,2.5227,2.5741,2.6161,2.6575,2.6925,2.6769,2.6642,2.6676,2.6,2.5228,2.4333,2.3777,2.2575,2.063,0.0,0.0,0.0,0.0,0.0,0.0,0.0,0.0,0.0,0.0,0.0,0.0,0.0,0.0,0.0,2.1006,0.0,2.2619,2.322,0.0,0.0,0.0,2.5048,2.584,2.6441,2.7266,2.8412,0.0,0.0,3.1168,3.2277,3.2932,3.281,3.2775,3.2739,3.2739,3.2704,3.269,3.2654,3.2525,3.2395,3.2241,3.2059,3.2001,3.2244,3.2243,3.2174,3.224,3.2117,3.1837,3.1405,3.1298,3.1142,3.095,3.0272,2.9666,2.8827,2.8041,2.7482,2.7307,2.7074,2.685,3.8157,3.7735,3.656,3.5536,3.4753,3.4551,3.4401,3.4282,3.4268,3.4148,3.3888,3.3091,3.2601,3.2268,3.2313,3.2359,3.2424,3.2873,3.3169,3.3372,3.3816,3.4119,3.4249,3.423,3.385,3.3215,3.2547,3.1913,3.1262,3.0674,3.0284,3.0068,2.8684,2.7328,2.6121,2.5462,2.532,2.5638,2.5681,2.5875,2.6298,2.6427,2.6467,2.6469,2.6425,2.6393,2.6393,2.623,2.5822,2.5112,2.4518,2.3574,2.2273,2.1153,0.0,0.0,0.0,0.0,0.0,0.0,0.0,0.0,0.0,2.016,2.0114,0.0,2.0792,0.0,2.1664,2.2843,2.3911,2.4252,0.0,0.0,2.5985,2.6527,2.7555,2.821,2.8693,2.8991,3.0083,3.1045,3.1748,3.2454,3.3121,3.352,3.3213,3.2917,3.2917,3.281,3.269,3.269,3.2668,3.2632,3.2574,3.2431,3.2268,3.2235,3.2441,3.2475,3.2186,3.2109,3.1941,3.1525,3.1086,3.0739,3.0416,3.016,2.9889,2.929,2.8598,2.8007,2.7978,2.7522,2.7115,3.8773,3.8466,3.76,3.6902,3.6335,3.55,3.5129,3.503,3.4964,3.4865,3.4735,3.4416,3.4115,3.3888,3.4051,3.4065,3.4031,3.4339,3.4502,3.4502,3.4824,3.5019,3.5085,3.4723,3.4186,3.3522,3.281,3.2147,3.1514,3.1176,3.0822,3.0456,2.9458,2.8346,2.7073,2.6215,2.5855,2.6007,2.5978,2.6154,2.6467,2.6494,2.6511,2.6556,2.657,2.6539,2.6465,2.6478,2.624,2.5751,2.5401,2.4636,2.3321,2.2444,2.1654,0.0,0.0,0.0,0.0,0.0,0.0,0.0,0.0,0.0,0.0,0.0,2.3047,2.2915,2.3739,2.4577,2.5267,2.5666,2.6276,2.7188,2.7579,2.8148,2.8999,2.9595,2.9867,2.9822,3.0656,3.1343,3.1749,3.2554,3.3274,3.3648,3.3634,3.3563,3.3437,3.3283,3.3213,3.3213,3.3157,3.3037,3.2881,3.2668,3.2538,3.2458,3.2486,3.2482,3.2198,3.2062,3.1912,3.1583,3.1322,3.0999,3.0571,3.0495,3.033,2.9934,2.9431,2.8961,2.8526,2.8035,2.7632,3.9126,3.9022,3.7888,3.7404,3.7315,3.6058,3.5489,3.5504,3.5326,3.5213,3.5246,3.5228,3.5228,3.5246,3.5439,3.5489,3.5489,3.5522,3.5604,3.5688,3.5735,3.5785,3.5821,3.5105,3.4347,3.3608,3.2916,3.2241,3.161,3.161,3.1179,3.0425,2.9712,2.8922,2.8018,2.6987,2.6392,2.6192,2.6192,2.6284,2.6497,2.6483,2.659,2.6795,2.6777,2.6717,2.6628,2.6628,2.6456,2.6124,2.6226,2.5633,2.4159,2.3791,2.3165,0.0,2.1643,0.0,0.0,0.0,0.0,0.0,0.0,0.0,0.0,2.4961,2.5521,2.5696,2.6195,2.6529,2.6594,2.7135,2.7776,2.8517,2.9056,2.9597,3.0214,3.066,3.0851,3.0717,3.1183,3.1502,3.1707,3.264,3.3278,3.3441,3.3947,3.4211,3.4027,3.3948,3.3917,3.3951,3.3793,3.3521,3.3213,3.2966,3.281,3.2775,3.266,3.2417,3.2305,3.2123,3.194,3.177,3.1659,3.1522,3.1149,3.1061,3.0936,3.0596,3.0253,2.9833,2.916,2.8548,2.8243,3.9352,3.9218,3.7923,3.7404,3.73,3.6043,3.5489,3.5504,3.5472,3.5439,3.5439,3.5439,3.5424,3.5439,3.5472,3.5489,3.5504,3.5621,3.5655,3.572,3.5863,3.5685,3.5215,3.5016,3.4364,3.3342,3.3145,3.2776,3.2216,3.2135,3.1701,3.1019,3.0258,2.9475,2.864,0.0,0.0,0.0,2.6604,2.6541,2.6496,2.6388,2.6363,2.6422,2.6189,0.0,2.6217,2.6217,2.6188,2.6103,2.6212,0.0,0.0,0.0,0.0,0.0,0.0,0.0,0.0,0.0,0.0,0.0,2.6214,2.6314,2.5826,2.6016,2.6382,2.6839,2.6983,2.7239,2.7663,2.7805,2.8364,2.9512,2.9674,3.0078,3.1221,3.1391,3.1364,3.1335,3.1425,3.1723,3.2213,3.2541,3.2882,3.3326,3.3981,3.4335,3.43,3.4313,3.4312,3.4278,3.4113,3.3922,3.3744,3.3556,3.329,3.3241,3.3037,3.281,3.2632,3.2561,3.2431,3.2132,3.2109,3.1963,3.1559,3.1485,3.1371,3.1161,3.0705,3.024,2.9923,2.9006,2.8287,3.9388,0.0,3.7958,3.7404,0.0,3.6043,3.5489,3.5489,3.5489,3.5569,3.5604,3.5589,3.5668,3.5733,3.5748,3.5733,3.5748,3.5814,3.5926,3.607,3.5828,3.5615,3.543,3.4799,3.415,3.3558,3.3259,3.2989,3.2664,3.2648,3.2056,3.0878,3.0503,2.9699,2.8505,2.8032,2.7524,2.6959,2.6997,2.6985,2.6841,2.6774,2.6709,2.6659,0.0,0.0,0.0,0.0,0.0,0.0,0.0,0.0,0.0,0.0,0.0,2.5986,2.6168,2.6325,2.6385,2.6694,2.6963,2.7136,2.7805,2.8031,2.7504,2.7535,2.7667,2.7874,2.7896,2.7963,2.8155,2.8192,2.8727,2.9994,3.011,3.0548,3.1678,3.1866,3.1824,3.1768,3.1739,3.189,3.2206,3.2568,3.2854,3.3186,3.3743,3.4164,3.4208,3.4542,3.4783,3.4654,3.418,3.4018,3.4192,3.3738,3.3491,3.3581,3.3472,3.3227,3.3051,3.2931,3.2775,3.2503,3.2444,3.2336,3.1973,3.1675,3.1387,3.1053,3.0519,3.0121,2.9926,2.9157,2.8474,3.9424,3.9269,3.8078,3.7509,3.7315,3.6163,3.5624,3.5554,0.0,0.0,0.0,3.5752,3.5831,3.602,3.602,3.602,3.602,3.6068,3.6241,3.6492,3.5844,3.5608,3.5673,3.4516,3.3947,3.3791,3.3363,3.3123,3.3058,3.3123,3.2337,3.0881,3.0705,2.9896,2.8385,2.8177,2.788,2.7437,2.7478,2.7452,2.7361,2.731,2.7258,2.7185,2.7258,2.7229,2.7122,2.7251,2.7363,2.746,2.761,2.7548,2.7202,2.7473,2.7434,2.6996,2.7127,2.728,2.7415,2.7841,2.8171,2.8313,2.8828,2.9068,2.8873,2.8865,2.8803,2.8668,2.866,2.8573,2.846,2.8411,2.8889,3.0079,3.0217,3.0672,3.1833,3.2078,3.201,3.2064,3.2066,3.2066,3.2112,3.2538,3.2888,3.2964,3.3406,3.3848,3.4016,3.4478,3.4803,3.4564,3.405,3.3847,3.4149,3.3714,3.3353,3.3629,3.3536,3.3334,3.3127,3.294,3.2737,3.2486,3.2513,3.2274,3.2039,3.1542,3.1102,3.0757,3.0204,2.9768,2.9686,2.9105,2.8569,3.9553,3.9313,3.8586,3.7928,3.7345,3.6656,3.6097,3.5686,3.5671,3.5767,3.5973,3.5973,3.5973,3.602,3.602,3.602,3.6037,3.6289,3.646,0.0,3.6145,3.5696,3.5174,3.4533,3.4009,3.3572,3.3472,3.3503,3.3581,3.3477,3.271,3.144,3.1158,3.0293,2.8746,2.8534,2.8444,2.8226,2.8005,2.7905,2.788,2.7765,2.7781,2.7871,2.7765,2.779,2.786,2.8012,2.8143,2.8167,2.8424,2.8544,2.86,2.884,2.903,2.907,2.9198,2.9303,2.9287,2.9288,2.9268,2.9307,2.928,2.9213,2.9068,2.9068,2.9006,2.8873,2.8811,2.8708,2.8589,2.8468,2.8735,2.9417,2.9566,3.0089,3.1355,3.1582,3.1755,3.2219,3.2342,3.2342,3.2358,3.2465,3.2542,3.2604,3.3038,3.3621,3.3934,3.4121,3.4046,3.3892,3.3678,3.3524,3.3532,3.3225,3.302,3.2876,3.2861,3.2739,3.2542,3.2345,3.2151,3.1905,3.1836,3.1593,3.1376,3.1102,3.0877,3.0617,3.0099,2.9685,2.9557,2.8926,2.8412,3.9574,3.932,3.8676,3.8212,3.7868,3.6982,3.6449,3.6147,3.6116,3.6179,3.6258,3.6352,3.6445,3.6554,3.6554,3.6523,3.6554,3.6693,3.6862,3.6936,3.6472,3.6014,3.5443,3.4843,3.424,3.3664,3.3668,3.371,3.3694,3.3694,3.3166,3.21,3.1229,3.018,2.9076,2.8912,2.8818,2.8763,2.8405,2.8217,2.8201,2.8152,2.8168,2.8201,2.8259,2.8317,2.8374,2.8669,2.8881,2.8943,2.9104,2.9257,2.9371,2.9582,2.971,2.9776,2.9902,2.9989,2.9968,2.9836,2.9726,2.963,2.9547,2.9457,2.9321,2.9183,2.9052,2.8904,2.8889,2.8811,2.8708,2.8652,2.8867,2.9565,2.9627,3.003,3.0913,3.1409,3.1719,3.2044,3.2416,3.2676,3.2676,3.2648,3.2621,3.2582,3.2777,3.2985,3.322,3.3165,3.3281,3.3683,3.3397,3.3231,3.335,3.2942,3.2743,3.2901,3.2847,3.2689,3.2515,3.2323,3.2163,3.2015,3.1805,3.1608,3.1415,3.0983,3.0665,3.0389,2.9843,2.9421,2.9219,2.8634,2.8061,3.9574,3.9328,3.8841,3.8562,3.8377,3.7337,3.6816,3.6722,3.6677,3.6631,3.6662,3.6754,3.6877,3.6969,3.6999,3.6999,3.7015,3.706,3.721,3.7324,3.6825,3.6298,3.5833,3.5209,3.4513,3.3928,3.3949,3.3949,3.3899,3.3975,3.3645,3.2772,3.1462,3.0391,2.9726,2.9566,2.9411,2.9222,2.8873,2.8612,2.8565,2.8565,2.8549,2.8589,2.8771,2.8873,2.8897,2.9243,2.9531,2.9649,2.9722,2.9832,2.9962,3.0087,3.0162,3.0167,3.0253,3.0312,3.0248,3.0146,3.0011,2.983,2.9808,2.972,2.9608,2.9396,2.919,2.9059,2.9036,2.8959,2.8897,2.8826,2.9021,2.9512,2.9566,2.9831,3.0476,3.1031,3.1498,3.1748,3.2293,3.2667,3.285,3.2912,3.2827,3.2676,3.2551,3.2453,3.2453,3.2425,3.2778,3.3159,3.2956,3.2718,3.3185,3.2617,3.2303,3.2778,3.2671,3.2444,3.2289,3.2253,3.2125,3.1881,3.172,3.1503,3.1404,3.0945,3.0425,3.0135,2.9686,2.9243,2.8941,2.8467,2.7799,3.9574,3.9409,3.932,3.9067,3.8601,3.7798,3.746,3.7371,3.7233,3.7134,3.7119,3.7014,3.6999,3.6999,3.6999,3.703,3.7076,3.7254,3.7387,3.7397,3.7153,3.666,3.5996,3.5437,3.4839,3.4291,3.425,3.43,3.4358,3.4382,3.4064,3.3321,3.2333,3.154,3.0953,3.0739,3.0335,2.9669,2.948,2.9275,2.9029,2.9029,2.9045,2.9029,2.9289,2.9425,2.9441,2.9754,2.9995,3.0141,3.0253,3.0359,3.0426,3.0568,3.063,3.063,3.063,3.0568,3.0417,3.0375,3.0312,3.0146,3.0055,2.9968,2.993,2.9826,2.9633,2.948,2.9328,2.9213,2.9075,2.8982,2.8959,2.9022,2.8998,2.9169,2.9777,2.994,3.0438,3.167,3.192,3.2148,3.2748,3.292,3.2924,3.2897,3.273,3.2605,3.2551,3.248,3.2441,3.253,3.2272,3.2163,3.2228,3.1864,3.1721,3.1736,3.1603,3.159,3.1605,3.1486,3.1234,3.1468,3.1172,3.102,3.0841,3.0502,3.0287,3.0052,2.9758,2.9439,2.8731,2.8224,2.7821,3.9589,3.9409,3.9532,3.941,3.9123,3.8808,3.8409,3.7966,3.7871,3.7679,3.7391,3.7405,3.7421,3.7405,3.7421,3.748,3.7524,3.7671,3.7772,3.7873,3.7801,3.7189,3.6212,3.5969,3.5328,3.4381,3.43,3.4358,3.4472,3.4497,3.412,3.3465,3.2994,3.2497,3.189,3.1789,3.1574,3.1313,3.1252,3.1144,3.0955,2.9987,2.9457,2.948,2.9687,2.9798,2.9826,3.0124,3.0338,3.038,3.0584,3.0729,3.0733,3.0773,3.0831,3.0831,3.0814,3.0773,3.0708,3.0692,3.0605,3.0401,3.0338,3.0253,3.0124,3.0065,2.9979,2.9908,2.9681,2.9502,2.9457,2.9328,2.9236,2.9238,2.9215,2.9326,2.9579,2.9975,3.0481,3.1035,3.1779,3.2364,3.2713,3.304,3.3198,3.315,3.2989,3.2839,3.2648,3.2551,3.248,3.2398,3.2163,3.2025,3.1968,3.1712,3.1524,3.1511,3.1467,3.1409,3.1409,3.1336,3.122,3.1234,3.1102,3.0984,3.0998,3.0732,3.0507,3.0238,2.9652,2.9231,2.8764,2.7996,2.7355,3.9589,3.9553,3.9803,3.9852,3.9785,3.9704,3.9288,3.8607,3.8418,3.8053,3.7541,3.7642,3.773,3.7759,3.7759,3.7817,3.7889,3.7963,3.8049,3.8209,3.8221,3.7648,3.6616,3.6367,3.5717,3.4765,3.4447,3.4448,3.4594,3.457,3.4291,3.3855,3.3766,3.3421,3.2843,3.2754,3.2633,3.2436,3.2407,3.2407,3.2213,3.115,3.0366,3.0182,3.0304,3.0337,3.0146,3.0422,3.0589,3.0634,3.0797,3.0935,3.0992,3.0972,3.0972,3.0992,3.0972,3.0972,3.0932,3.0932,3.0834,3.0651,3.0609,3.0547,3.0422,3.0401,3.038,3.038,3.0141,2.9946,2.977,2.9681,2.9637,2.9592,2.9592,2.9592,2.9618,3.0073,3.0355,3.0644,3.1454,3.2328,3.2713,3.3246,3.3617,3.3477,3.3361,3.315,3.2866,3.2784,3.2687,3.2496,3.2262,3.2109,3.1996,3.1741,3.1524,3.1496,3.1496,3.1597,3.1597,3.1511,3.1496,3.1597,3.1395,3.1249,3.1205,3.1043,3.0881,3.0585,2.9956,2.9171,2.8825,2.7769,2.6962,3.9532,3.9768,4.0246,4.0424,4.0451,4.0337,3.9878,3.9188,3.8731,3.8144,3.7603,3.7687,3.7788,3.7905,3.7905,3.7889,3.7934,3.8107,3.8193,3.8237,3.8307,3.7975,3.7231,3.6627,3.6013,3.538,3.4751,3.4594,3.4851,3.4739,3.4763,3.4769,3.4624,3.4294,3.3809,3.3601,3.3208,3.2724,3.2623,3.2489,3.2479,3.2432,3.2015,3.1368,3.1347,3.1077,3.0584,3.0609,3.0773,3.0975,3.0995,3.1035,3.1171,3.1171,3.1171,3.1171,3.1171,3.1131,3.1015,3.0995,3.0972,3.0892,3.0834,3.0871,3.081,3.081,3.081,3.0851,3.0688,3.0443,3.0103,2.9995,2.9935,2.9832,2.981,2.981,2.9793,2.9891,3.0176,3.0671,3.1075,3.1787,3.2846,3.3622,3.3935,3.3873,3.3745,3.3555,3.3293,3.315,3.2962,3.2676,3.2453,3.2287,3.2038,3.1798,3.1582,3.1582,3.1712,3.1799,3.1813,3.1855,3.1912,3.1912,3.1769,3.1626,3.1509,3.135,3.1205,3.0793,3.0075,2.9421,2.8929,2.7966,2.7141,3.9839,4.0226,4.042,4.0696,4.1005,4.0957,4.0383,3.944,3.9375,3.8675,3.7798,3.7921,3.8049,3.8078,3.8078,3.8135,3.8221,3.8307,3.8307,3.8351,3.8363,3.8019,3.7263,3.6627,3.6019,3.5435,3.4808,3.4643,3.4875,3.4851,3.4851,3.4899,3.4851,3.4703,3.4535,3.4438,3.4266,3.4067,3.4027,3.4004,3.3971,3.4034,3.367,3.2914,3.2116,3.1352,3.0647,3.0777,3.0915,3.1012,3.1092,3.1134,3.119,3.119,3.119,3.119,3.119,3.1171,3.1131,3.1131,3.1092,3.0992,3.0955,3.0952,3.0912,3.0912,3.0912,3.0892,3.0855,3.0712,3.0609,3.0422,3.03,3.0241,3.0258,3.0236,3.0194,3.0172,3.0282,3.0555,3.1202,3.2245,3.3028,3.3893,3.4284,3.4176,3.4025,3.3848,3.3591,3.3372,3.3176,3.292,3.2633,3.2355,3.2287,3.2038,3.1855,3.1855,3.1883,3.1955,3.1968,3.1996,3.2053,3.2053,3.1968,3.1855,3.1682,3.1452,3.1322,3.1086,3.0308,2.943,2.899,2.7995,2.7182,4.0176,4.0489,4.0696,4.0953,4.129,4.1439,4.0766,3.9691,3.9768,3.9065,3.7993,3.8094,3.818,3.8107,3.818,3.8193,3.8221,3.825,3.8221,3.825,3.8307,3.8064,3.7575,3.6939,3.6307,3.5668,3.4914,3.4683,3.4859,3.4899,3.4899,3.4899,3.4899,3.4899,3.4899,3.4899,3.4899,3.4899,3.4899,3.4883,3.4899,3.4899,3.4551,3.3812,3.3001,3.21,3.1187,3.1049,3.1015,3.1072,3.1151,3.119,3.119,3.119,3.119,3.119,3.119,3.119,3.119,3.119,3.1171,3.1075,3.1072,3.1052,3.1009,3.0975,3.0992,3.0992,3.0992,3.0992,3.0972,3.0834,3.0712,3.0651,3.063,3.0609,3.0547,3.0564,3.0506,3.0625,3.1462,3.2452,3.3222,3.39,3.4306,3.4448,3.4374,3.4176,3.3873,3.3668,3.3424,3.3203,3.2904,3.2715,3.2605,3.2413,3.2104,3.2076,3.215,3.215,3.2193,3.2221,3.2221,3.2193,3.2109,3.1996,3.1826,3.1553,3.1408,3.1261,3.0373,2.9345,2.8714,2.7959,2.7287,4.0489,4.0627,4.1055,4.1274,4.1357,4.1686,4.1071,3.9927,3.9952,3.9214,3.803,3.8107,3.8107,3.7976,3.8123,3.8078,3.7963,3.7905,3.7934,3.7963,3.8107,3.8177,3.8092,3.7466,3.6864,3.6277,3.5251,3.4822,3.4975,3.4908,3.4899,3.4899,3.4899,3.4899,3.4899,3.4899,3.4899,3.4899,3.4899,3.4899,3.4899,3.4899,3.4584,3.3978,3.3968,3.3361,3.2043,3.1409,3.1122,3.1171,3.119,3.119,3.119,3.119,3.119,3.119,3.119,3.119,3.119,3.119,3.119,3.1171,3.119,3.1171,3.1151,3.1151,3.1151,3.1168,3.1171,3.1171,3.1171,3.1151,3.1072,3.0932,3.0875,3.0892,3.0871,3.0875,3.0892,3.0968,3.1579,3.2273,3.3004,3.3689,3.4257,3.4686,3.4715,3.4521,3.4168,3.3953,3.3758,3.3423,3.2898,3.2562,3.2696,3.2823,3.2516,3.2278,3.2382,3.2456,3.2539,3.2566,3.2554,3.2527,3.2345,3.2206,3.1912,3.1668,3.1539,3.1258,3.0188,2.9419,2.8904,2.832,2.7509,4.0851,4.1055,4.1223,4.139,4.1522,4.1784,4.1103,3.9878,4.0076,3.9425,3.8312,3.8278,3.825,3.8107,3.8049,3.7905,3.7759,3.7671,3.773,3.7876,3.7963,3.8049,3.8035,3.7496,3.6896,3.6348,3.5582,3.53,3.5374,3.5027,3.4828,3.4899,3.4899,3.4899,3.4899,3.4899,3.4899,3.4899,3.4899,3.4899,3.4899,3.4899,3.4783,3.4558,3.4334,3.3695,3.2746,3.216,3.1675,3.1224,3.119,3.119,3.119,3.119,3.119,3.119,3.119,3.119,3.119,3.119,3.119,3.119,3.119,3.119,3.119,3.119,3.119,3.119,3.119,3.119,3.119,3.119,3.1171,3.1112,3.1095,3.1052,3.0992,3.0932,3.0912,3.1012,3.1545,3.2261,3.2998,3.3668,3.4307,3.4891,3.4906,3.4739,3.4464,3.3836,3.3347,3.3092,3.262,3.2178,3.2193,3.22,3.2071,3.2153,3.2422,3.2562,3.2678,3.292,3.2893,3.2757,3.2578,3.2302,3.201,3.1798,3.167,3.1225,3.0406,2.9841,2.9465,2.8717,2.7813,4.1122,4.1323,4.139,4.1474,4.1621,4.1882,4.1151,4.005,4.0212,3.9573,3.8488,3.8351,3.8278,3.8107,3.7963,3.7788,3.7642,3.7524,3.7583,3.7759,3.7817,3.7905,3.7924,3.7396,3.7046,3.6728,3.6082,3.5738,3.5703,3.5309,3.502,3.4861,3.4875,3.4899,3.4899,3.4899,3.4899,3.4899,3.4899,3.4899,3.4899,3.4899,3.4899,3.488,3.4701,3.408,3.3131,3.2807,3.2259,3.141,3.119,3.119,3.119,3.119,3.119,3.119,3.119,3.119,3.119,3.119,3.119,3.119,3.119,3.119,3.119,3.119,3.119,3.119,3.119,3.119,3.119,3.119,3.119,3.119,3.119,3.1151,3.1075,3.1032,3.1012,3.1113,3.1433,3.2135,3.3043,3.3482,3.422,3.4875,3.5065,3.47,3.4352,3.3687,3.3233,3.2748,3.2257,3.1886,3.158,3.1522,3.1545,3.1928,3.2388,3.2536,3.2672,3.3093,3.3266,3.2973,3.2769,3.2398,3.2079,3.1883,3.1697,3.1086,3.0627,3.009,2.9597,2.8808,2.8047,4.1323,4.1357,4.1507,4.1588,4.1654,4.1964,4.1326,4.0223,4.0303,3.9664,3.8642,3.8355,3.8164,3.7934,3.7876,3.7714,3.7539,3.751,3.751,3.7569,3.7628,3.77,3.7693,3.7439,3.7402,3.7356,3.6777,3.6232,3.5971,3.5817,3.5473,3.4922,3.4985,3.4932,3.4892,3.4899,3.4899,3.4899,3.4899,3.4899,3.4899,3.4899,3.4899,3.4923,3.5068,3.4521,3.3249,3.2959,3.2459,3.1393,3.119,3.119,3.119,3.119,3.119,3.119,3.119,3.119,3.119,3.119,3.119,3.119,3.119,3.119,3.119,3.119,3.119,3.119,3.119,3.119,3.119,3.119,3.119,3.119,3.119,3.119,3.119,3.119,3.1151,3.1188,3.1275,3.1782,3.3195,3.338,3.4101,3.4895,3.5182,3.4735,3.4001,3.3475,3.299,3.2418,3.1783,3.1352,3.0987,3.1309,3.1326,3.159,3.2226,3.2758,3.2892,3.329,3.345,3.3187,3.292,3.2508,3.2191,3.1996,3.1756,3.1374,3.0881,3.0313,2.9729,2.9074,2.8659,4.1522,4.1522,4.1573,4.1588,4.1621,4.185,4.1422,4.061,4.0252,3.97,3.8852,3.8274,3.7966,3.7743,3.7759,3.7642,3.7539,3.751,3.751,3.751,3.7524,3.7612,3.7759,3.786,3.7931,3.7903,3.7371,3.7059,3.6949,3.648,3.5953,3.5407,3.5498,3.5308,3.4862,3.4918,3.4899,3.4899,3.4899,3.4899,3.4899,3.4899,3.4899,3.4906,3.5158,3.4498,3.3081,3.2201,3.1664,3.1275,3.119,3.119,3.119,3.119,3.119,3.119,3.119,3.119,3.119,3.119,3.119,3.119,3.119,3.119,3.119,3.119,3.119,3.119,3.119,3.119,3.119,3.119,3.119,3.119,3.119,3.119,3.119,3.119,3.119,3.1224,3.1681,3.2408,3.3178,3.3832,3.4408,3.5121,3.5241,3.4841,3.3941,3.3201,3.2662,3.1802,3.1166,3.0739,3.0563,3.0956,3.1195,3.1336,3.2064,3.3164,3.3313,3.3563,3.3529,3.3293,3.3096,3.2757,3.2358,3.2038,3.1811,3.1568,3.1076,3.0507,3.0238,2.9732,2.9445,4.1588,4.1588,4.1588,4.1588,4.1621,4.1817,4.1468,4.0865,4.056,3.9886,3.907,3.8544,3.8118,3.7716,3.77,3.7628,3.751,3.751,3.751,3.751,3.751,3.7599,3.773,3.7963,3.8123,3.8177,3.7886,3.7626,3.7384,3.7021,3.6558,3.6091,3.6138,3.6042,3.5721,3.5406,3.5363,3.5313,3.5098,3.4899,3.4899,3.4899,3.4899,3.4947,3.5125,3.4594,3.3244,3.2212,3.1565,3.1292,3.119,3.119,3.119,3.119,3.119,3.119,3.119,3.119,3.119,3.119,3.119,3.119,3.119,3.119,3.119,3.119,3.119,3.119,3.119,3.119,3.119,3.119,3.119,3.119,3.119,3.119,3.119,3.1151,3.13,3.1567,3.1952,3.2622,3.3561,3.4134,3.4639,3.5103,3.5245,3.4518,3.3605,3.2939,3.2205,3.1319,3.1095,3.0964,3.1034,3.1414,3.199,3.205,3.2441,3.3508,3.3634,3.3797,3.3658,3.3477,3.3256,3.2962,3.2511,3.2107,3.184,3.1534,3.1117,3.0821,3.0537,3.0402,3.0103,4.1571,4.1555,4.1555,4.1588,4.1621,4.1784,4.15,4.1008,4.0928,4.0241,3.9235,3.8978,3.8348,3.7687,3.7658,3.7628,3.751,3.751,3.751,3.751,3.751,3.7553,3.7716,3.7876,3.7992,3.8135,3.8307,3.8035,3.7674,3.7578,3.7183,3.6753,3.68,3.6863,3.6585,3.6299,3.6108,3.5827,3.5396,3.5048,3.4949,3.4899,3.4899,3.493,3.4935,3.4634,3.3625,3.2713,3.1989,3.1343,3.1241,3.119,3.119,3.119,3.119,3.119,3.119,3.119,3.119,3.119,3.119,3.119,3.119,3.119,3.119,3.119,3.119,3.119,3.1258,3.1461,3.163,3.1512,3.1596,3.1681,3.1562,3.1441,3.1371,3.124,3.1362,3.2013,3.2085,3.2931,3.3695,3.4331,3.4543,3.5124,3.5098,3.4428,3.3594,3.289,3.1924,3.0802,3.094,3.1429,3.167,3.198,3.2635,3.3095,3.3405,3.3964,3.3889,3.3924,3.3822,3.3658,3.3335,3.2973,3.2551,3.2219,3.1896,3.1682,3.1372,3.1061,3.0808,3.0821,3.0642,4.1239,4.1357,4.1341,4.1456,4.1588,4.1621,4.1575,4.1385,4.0895,4.0167,3.939,3.8836,3.8203,3.7524,3.7539,3.7524,3.748,3.751,3.751,3.751,3.751,3.7599,3.7716,3.7847,3.7918,3.8049,3.8278,3.8294,3.8149,3.8047,3.782,3.7259,3.7355,3.7285,3.6878,3.6934,3.6539,3.6108,3.581,3.5413,3.4965,3.4899,3.4923,3.4897,3.4668,3.4443,3.4057,3.3004,3.2259,3.1972,3.1579,3.136,3.1224,3.119,3.119,3.119,3.119,3.119,3.119,3.119,3.119,3.119,3.119,3.119,3.119,3.119,3.119,3.1309,3.1718,3.2171,3.2645,3.2865,3.276,3.2709,3.2681,3.2652,3.2631,3.2206,3.1993,3.2253,3.2993,3.3846,3.4175,3.4704,3.4971,3.5188,3.4875,3.4355,3.3611,3.2829,3.1802,3.0695,3.1257,3.1792,3.2039,3.2514,3.3277,3.3664,3.3974,3.4109,3.405,3.3949,3.3822,3.3607,3.3346,3.2958,3.2563,3.2247,3.194,3.1769,3.1641,3.1417,3.1224,3.1239,3.1152,4.1135,4.1221,4.1221,4.1272,4.1339,4.1339,4.1372,4.1229,4.0649,3.9926,3.9219,3.8544,3.79,3.7287,3.7345,3.7359,3.7375,3.7464,3.751,3.751,3.7569,3.7642,3.7746,3.7921,3.8049,3.8078,3.8294,3.8408,3.8391,3.8375,3.8209,3.7968,3.8106,3.8111,3.7748,3.7678,3.7209,3.6589,3.6141,3.5628,3.5015,3.4899,3.4947,3.4977,3.4728,3.4594,3.4295,3.3727,3.3161,3.2814,3.2425,3.1867,3.1312,3.119,3.119,3.119,3.119,3.119,3.119,3.119,3.119,3.119,3.119,3.119,3.119,3.119,3.1393,3.1684,3.2107,3.2598,3.3288,3.3372,3.3385,3.3305,3.3258,3.3172,3.2971,3.2605,3.2534,3.2801,3.3371,3.3872,3.4336,3.4771,3.4887,3.4883,3.4913,3.4386,3.3366,3.2569,3.184,3.125,3.1763,3.2188,3.2425,3.2988,3.3882,3.4105,3.4104,3.4109,3.3975,3.3873,3.3761,3.3529,3.3309,3.2931,3.2563,3.229,3.2053,3.194,3.1798,3.1697,3.1638,3.1548,3.1447,4.0982,4.1016,4.1,4.1049,4.1083,4.1117,4.1024,4.0803,4.0304,3.954,3.8776,3.8169,3.7623,3.7108,3.7119,3.7164,3.7254,3.7405,3.751,3.751,3.7612,3.77,3.7788,3.802,3.8209,3.8237,3.8351,3.8391,3.8408,3.8436,3.8472,3.8567,3.8717,3.8706,3.8793,3.858,3.7897,3.7052,3.6522,3.576,3.5048,3.4923,3.4987,3.5048,3.5038,3.4871,3.4583,3.4241,3.396,3.3562,3.341,3.2668,3.1861,3.1376,3.1258,3.1241,3.119,3.119,3.119,3.119,3.119,3.119,3.119,3.119,3.119,3.1376,3.1718,3.2158,3.2598,3.3152,3.3626,3.3905,3.3811,3.3674,3.358,3.3295,3.3066,3.2954,3.3199,3.3403,3.3609,3.3948,3.4186,3.4513,3.4554,3.4594,3.461,3.427,3.3241,3.2536,3.1885,3.1603,3.2034,3.2978,3.333,3.3396,3.4307,3.4325,3.4259,3.4059,3.3899,3.3694,3.3581,3.345,3.3214,3.285,3.2578,3.233,3.215,3.2066,3.1968,3.1855,3.1798,3.1813,3.1698,4.0347,4.0608,4.0608,4.078,4.1083,4.1083,4.0658,4.006,3.9825,3.9015,3.7883,3.7777,3.7344,3.6925,3.6969,3.7105,3.7194,3.7375,3.748,3.7539,3.7642,3.7759,3.7876,3.8107,3.8266,3.8351,3.8391,3.8391,3.842,3.8504,3.8576,3.8644,3.8849,3.8969,3.9034,3.8976,3.8377,3.74,3.692,3.6208,3.5297,3.4956,3.4947,3.5065,3.5065,3.5058,3.495,3.4544,3.4175,3.403,3.3426,3.3041,3.2664,3.2356,3.1914,3.141,3.1207,3.119,3.119,3.119,3.119,3.119,3.119,3.1224,3.136,3.1752,3.2141,3.2666,3.3491,3.4387,3.5126,3.4958,3.506,3.4986,3.4664,3.4392,3.4197,3.3908,3.3543,3.3453,3.3681,3.3924,3.4053,3.4159,3.425,3.4374,3.4456,3.388,3.2863,3.2497,3.2249,3.2133,3.2199,3.3326,3.4369,3.431,3.4586,3.4399,3.4259,3.4025,3.3822,3.3529,3.3361,3.3214,3.3069,3.2827,3.2566,3.2358,3.2247,3.2178,3.2066,3.1968,3.1912,3.1883,3.1727,4.0117,4.0226,4.0316,4.0451,4.0459,4.0272,3.9881,3.9315,3.867,3.7945,3.733,3.6996,3.6705,3.6475,3.6616,3.6877,3.7164,3.7284,3.7405,3.7494,3.77,3.7817,3.7934,3.8164,3.8307,3.8363,3.8391,3.8391,3.8391,3.8532,3.8644,3.8738,3.8914,3.9067,3.9148,3.9195,3.8676,3.7798,3.7268,3.6605,3.5512,3.5131,3.4947,3.497,3.5018,3.5065,3.5091,3.4948,3.472,3.4682,3.4421,3.4013,3.3672,3.3345,3.2832,3.1904,3.1404,3.1207,3.119,3.119,3.119,3.119,3.1207,3.141,3.1718,3.2141,3.2666,3.3474,3.4252,3.5172,3.5464,3.5498,3.5423,3.5182,3.4947,3.4707,3.4399,3.4025,3.3632,3.3292,3.3482,3.3649,3.3723,3.3848,3.3949,3.4101,3.4275,3.3573,3.2594,3.2539,3.2552,3.2531,3.263,3.364,3.4594,3.4616,3.4618,3.4472,3.4226,3.3975,3.372,3.345,3.3134,3.292,3.2784,3.2691,3.2566,3.2342,3.233,3.2302,3.2247,3.2178,3.2066,3.194,3.1826,3.9849,3.9763,3.9888,3.9812,3.9545,3.9211,3.8845,3.8356,3.7461,3.6897,3.6637,3.623,3.6004,3.6037,3.6352,3.6708,3.7074,3.7104,3.727,3.7435,3.7626,3.7817,3.7934,3.8164,3.8335,3.8323,3.8408,3.8391,3.842,3.8532,3.8655,3.8777,3.8942,3.9094,3.9245,3.9299,3.8825,3.8245,3.7665,3.6936,3.6059,3.5313,3.4899,3.4899,3.4899,3.497,3.5024,3.4998,3.5005,3.5091,3.5048,3.4898,3.4436,3.4259,3.3688,3.2656,3.1854,3.1492,3.141,3.1207,3.119,3.119,3.1379,3.1752,3.2188,3.2679,3.3318,3.4479,3.5093,3.5436,3.5435,3.5423,3.5245,3.4994,3.4756,3.4472,3.4059,3.372,3.3408,3.3235,3.3303,3.333,3.3356,3.3477,3.3581,3.3771,3.3933,3.3713,3.2882,3.2909,3.2914,3.2889,3.3176,3.4038,3.4596,3.4601,3.457,3.4497,3.4151,3.3813,3.3581,3.3361,3.3027,3.2757,3.2605,3.2551,3.2453,3.2398,3.237,3.237,3.2398,3.233,3.2178,3.2066,3.1981,3.9223,3.8857,3.8892,3.8629,3.828,3.8211,3.7701,3.7035,3.6808,3.63,3.5829,3.5746,3.5752,3.5863,3.6258,3.6523,3.6677,3.6892,3.7075,3.727,3.7433,3.7596,3.7759,3.8065,3.8164,3.8209,3.8323,3.8408,3.8391,3.852,3.8672,3.8777,3.8914,3.9077,3.9228,3.9299,3.8907,3.8318,3.8112,3.7384,3.6141,3.5313,3.5032,3.4899,3.4899,3.4923,3.4947,3.4947,3.497,3.497,3.497,3.4897,3.4714,3.4276,3.4124,3.3605,3.2955,3.2175,3.2087,3.1708,3.1421,3.1556,3.183,3.2158,3.2671,3.3486,3.4336,3.5228,3.5412,3.5344,3.5314,3.5222,3.5081,3.4828,3.4521,3.4176,3.3797,3.3487,3.316,3.2931,3.2931,3.2947,3.2947,3.3096,3.3219,3.3424,3.3547,3.3335,3.3226,3.3179,3.3241,3.3218,3.3584,3.4435,3.4605,3.461,3.4497,3.4448,3.4101,3.3684,3.3424,3.3187,3.292,3.2676,3.2523,3.2468,3.2425,3.2398,3.2398,3.2398,3.2398,3.2358,3.2219,3.2178,3.2094,3.8142,3.7976,3.811,3.7978,3.7662,3.7401,3.7002,3.6583,3.6175,3.5824,3.5582,3.5554,3.5606,3.5767,3.599,3.6226,3.6445,3.6647,3.6877,3.7089,3.7284,3.7433,3.7581,3.786,3.802,3.802,3.8078,3.8107,3.8193,3.842,3.8644,3.8683,3.8876,3.9023,3.9148,3.9245,3.9106,3.8775,3.8361,3.7424,3.6324,3.5678,3.5313,3.4916,3.4916,3.4899,3.4899,3.4899,3.4899,3.4899,3.4899,3.4899,3.4873,3.4735,3.4645,3.4624,3.3896,3.3232,3.2824,3.2429,3.2206,3.2219,3.2538,3.2891,3.3429,3.4214,3.4924,3.5333,3.5337,3.5268,3.5175,3.5081,3.4811,3.457,3.43,3.3924,3.3555,3.3256,3.2962,3.273,3.2551,3.2621,3.2676,3.2757,3.2947,3.3176,3.3345,3.3285,3.3233,3.3295,3.3402,3.3535,3.4067,3.4759,3.469,3.4594,3.4399,3.4275,3.4025,3.3633,3.3293,3.3027,3.2812,3.2605,3.2496,3.2425,3.2398,3.2398,3.2398,3.2398,3.2398,3.2358,3.2302,3.2219,3.2135,3.6941,3.6956,3.7271,3.7241,3.6896,3.652,3.6325,3.6196,3.5729,3.5504,3.5489,3.5504,3.5587,3.5653,3.5735,3.5943,3.6274,3.6383,3.6616,3.6892,3.7089,3.7224,3.7344,3.7567,3.7714,3.7743,3.7727,3.7801,3.7963,3.8164,3.8363,3.8532,3.8699,3.886,3.8969,3.9067,3.9082,3.9086,3.8447,3.763,3.6762,3.6174,3.5711,3.5313,3.5032,3.4899,3.4899,3.4899,3.4899,3.4899,3.4899,3.4899,3.4906,3.4904,3.4965,3.4905,3.4418,3.4074,3.3606,3.3244,3.3071,3.3033,3.3239,3.3523,3.424,3.4925,3.5175,3.5175,3.5128,3.5065,3.4994,3.4899,3.4667,3.4349,3.4025,3.3658,3.3335,3.3043,3.2827,3.2605,3.2468,3.2468,3.2496,3.2508,3.2687,3.292,3.305,3.3165,3.3317,3.3477,3.3718,3.3943,3.4213,3.4739,3.4691,3.4546,3.4349,3.4126,3.3848,3.3581,3.3214,3.2973,3.2784,3.2605,3.2425,3.2398,3.2398,3.2398,3.2398,3.2398,3.2398,3.2398,3.237,3.2287,3.2277,3.5639,3.5684,3.633,3.6222,3.5714,3.5594,3.5579,3.5654,3.5549,3.5489,3.5489,3.5504,3.5504,3.5569,3.5653,3.572,3.5816,3.607,3.6336,3.6538,3.6693,3.6877,3.7059,3.7194,3.7268,3.7314,3.7403,3.7522,3.7655,3.77,3.802,3.8363,3.8403,3.86,3.875,3.886,3.8969,3.8908,3.843,3.8121,3.7456,3.6787,3.5984,3.576,3.528,3.4899,3.4899,3.4899,3.4899,3.4899,3.4899,3.4875,3.4875,3.4899,3.4947,3.488,3.4759,3.4495,3.43,3.3717,3.31,3.3084,3.341,3.3988,3.4591,3.4671,3.4804,3.4899,3.4851,3.4804,3.4756,3.4683,3.4448,3.4176,3.3848,3.3503,3.316,3.285,3.2633,3.2453,3.2398,3.2398,3.2398,3.2453,3.2508,3.2757,3.3123,3.3255,3.3643,3.3876,3.4178,3.4365,3.4382,3.4594,3.4659,3.4489,3.4226,3.4,3.3745,3.345,3.315,3.2935,3.2703,3.2578,3.2398,3.2398,3.2398,3.2398,3.2398,3.2398,3.2398,3.2398,3.2398,3.237,3.2419,3.5489,3.5519,3.5789,3.5744,3.5489,3.5489,3.5489,3.5489,3.5489,3.5489,3.5489,3.5489,3.5489,3.5522,3.5554,3.5606,3.572,3.5958,3.6148,3.6367,3.6554,3.6723,3.6846,3.6953,3.7059,3.7059,3.7119,3.715,3.7225,3.7285,3.7389,3.7669,3.7988,3.8319,3.85,3.8667,3.8805,3.8783,3.8592,3.8356,3.7719,3.7105,3.6331,3.582,3.5273,3.4949,3.4899,3.4899,3.4899,3.4899,3.4899,3.4851,3.4787,3.4804,3.478,3.4756,3.4618,3.4611,3.4618,3.4178,3.3914,3.3891,3.41,3.4323,3.4618,3.457,3.4594,3.4618,3.4594,3.4546,3.457,3.4423,3.4201,3.3949,3.3668,3.3346,3.3027,3.2715,3.2551,3.2425,3.2398,3.2398,3.2398,3.2425,3.248,3.2633,3.3,3.3361,3.3761,3.405,3.4275,3.444,3.4448,3.4423,3.4472,3.43,3.4101,3.3848,3.3633,3.3346,3.3043,3.2812,3.2605,3.248,3.2398,3.2398,3.2398,3.2398,3.2398,3.2398,3.2398,3.2398,3.2398,3.249,3.2736,3.5489,3.5489,3.5489,3.5489,3.5489,3.5489,3.5489,3.5489,3.5489,3.5489,3.5489,3.5489,3.5489,3.5489,3.5489,3.5539,3.5653,3.5814,3.5958,3.6116,3.6305,3.6461,3.6538,3.66,3.6631,3.6708,3.677,3.677,3.6862,3.6892,3.7029,3.7254,3.7551,3.786,3.8177,3.8403,3.8583,3.8655,3.8618,3.857,3.7986,3.7426,3.684,3.619,3.5596,3.51,3.4998,3.4899,3.4899,3.4899,3.4835,3.4787,3.4715,3.4643,3.457,3.4456,3.4382,3.4374,3.4349,3.4407,3.4407,3.4219,3.4194,3.4251,3.4275,3.4275,3.4226,3.4284,3.43,3.4325,3.4325,3.4151,3.3924,3.371,3.345,3.315,3.2893,3.2605,3.2523,3.2398,3.2398,3.2413,3.2398,3.2425,3.2551,3.266,3.2947,3.3309,3.3658,3.3949,3.4126,3.425,3.4325,3.43,3.4234,3.4109,3.3949,3.3658,3.3424,3.3187,3.292,3.2718,3.2566,3.2453,3.2398,3.2398,3.2441,3.2499,3.2456,3.2398,3.2548,3.278,3.2952,3.3121,3.3413,3.5489,3.5489,3.5489,3.5489,3.5489,3.5489,3.5489,3.5489,3.5489,3.5489,3.5489,3.5489,3.5489,3.5489,3.5489,3.5522,3.5539,3.5686,3.5752,3.5847,3.6022,3.6053,3.6068,3.6147,3.6226,3.61,3.6242,3.6445,3.6507,3.6677,3.6831,3.6923,3.7105,3.7345,3.77,3.786,3.8078,3.8351,3.8391,3.8451,3.8389,3.7866,3.7242,3.6779,3.6132,3.5597,3.5199,3.5107,3.5057,3.4851,3.4763,3.4691,3.4643,3.4505,3.4407,3.4284,3.4159,3.405,3.3949,3.4176,3.4201,3.4126,3.4075,3.3949,3.3797,3.3771,3.3848,3.3984,3.3975,3.3949,3.3924,3.3889,3.3658,3.3583,3.3376,3.3329,3.3087,3.303,3.3039,3.2782,3.2552,3.2428,3.2413,3.2453,3.2605,3.2757,3.2973,3.3266,3.3607,3.3797,3.4,3.4151,3.425,3.4176,3.4109,3.3984,3.3797,3.3477,3.3229,3.3016,3.2905,3.2819,3.2662,3.2502,3.278,3.3103,3.2854,3.2616,3.2922,3.3259,3.319,3.3375,3.3534,3.3765,3.4056,3.5489,3.5489,3.5489,3.5489,3.5489,3.5489,3.5489,3.5489,3.5489,3.5489,3.5489,3.5489,3.5489,3.5489,3.5489,3.5489,3.5522,3.5638,3.572,3.572,3.5863,3.5973,3.5988,3.5957,3.5988,3.6037,3.6148,3.6211,3.629,3.6507,3.6585,3.6647,3.68,3.6998,3.7359,3.7596,3.7847,3.795,3.802,3.816,3.8294,3.7822,3.7427,3.7267,3.6626,3.6065,3.5531,3.5489,3.5242,3.4895,3.4749,3.4594,3.4472,3.4325,3.4176,3.405,3.3899,3.3838,3.3771,3.3873,3.3924,3.3915,3.3864,3.3761,3.3694,3.3694,3.372,3.3752,3.3774,3.3748,3.3658,3.3587,3.3488,3.3833,3.3818,3.3961,3.3903,3.3929,3.3889,3.3398,3.3075,3.2675,3.2505,3.2487,3.2597,3.2885,3.3123,3.3303,3.3581,3.371,3.3848,3.405,3.4151,3.4075,3.3958,3.3822,3.3617,3.3361,3.3096,3.2881,3.2827,3.2968,3.3097,3.3121,3.3488,3.3796,3.3679,3.3668,3.3988,3.419,3.4175,3.4151,3.4311,3.4467,3.4637,3.5572,3.5572,3.5537,3.5489,3.5489,3.5489,3.5489,3.5489,3.5489,3.5489,3.5489,3.5489,3.5489,3.5489,3.5489,3.5489,3.5537,3.5604,3.5638,3.5638,3.5765,3.5812,3.5797,3.5814,3.5765,3.5878,3.6022,3.6148,3.6133,3.6383,3.6492,3.6554,3.66,3.6754,3.6998,3.7255,3.7464,3.7537,3.7669,3.7831,3.7892,3.7758,3.7598,3.7367,3.703,3.6649,3.6179,3.5818,3.5523,3.5079,3.475,3.4505,3.4275,3.4101,3.3924,3.3761,3.3529,3.3477,3.3529,3.3503,3.365,3.4032,3.3808,3.3597,3.3529,3.345,3.3424,3.3472,3.3646,3.3694,3.3661,3.3527,3.387,3.422,3.4291,3.4399,3.4436,3.4443,3.4412,3.3921,3.3444,3.3029,3.2659,3.2579,3.2588,3.2924,3.3271,3.3455,3.3656,3.3728,3.38,3.3915,3.4048,3.3988,3.3803,3.3617,3.3424,3.3219,3.3146,3.3115,3.3225,3.3424,3.3596,3.3767,3.4058,3.4361,3.4612,3.4789,3.4966,3.5102,3.519,3.5169,3.5136,3.5279,3.5452,3.572,3.5688,3.5587,3.5504,3.5489,3.5489,3.5489,3.5489,3.5489,3.5489,3.5489,3.5489,3.5489,3.5489,3.5489,3.5489,3.5489,3.5537,3.5522,3.5522,3.5587,3.5569,3.5569,3.5554,3.5587,3.5683,3.5829,3.6068,3.6022,3.632,3.6492,3.6492,3.6523,3.6585,3.6708,3.6862,3.7075,3.7194,3.7344,3.7508,3.7634,3.7883,3.7701,3.7535,3.7394,3.7134,3.6685,3.6224,3.5824,3.5373,3.4847,3.4429,3.4117,3.3949,3.3642,3.3346,3.3069,3.3291,3.3418,3.3423,3.3754,3.4225,3.3958,3.353,3.3466,3.3574,3.3626,3.367,3.3818,3.3876,3.3886,3.4231,3.4561,3.4661,3.468,3.4732,3.4765,3.4782,3.4736,3.4397,3.386,3.3429,3.3088,3.2903,3.3128,3.3516,3.3839,3.3865,3.4004,3.3889,3.393,3.3784,3.3877,3.3874,3.3766,3.3789,3.3797,3.3783,3.377,3.3761,3.3836,3.3996,3.4275,3.4536,3.4627,3.4885,3.5416,3.5667,3.5747,3.5928,3.6117,3.6079,3.6044,3.6343,3.6547,3.5831,3.5688,3.5671,3.5604,3.5504,3.5489,3.5489,3.5489,3.5489,3.5489,3.5489,3.5489,3.5489,3.5489,3.5489,3.5489,3.5489,3.5489,3.5489,3.5489,3.5489,3.5489,3.5489,3.5489,3.5489,3.5619,3.5812,3.602,3.6068,3.6336,3.6492,3.6492,3.6492,3.6492,3.6523,3.6585,3.6723,3.6877,3.7059,3.724,3.7403,3.761,3.7578,3.7668,3.7774,3.7554,3.7129,3.6912,3.645,3.5547,3.5184,3.4732,3.3975,3.3642,3.3335,3.3148,3.3299,3.3673,3.3791,3.4135,3.4435,3.4604,3.4532,3.4519,3.4401,3.4238,3.4166,3.4009,3.4094,3.4251,3.4303,3.4537,3.4906,3.5061,3.5123,3.5231,3.5308,3.5461,3.5369,3.4892,3.4384,3.4073,3.3688,3.3673,3.3931,3.4247,3.4423,3.4441,3.4415,3.4327,3.4176,3.4048,3.4133,3.4282,3.4387,3.4419,3.4419,3.4397,3.4364,3.4357,3.444,3.4643,3.5014,3.5305,3.5503,3.5901,3.6424,3.654,3.6524,3.685,3.704,3.6999,3.6988,3.7086,3.7135,3.5926,3.5799,3.5686,3.5572,3.5489,3.5489,3.5489,3.5489,3.5489,3.5489,3.5489,3.5489,3.5489,3.5489,3.5489,3.5489,3.5489,3.5489,3.5489,3.5489,3.5489,3.5489,3.5489,3.5489,3.5489,3.5619,3.5812,3.602,3.61,3.6289,3.6492,3.6492,3.6492,3.6492,3.6523,3.6523,3.6554,3.6662,3.6785,3.6968,3.7104,3.7252,3.7476,3.7669,3.7889,3.776,3.752,3.7455,3.675,3.6001,3.5749,3.4989,3.4217,3.3677,3.3619,3.3541,3.3754,3.3986,3.412,3.4381,3.4754,3.5017,3.5095,3.5161,3.5022,3.4838,3.4474,3.4232,3.451,3.4726,3.4743,3.4775,3.5141,3.5461,3.5614,3.5752,3.5966,3.6197,3.5876,3.5416,3.5031,3.4752,3.4597,3.4582,3.4657,3.4886,3.5067,3.5109,3.5044,3.4907,3.468,3.4459,3.4643,3.4825,3.4896,3.4902,3.4813,3.4827,3.4928,3.4948,3.5013,3.5321,3.5767,3.6121,3.6459,3.6751,3.6888,3.7207,3.7291,3.751,3.751,3.7356,3.7233,3.7282,3.7301,3.5853,3.585,3.5621,3.5504,3.5457,3.5457,3.5439,3.5472,3.5424,3.5472,3.5472,3.5489,3.5489,3.5489,3.5489,3.5489,3.5489,3.5489,3.5489,3.5489,3.5489,3.5489,3.5489,3.5489,3.5522,3.5651,3.5829,3.6052,3.6147,3.6336,3.6492,3.6492,3.6492,3.6492,3.6492,3.6492,3.6523,3.6554,3.6647,3.6754,3.6831,3.7013,3.7238,3.7403,3.7567,3.765,3.761,3.7348,3.6914,3.6626,3.6171,3.5359,3.4526,3.4013,3.4061,3.4152,3.4205,3.4373,3.4495,3.4724,3.5061,3.5307,3.5461,3.5554,3.5431,3.5278,3.4927,3.4714,3.4973,3.5063,3.5076,3.5197,3.5469,3.5638,3.5715,3.5839,3.5993,3.6116,3.5965,3.5615,3.5554,3.5293,3.5185,3.5169,3.5367,3.5552,3.5643,3.5734,3.5682,3.554,3.5222,3.493,3.5122,3.5257,3.524,3.5208,3.5138,3.5191,3.5396,3.5536,3.5645,3.6014,3.6508,3.6631,3.6737,3.6966,3.7164,3.7375,3.751,3.751,3.751,3.751,3.748,3.7464,3.745,3.4682,3.5057,3.5377,3.5392,3.5279,3.5261,3.5166,3.5034,3.5034,3.5213,3.5457,3.5489,3.5489,3.5489,3.5489,3.5489,3.5489,3.5489,3.5489,3.5489,3.5489,3.5489,3.5489,3.5489,3.5554,3.5686,3.591,3.6147,3.6336,3.646,3.6492,3.6492,3.6492,3.6492,3.6492,3.6492,3.6492,3.6492,3.6523,3.66,3.6723,3.6739,3.6892,3.7089,3.7255,3.7329,3.7324,3.7365,3.692,3.6555,3.6298,3.5504,3.4461,3.4315,3.4157,3.4134,3.4562,3.4775,3.4927,3.5171,3.5507,3.5674,3.5811,3.5791,3.5744,3.5641,3.5504,3.5378,3.5297,3.5339,3.5413,3.5563,3.5668,3.5718,3.5799,3.5863,3.5941,3.5928,3.5914,3.5932,3.592,3.586,3.5753,3.5845,3.6061,3.6199,3.6261,3.6292,3.6276,3.6149,3.5675,3.5428,3.558,3.5673,3.5619,3.5669,3.5656,3.5782,3.6014,3.6153,3.6199,3.643,3.6631,3.6739,3.6876,3.7089,3.724,3.7375,3.748,3.751,3.751,3.751,3.751,3.748,3.751,3.3909,3.4192,3.4425,3.4594,3.4656,3.4653,3.472,3.4905,3.4902,3.5001,3.5228,3.5326,3.5407,3.5457,3.5489,3.5504,3.5504,3.5489,3.5489,3.5489,3.5489,3.5489,3.5489,3.5489,3.5522,3.5653,3.591,3.6163,3.646,3.6492,3.6492,3.6492,3.6492,3.6492,3.6492,3.6492,3.6492,3.6492,3.6492,3.6554,3.66,3.6631,3.6693,3.6862,3.6938,3.7013,3.7119,3.718,3.7006,3.6538,3.6201,3.6007,3.526,3.4956,3.4744,3.4834,3.5106,3.5302,3.5408,3.559,3.5863,3.5863,3.5863,3.5721,3.5638,3.5537,3.5554,3.5441,3.5409,3.5467,3.5434,3.5539,3.5569,3.5619,3.5636,3.5668,3.5733,3.5767,3.5769,3.5787,3.5868,3.5963,3.5904,3.5982,3.6167,3.6229,3.6352,3.6476,3.6507,3.6538,3.6121,3.5901,3.6008,3.6087,3.6106,3.6199,3.6276,3.643,3.6492,3.643,3.6384,3.6569,3.6723,3.6877,3.7029,3.7164,3.7329,3.7435,3.748,3.751,3.751,3.751,3.751,3.7573,3.7715,3.3199,3.3273,3.3315,3.3469,3.3782,3.3915,3.4188,3.4578,3.4725,3.4769,3.4787,3.4935,3.518,3.5359,3.5457,3.5472,3.5472,3.5504,3.5504,3.5489,3.5489,3.5489,3.5489,3.5489,3.5554,3.5701,3.5957,3.621,3.6492,3.6492,3.6492,3.6492,3.6492,3.6492,3.6492,3.6492,3.6492,3.6492,3.6492,3.6492,3.6492,3.6492,3.6585,3.6631,3.6677,3.677,3.6862,3.6938,3.6923,3.6584,3.6106,3.5938,3.5814,3.543,3.5364,3.5388,3.543,3.555,3.561,3.561,3.5671,3.5655,3.5655,3.5606,3.5537,3.5504,3.5537,3.5537,3.5504,3.5504,3.5504,3.5489,3.5504,3.5537,3.5537,3.5537,3.5587,3.5636,3.5653,3.5688,3.5799,3.5941,3.599,3.607,3.6179,3.6242,3.632,3.6429,3.6492,3.6523,3.6338,3.623,3.6307,3.6415,3.6461,3.6476,3.6523,3.6523,3.6492,3.6523,3.6554,3.6708,3.6862,3.7014,3.7165,3.73,3.7405,3.748,3.751,3.751,3.751,3.7526,3.7605,3.767,3.7986,3.1871,3.2314,3.2831,3.2954,3.289,3.331,3.3448,3.3403,3.3907,3.4142,3.4264,3.4332,3.4534,3.5016,3.518,3.5246,3.5294,3.5374,3.5472,3.5489,3.5457,3.5457,3.5489,3.5489,3.5668,3.5814,3.6005,3.6258,3.6414,3.646,3.6492,3.6492,3.6492,3.6492,3.6492,3.6492,3.6492,3.6492,3.6492,3.646,3.6352,3.6383,3.6476,3.6507,3.6523,3.6554,3.6585,3.6585,3.6476,3.629,3.6089,3.5931,3.5775,3.5649,3.555,3.5484,3.5587,3.5572,3.5572,3.5572,3.5557,3.5572,3.5572,3.5539,3.5504,3.5504,3.5489,3.5489,3.5504,3.5504,3.5489,3.5489,3.5504,3.5522,3.5522,3.5554,3.5587,3.5587,3.5619,3.5653,3.5703,3.5767,3.5799,3.5911,3.6148,3.6211,3.6352,3.6429,3.6492,3.6492,3.6492,3.6523,3.6569,3.6523,3.6476,3.6476,3.6523,3.6492,3.6523,3.6554,3.6647,3.6831,3.6984,3.7105,3.7255,3.7435,3.751,3.751,3.751,3.751,3.751,3.7541,3.7668,3.8062,3.8551]}]]